Wetterdaten: Mittwoch, 23.03.2016
Datum Zeit Temp. A. Feuchte A. Luftdruck Regen Wind Richtung Richtung Sonnenschein ET UV Solar Taupunkt Windchill Windben Empfang
23.03.2016 00:00 4,3 C 86 % 1008,9 hPa 0,0 l/m 0,2 km/h (0 Bft) N-NW 348 0 min 0,000 mm 0,0 UV-I 0 W/m 2,2 C 4,3 C 1,6 km/h (1 Bft) 95,83 %
23.03.2016 00:02 4,3 C 87 % 1008,9 hPa 0,0 l/m 1,8 km/h (1 Bft) N-NW 348 0 min 0,000 mm 0,0 UV-I 0 W/m 2,3 C 4,3 C 3,2 km/h (1 Bft) 97,83 %
23.03.2016 00:03 4,3 C 87 % 1008,9 hPa 0,0 l/m 1,9 km/h (1 Bft) N-NW 348 0 min 0,000 mm 0,0 UV-I 0 W/m 2,3 C 4,3 C 3,2 km/h (1 Bft) 100,00 %
23.03.2016 00:04 4,3 C 87 % 1008,8 hPa 0,0 l/m 1,3 km/h (1 Bft) N-NW 348 0 min 0,000 mm 0,0 UV-I 0 W/m 2,3 C 4,3 C 1,6 km/h (1 Bft) 96,55 %
23.03.2016 00:05 4,3 C 87 % 1008,8 hPa 0,0 l/m 1,1 km/h (1 Bft) N 350 0 min 0,000 mm 0,0 UV-I 0 W/m 2,3 C 4,3 C 1,6 km/h (1 Bft) 95,83 %
23.03.2016 00:06 4,3 C 87 % 1008,8 hPa 0,0 l/m 0,7 km/h (0 Bft) N 351 0 min 0,000 mm 0,0 UV-I 0 W/m 2,3 C 4,3 C 1,6 km/h (1 Bft) 100,00 %
23.03.2016 00:07 4,2 C 87 % 1008,8 hPa 0,0 l/m 1,4 km/h (1 Bft) N 355 0 min 0,000 mm 0,0 UV-I 0 W/m 2,2 C 4,2 C 3,2 km/h (1 Bft) 95,83 %
23.03.2016 00:08 4,3 C 87 % 1008,8 hPa 0,0 l/m 1,1 km/h (1 Bft) O-SO 111 0 min 0,000 mm 0,0 UV-I 0 W/m 2,3 C 4,3 C 1,6 km/h (1 Bft) 97,56 %
23.03.2016 00:09 4,3 C 87 % 1008,8 hPa 0,0 l/m 0,7 km/h (0 Bft) O-SO 114 0 min 0,000 mm 0,0 UV-I 0 W/m 2,3 C 4,3 C 3,2 km/h (1 Bft) 97,56 %
23.03.2016 00:10 4,3 C 87 % 1008,8 hPa 0,0 l/m 1,2 km/h (1 Bft) O-SO 119 0 min 0,000 mm 0,0 UV-I 0 W/m 2,3 C 4,3 C 3,2 km/h (1 Bft) 100,00 %
23.03.2016 00:11 4,3 C 87 % 1008,8 hPa 0,0 l/m 1,2 km/h (1 Bft) O-SO 121 0 min 0,000 mm 0,0 UV-I 0 W/m 2,3 C 4,3 C 1,6 km/h (1 Bft) 92,59 %
23.03.2016 00:12 4,3 C 87 % 1008,8 hPa 0,0 l/m 0,1 km/h (0 Bft) O-SO 121 0 min 0,000 mm 0,0 UV-I 0 W/m 2,3 C 4,3 C 1,6 km/h (1 Bft) 95,65 %
23.03.2016 00:13 4,3 C 87 % 1008,8 hPa 0,0 l/m 1,6 km/h (1 Bft) O-SO 121 0 min 0,000 mm 0,0 UV-I 0 W/m 2,3 C 4,3 C 3,2 km/h (1 Bft) 100,00 %
23.03.2016 00:14 4,3 C 87 % 1008,8 hPa 0,0 l/m 1,1 km/h (1 Bft) O-SO 121 0 min 0,000 mm 0,0 UV-I 0 W/m 2,3 C 4,3 C 3,2 km/h (1 Bft) 95,65 %
23.03.2016 00:15 4,3 C 87 % 1008,8 hPa 0,0 l/m 1,0 km/h (0 Bft) O-SO 121 0 min 0,000 mm 0,0 UV-I 0 W/m 2,3 C 4,3 C 3,2 km/h (1 Bft) 100,00 %
23.03.2016 00:16 4,3 C 87 % 1008,8 hPa 0,0 l/m 1,9 km/h (1 Bft) O-SO 121 0 min 0,000 mm 0,0 UV-I 0 W/m 2,3 C 4,3 C 3,2 km/h (1 Bft) 91,67 %
23.03.2016 00:17 4,3 C 87 % 1008,8 hPa 0,0 l/m 3,0 km/h (1 Bft) O-SO 121 0 min 0,000 mm 0,0 UV-I 0 W/m 2,3 C 4,3 C 3,2 km/h (1 Bft) 100,00 %
23.03.2016 00:18 4,3 C 87 % 1008,7 hPa 0,0 l/m 2,1 km/h (1 Bft) O-SO 121 0 min 0,000 mm 0,0 UV-I 0 W/m 2,3 C 4,3 C 4,8 km/h (1 Bft) 95,83 %
23.03.2016 00:19 4,3 C 87 % 1008,7 hPa 0,0 l/m 1,3 km/h (1 Bft) O-SO 121 0 min 0,000 mm 0,0 UV-I 0 W/m 2,3 C 4,3 C 3,2 km/h (1 Bft) 100,00 %
23.03.2016 00:20 4,3 C 87 % 1008,7 hPa 0,0 l/m 1,5 km/h (1 Bft) O-SO 121 0 min 0,000 mm 0,0 UV-I 0 W/m 2,3 C 4,3 C 3,2 km/h (1 Bft) 96,30 %
23.03.2016 00:21 4,3 C 87 % 1008,7 hPa 0,0 l/m 1,5 km/h (1 Bft) O-SO 121 0 min 0,000 mm 0,0 UV-I 0 W/m 2,3 C 4,3 C 3,2 km/h (1 Bft) 95,65 %
23.03.2016 00:22 4,3 C 87 % 1008,7 hPa 0,0 l/m 1,6 km/h (1 Bft) O-SO 121 0 min 0,000 mm 0,0 UV-I 0 W/m 2,3 C 4,3 C 3,2 km/h (1 Bft) 100,00 %
23.03.2016 00:23 4,3 C 87 % 1008,7 hPa 0,0 l/m 1,4 km/h (1 Bft) O-SO 121 0 min 0,000 mm 0,0 UV-I 0 W/m 2,3 C 4,3 C 3,2 km/h (1 Bft) 96,15 %
23.03.2016 00:24 4,3 C 87 % 1008,7 hPa 0,0 l/m 0,2 km/h (0 Bft) O-SO 121 0 min 0,000 mm 0,0 UV-I 0 W/m 2,3 C 4,3 C 1,6 km/h (1 Bft) 100,00 %
23.03.2016 00:25 4,3 C 87 % 1008,7 hPa 0,0 l/m 0,9 km/h (0 Bft) O-SO 121 0 min 0,000 mm 0,0 UV-I 0 W/m 2,3 C 4,3 C 3,2 km/h (1 Bft) 96,15 %
23.03.2016 00:26 4,3 C 88 % 1008,7 hPa 0,0 l/m 0,9 km/h (0 Bft) O-SO 121 0 min 0,000 mm 0,0 UV-I 0 W/m 2,5 C 4,3 C 3,2 km/h (1 Bft) 100,00 %
23.03.2016 00:27 4,3 C 88 % 1008,7 hPa 0,0 l/m 1,4 km/h (1 Bft) O-SO 121 0 min 0,000 mm 0,0 UV-I 0 W/m 2,5 C 4,3 C 3,2 km/h (1 Bft) 91,30 %
23.03.2016 00:28 4,3 C 87 % 1008,6 hPa 0,0 l/m 0,4 km/h (0 Bft) O-SO 121 0 min 0,000 mm 0,0 UV-I 0 W/m 2,3 C 4,3 C 1,6 km/h (1 Bft) 95,83 %
23.03.2016 00:29 4,3 C 87 % 1008,6 hPa 0,0 l/m 0,7 km/h (0 Bft) O-SO 121 0 min 0,000 mm 0,0 UV-I 0 W/m 2,3 C 4,3 C 1,6 km/h (1 Bft) 96,15 %
23.03.2016 00:30 4,3 C 87 % 1008,6 hPa 0,0 l/m 0,1 km/h (0 Bft) O-SO 121 0 min 0,000 mm 0,0 UV-I 0 W/m 2,3 C 4,3 C 1,6 km/h (1 Bft) 95,83 %
23.03.2016 00:31 4,3 C 87 % 1008,6 hPa 0,0 l/m 0,0 km/h (0 Bft) O-SO 121 0 min 0,000 mm 0,0 UV-I 0 W/m 2,3 C 4,3 C 0,0 km/h (0 Bft) 91,30 %
23.03.2016 00:32 4,3 C 87 % 1008,6 hPa 0,0 l/m 0,0 km/h (0 Bft) O-SO 121 0 min 0,000 mm 0,0 UV-I 0 W/m 2,3 C 4,3 C 0,0 km/h (0 Bft) 95,83 %
23.03.2016 00:33 4,3 C 87 % 1008,6 hPa 0,0 l/m 0,0 km/h (0 Bft) O-SO 121 0 min 0,000 mm 0,0 UV-I 0 W/m 2,3 C 4,3 C 0,0 km/h (0 Bft) 100,00 %
23.03.2016 00:34 4,3 C 87 % 1008,6 hPa 0,0 l/m 0,3 km/h (0 Bft) O-SO 121 0 min 0,000 mm 0,0 UV-I 0 W/m 2,3 C 4,3 C 1,6 km/h (1 Bft) 95,83 %
23.03.2016 00:35 4,3 C 87 % 1008,5 hPa 0,0 l/m 0,8 km/h (0 Bft) O-SO 121 0 min 0,000 mm 0,0 UV-I 0 W/m 2,3 C 4,3 C 1,6 km/h (1 Bft) 100,00 %
23.03.2016 00:36 4,3 C 87 % 1008,5 hPa 0,0 l/m 0,1 km/h (0 Bft) O-SO 121 0 min 0,000 mm 0,0 UV-I 0 W/m 2,3 C 4,3 C 1,6 km/h (1 Bft) 100,00 %
23.03.2016 00:37 4,3 C 87 % 1008,6 hPa 0,0 l/m 1,2 km/h (1 Bft) O-SO 121 0 min 0,000 mm 0,0 UV-I 0 W/m 2,3 C 4,3 C 3,2 km/h (1 Bft) 96,88 %
23.03.2016 00:38 4,3 C 87 % 1008,5 hPa 0,0 l/m 1,3 km/h (1 Bft) O-SO 121 0 min 0,000 mm 0,0 UV-I 0 W/m 2,3 C 4,3 C 3,2 km/h (1 Bft) 95,83 %
23.03.2016 00:39 4,3 C 87 % 1008,5 hPa 0,0 l/m 0,5 km/h (0 Bft) O-SO 121 0 min 0,000 mm 0,0 UV-I 0 W/m 2,3 C 4,3 C 1,6 km/h (1 Bft) 100,00 %
23.03.2016 00:40 4,3 C 87 % 1008,5 hPa 0,0 l/m 0,4 km/h (0 Bft) O-SO 121 0 min 0,000 mm 0,0 UV-I 0 W/m 2,3 C 4,3 C 1,6 km/h (1 Bft) 97,14 %
23.03.2016 00:41 4,3 C 87 % 1008,5 hPa 0,0 l/m 0,0 km/h (0 Bft) O-SO 121 0 min 0,000 mm 0,0 UV-I 0 W/m 2,3 C 4,3 C 0,0 km/h (0 Bft) 100,00 %
23.03.2016 00:42 4,3 C 86 % 1008,5 hPa 0,0 l/m 0,0 km/h (0 Bft) O-SO 121 0 min 0,000 mm 0,0 UV-I 0 W/m 2,2 C 4,3 C 0,0 km/h (0 Bft) 100,00 %
23.03.2016 00:43 4,3 C 86 % 1008,5 hPa 0,0 l/m 0,0 km/h (0 Bft) O-SO 121 0 min 0,000 mm 0,0 UV-I 0 W/m 2,2 C 4,3 C 0,0 km/h (0 Bft) 100,00 %
23.03.2016 00:44 4,3 C 87 % 1008,5 hPa 0,0 l/m 0,0 km/h (0 Bft) O-SO 121 0 min 0,000 mm 0,0 UV-I 0 W/m 2,3 C 4,3 C 0,0 km/h (0 Bft) 100,00 %
23.03.2016 00:45 4,3 C 87 % 1008,5 hPa 0,0 l/m 0,0 km/h (0 Bft) O-SO 121 0 min 0,000 mm 0,0 UV-I 0 W/m 2,3 C 4,3 C 0,0 km/h (0 Bft) 100,00 %
23.03.2016 00:46 4,3 C 87 % 1008,4 hPa 0,0 l/m 0,0 km/h (0 Bft) O-SO 121 0 min 0,000 mm 0,0 UV-I 0 W/m 2,3 C 4,3 C 0,0 km/h (0 Bft) 100,00 %
23.03.2016 00:47 4,3 C 87 % 1008,4 hPa 0,0 l/m 0,0 km/h (0 Bft) O-SO 121 0 min 0,000 mm 0,0 UV-I 0 W/m 2,3 C 4,3 C 0,0 km/h (0 Bft) 91,67 %
23.03.2016 00:48 4,3 C 87 % 1008,4 hPa 0,0 l/m 0,0 km/h (0 Bft) O-SO 121 0 min 0,000 mm 0,0 UV-I 0 W/m 2,3 C 4,3 C 0,0 km/h (0 Bft) 100,00 %
23.03.2016 00:49 4,3 C 87 % 1008,4 hPa 0,0 l/m 0,0 km/h (0 Bft) O-SO 121 0 min 0,000 mm 0,0 UV-I 0 W/m 2,3 C 4,3 C 0,0 km/h (0 Bft) 100,00 %
23.03.2016 00:50 4,2 C 88 % 1008,4 hPa 0,0 l/m 0,0 km/h (0 Bft) O-SO 121 0 min 0,000 mm 0,0 UV-I 0 W/m 2,4 C 4,2 C 0,0 km/h (0 Bft) 100,00 %
23.03.2016 00:51 4,2 C 88 % 1008,3 hPa 0,0 l/m 0,0 km/h (0 Bft) O-SO 121 0 min 0,000 mm 0,0 UV-I 0 W/m 2,4 C 4,2 C 0,0 km/h (0 Bft) 100,00 %
23.03.2016 00:52 4,2 C 88 % 1008,3 hPa 0,0 l/m 0,0 km/h (0 Bft) O-SO 121 0 min 0,000 mm 0,0 UV-I 0 W/m 2,4 C 4,2 C 0,0 km/h (0 Bft) 96,15 %
23.03.2016 00:53 4,2 C 88 % 1008,3 hPa 0,0 l/m 0,0 km/h (0 Bft) O-SO 121 0 min 0,000 mm 0,0 UV-I 0 W/m 2,4 C 4,2 C 0,0 km/h (0 Bft) 100,00 %
23.03.2016 00:54 4,2 C 88 % 1008,3 hPa 0,0 l/m 0,0 km/h (0 Bft) O-SO 121 0 min 0,000 mm 0,0 UV-I 0 W/m 2,4 C 4,2 C 0,0 km/h (0 Bft) 100,00 %
23.03.2016 00:55 4,2 C 88 % 1008,3 hPa 0,0 l/m 0,0 km/h (0 Bft) O-SO 121 0 min 0,000 mm 0,0 UV-I 0 W/m 2,4 C 4,2 C 0,0 km/h (0 Bft) 100,00 %
23.03.2016 00:56 4,2 C 88 % 1008,3 hPa 0,0 l/m 0,0 km/h (0 Bft) O-SO 121 0 min 0,000 mm 0,0 UV-I 0 W/m 2,4 C 4,2 C 0,0 km/h (0 Bft) 100,00 %
23.03.2016 00:57 4,1 C 88 % 1008,2 hPa 0,0 l/m 0,0 km/h (0 Bft) O-SO 121 0 min 0,000 mm 0,0 UV-I 0 W/m 2,3 C 4,1 C 0,0 km/h (0 Bft) 100,00 %
23.03.2016 00:58 4,2 C 88 % 1008,3 hPa 0,0 l/m 0,0 km/h (0 Bft) O-SO 121 0 min 0,000 mm 0,0 UV-I 0 W/m 2,4 C 4,2 C 0,0 km/h (0 Bft) 100,00 %
23.03.2016 00:59 4,1 C 88 % 1008,3 hPa 0,0 l/m 0,0 km/h (0 Bft) O-SO 121 0 min 0,000 mm 0,0 UV-I 0 W/m 2,3 C 4,1 C 0,0 km/h (0 Bft) 100,00 %
23.03.2016 01:00 4,1 C 88 % 1008,2 hPa 0,0 l/m 0,0 km/h (0 Bft) O-SO 121 0 min 0,000 mm 0,0 UV-I 0 W/m 2,3 C 4,1 C 0,0 km/h (0 Bft) 100,00 %
23.03.2016 01:01 4,1 C 88 % 1008,3 hPa 0,0 l/m 0,0 km/h (0 Bft) O-SO 121 0 min 0,000 mm 0,0 UV-I 0 W/m 2,3 C 4,1 C 0,0 km/h (0 Bft) 100,00 %
23.03.2016 01:02 4,1 C 88 % 1008,2 hPa 0,0 l/m 0,0 km/h (0 Bft) O-SO 121 0 min 0,000 mm 0,0 UV-I 0 W/m 2,3 C 4,1 C 0,0 km/h (0 Bft) 100,00 %
23.03.2016 01:03 4,1 C 88 % 1008,2 hPa 0,0 l/m 0,0 km/h (0 Bft) O-SO 121 0 min 0,000 mm 0,0 UV-I 0 W/m 2,3 C 4,1 C 0,0 km/h (0 Bft) 100,00 %
23.03.2016 01:04 4,1 C 88 % 1008,2 hPa 0,0 l/m 0,0 km/h (0 Bft) O-SO 121 0 min 0,000 mm 0,0 UV-I 0 W/m 2,3 C 4,1 C 0,0 km/h (0 Bft) 100,00 %
23.03.2016 01:05 4,1 C 88 % 1008,2 hPa 0,0 l/m 0,0 km/h (0 Bft) O-SO 121 0 min 0,000 mm 0,0 UV-I 0 W/m 2,3 C 4,1 C 0,0 km/h (0 Bft) 95,65 %
23.03.2016 01:06 4,1 C 88 % 1008,2 hPa 0,0 l/m 0,0 km/h (0 Bft) O-SO 121 0 min 0,000 mm 0,0 UV-I 0 W/m 2,3 C 4,1 C 0,0 km/h (0 Bft) 100,00 %
23.03.2016 01:07 4,1 C 88 % 1008,2 hPa 0,0 l/m 0,0 km/h (0 Bft) O-SO 121 0 min 0,000 mm 0,0 UV-I 0 W/m 2,3 C 4,1 C 0,0 km/h (0 Bft) 100,00 %
23.03.2016 01:08 4,1 C 88 % 1008,2 hPa 0,0 l/m 0,0 km/h (0 Bft) O-SO 121 0 min 0,000 mm 0,0 UV-I 0 W/m 2,3 C 4,1 C 0,0 km/h (0 Bft) 95,83 %
23.03.2016 01:09 4,1 C 89 % 1008,2 hPa 0,0 l/m 0,0 km/h (0 Bft) O-SO 121 0 min 0,000 mm 0,0 UV-I 0 W/m 2,5 C 4,1 C 0,0 km/h (0 Bft) 100,00 %
23.03.2016 01:10 4,0 C 89 % 1008,2 hPa 0,0 l/m 0,0 km/h (0 Bft) O-SO 121 0 min 0,000 mm 0,0 UV-I 0 W/m 2,4 C 4,0 C 0,0 km/h (0 Bft) 95,83 %
23.03.2016 01:11 4,0 C 89 % 1008,2 hPa 0,0 l/m 0,0 km/h (0 Bft) O-SO 121 0 min 0,000 mm 0,0 UV-I 0 W/m 2,4 C 4,0 C 0,0 km/h (0 Bft) 100,00 %
23.03.2016 01:12 4,0 C 89 % 1008,2 hPa 0,0 l/m 0,0 km/h (0 Bft) O-SO 121 0 min 0,000 mm 0,0 UV-I 0 W/m 2,4 C 4,0 C 0,0 km/h (0 Bft) 100,00 %
23.03.2016 01:13 4,0 C 89 % 1008,2 hPa 0,0 l/m 0,0 km/h (0 Bft) O-SO 121 0 min 0,000 mm 0,0 UV-I 0 W/m 2,4 C 4,0 C 0,0 km/h (0 Bft) 100,00 %
23.03.2016 01:14 4,0 C 89 % 1008,2 hPa 0,0 l/m 0,0 km/h (0 Bft) O-SO 121 0 min 0,000 mm 0,0 UV-I 0 W/m 2,4 C 4,0 C 0,0 km/h (0 Bft) 96,30 %
23.03.2016 01:15 3,9 C 89 % 1008,1 hPa 0,0 l/m 0,0 km/h (0 Bft) O-SO 121 0 min 0,000 mm 0,0 UV-I 0 W/m 2,3 C 3,9 C 0,0 km/h (0 Bft) 95,65 %
23.03.2016 01:16 3,9 C 89 % 1008,1 hPa 0,0 l/m 0,1 km/h (0 Bft) O-SO 121 0 min 0,000 mm 0,0 UV-I 0 W/m 2,3 C 3,9 C 1,6 km/h (1 Bft) 100,00 %
23.03.2016 01:17 3,9 C 89 % 1008,1 hPa 0,0 l/m 0,7 km/h (0 Bft) O-SO 121 0 min 0,000 mm 0,0 UV-I 0 W/m 2,3 C 3,9 C 1,6 km/h (1 Bft) 100,00 %
23.03.2016 01:18 3,9 C 89 % 1008,2 hPa 0,0 l/m 1,6 km/h (1 Bft) O-SO 121 0 min 0,000 mm 0,0 UV-I 0 W/m 2,3 C 3,9 C 1,6 km/h (1 Bft) 91,67 %
23.03.2016 01:19 3,9 C 89 % 1008,1 hPa 0,0 l/m 1,5 km/h (1 Bft) O-SO 121 0 min 0,000 mm 0,0 UV-I 0 W/m 2,3 C 3,9 C 1,6 km/h (1 Bft) 100,00 %
23.03.2016 01:20 3,9 C 89 % 1008,1 hPa 0,0 l/m 1,6 km/h (1 Bft) O-SO 121 0 min 0,000 mm 0,0 UV-I 0 W/m 2,3 C 3,9 C 1,6 km/h (1 Bft) 95,65 %
23.03.2016 01:21 3,9 C 89 % 1008,1 hPa 0,0 l/m 1,4 km/h (1 Bft) O-SO 121 0 min 0,000 mm 0,0 UV-I 0 W/m 2,3 C 3,9 C 1,6 km/h (1 Bft) 100,00 %
23.03.2016 01:22 3,9 C 89 % 1008,1 hPa 0,0 l/m 1,2 km/h (1 Bft) O-SO 121 0 min 0,000 mm 0,0 UV-I 0 W/m 2,3 C 3,9 C 1,6 km/h (1 Bft) 100,00 %
23.03.2016 01:23 3,9 C 89 % 1008,1 hPa 0,0 l/m 1,1 km/h (1 Bft) O-SO 121 0 min 0,000 mm 0,0 UV-I 0 W/m 2,3 C 3,9 C 1,6 km/h (1 Bft) 100,00 %
23.03.2016 01:24 3,9 C 89 % 1008,1 hPa 0,0 l/m 0,6 km/h (0 Bft) O-SO 121 0 min 0,000 mm 0,0 UV-I 0 W/m 2,3 C 3,9 C 1,6 km/h (1 Bft) 100,00 %
23.03.2016 01:25 3,9 C 89 % 1008,1 hPa 0,0 l/m 0,1 km/h (0 Bft) O-SO 121 0 min 0,000 mm 0,0 UV-I 0 W/m 2,3 C 3,9 C 1,6 km/h (1 Bft) 100,00 %
23.03.2016 01:26 3,9 C 89 % 1008,1 hPa 0,0 l/m 0,0 km/h (0 Bft) O-SO 121 0 min 0,000 mm 0,0 UV-I 0 W/m 2,3 C 3,9 C 0,0 km/h (0 Bft) 100,00 %
23.03.2016 01:27 3,8 C 89 % 1008,1 hPa 0,0 l/m 0,0 km/h (0 Bft) O-SO 121 0 min 0,000 mm 0,0 UV-I 0 W/m 2,2 C 3,8 C 0,0 km/h (0 Bft) 100,00 %
23.03.2016 01:28 3,8 C 89 % 1008,1 hPa 0,0 l/m 0,1 km/h (0 Bft) O-SO 121 0 min 0,000 mm 0,0 UV-I 0 W/m 2,2 C 3,8 C 1,6 km/h (1 Bft) 100,00 %
23.03.2016 01:29 3,8 C 89 % 1008,1 hPa 0,0 l/m 0,2 km/h (0 Bft) O-SO 121 0 min 0,000 mm 0,0 UV-I 0 W/m 2,2 C 3,8 C 1,6 km/h (1 Bft) 100,00 %
23.03.2016 01:30 3,8 C 89 % 1008,1 hPa 0,0 l/m 0,7 km/h (0 Bft) O-SO 121 0 min 0,000 mm 0,0 UV-I 0 W/m 2,2 C 3,8 C 1,6 km/h (1 Bft) 100,00 %
23.03.2016 01:31 3,8 C 89 % 1008,1 hPa 0,0 l/m 1,8 km/h (1 Bft) O-SO 121 0 min 0,000 mm 0,0 UV-I 0 W/m 2,2 C 3,8 C 3,2 km/h (1 Bft) 100,00 %
23.03.2016 01:32 3,8 C 89 % 1008,1 hPa 0,0 l/m 2,3 km/h (1 Bft) O-SO 121 0 min 0,000 mm 0,0 UV-I 0 W/m 2,2 C 3,8 C 3,2 km/h (1 Bft) 100,00 %
23.03.2016 01:33 3,8 C 89 % 1008,0 hPa 0,0 l/m 2,3 km/h (1 Bft) O-SO 121 0 min 0,000 mm 0,0 UV-I 0 W/m 2,2 C 3,8 C 3,2 km/h (1 Bft) 100,00 %
23.03.2016 01:34 3,9 C 89 % 1008,1 hPa 0,0 l/m 2,4 km/h (1 Bft) O-SO 121 0 min 0,000 mm 0,0 UV-I 0 W/m 2,3 C 3,9 C 3,2 km/h (1 Bft) 100,00 %
23.03.2016 01:35 3,9 C 89 % 1008,1 hPa 0,0 l/m 3,0 km/h (1 Bft) O-SO 121 0 min 0,000 mm 0,0 UV-I 0 W/m 2,3 C 3,9 C 3,2 km/h (1 Bft) 100,00 %
23.03.2016 01:36 3,9 C 89 % 1008,0 hPa 0,0 l/m 2,5 km/h (1 Bft) O-SO 121 0 min 0,000 mm 0,0 UV-I 0 W/m 2,3 C 3,9 C 3,2 km/h (1 Bft) 100,00 %
23.03.2016 01:37 3,9 C 89 % 1008,0 hPa 0,0 l/m 2,2 km/h (1 Bft) O-SO 121 0 min 0,000 mm 0,0 UV-I 0 W/m 2,3 C 3,9 C 3,2 km/h (1 Bft) 100,00 %
23.03.2016 01:38 3,9 C 88 % 1008,1 hPa 0,0 l/m 2,0 km/h (1 Bft) O-SO 121 0 min 0,000 mm 0,0 UV-I 0 W/m 2,1 C 3,9 C 3,2 km/h (1 Bft) 100,00 %
23.03.2016 01:39 3,9 C 88 % 1008,0 hPa 0,0 l/m 0,7 km/h (0 Bft) O-SO 121 0 min 0,000 mm 0,0 UV-I 0 W/m 2,1 C 3,9 C 1,6 km/h (1 Bft) 100,00 %
23.03.2016 01:40 3,9 C 88 % 1008,1 hPa 0,0 l/m 1,1 km/h (1 Bft) O-SO 121 0 min 0,000 mm 0,0 UV-I 0 W/m 2,1 C 3,9 C 1,6 km/h (1 Bft) 100,00 %
23.03.2016 01:41 3,9 C 88 % 1008,0 hPa 0,0 l/m 0,3 km/h (0 Bft) O-SO 121 0 min 0,000 mm 0,0 UV-I 0 W/m 2,1 C 3,9 C 1,6 km/h (1 Bft) 91,30 %
23.03.2016 01:42 3,9 C 89 % 1008,0 hPa 0,0 l/m 0,0 km/h (0 Bft) O-SO 121 0 min 0,000 mm 0,0 UV-I 0 W/m 2,3 C 3,9 C 0,0 km/h (0 Bft) 100,00 %
23.03.2016 01:43 3,8 C 89 % 1008,0 hPa 0,0 l/m 0,0 km/h (0 Bft) O-SO 121 0 min 0,000 mm 0,0 UV-I 0 W/m 2,2 C 3,8 C 0,0 km/h (0 Bft) 100,00 %
23.03.2016 01:44 3,8 C 89 % 1008,0 hPa 0,0 l/m 0,0 km/h (0 Bft) O-SO 121 0 min 0,000 mm 0,0 UV-I 0 W/m 2,2 C 3,8 C 0,0 km/h (0 Bft) 100,00 %
23.03.2016 01:45 3,8 C 88 % 1008,0 hPa 0,0 l/m 0,0 km/h (0 Bft) O-SO 121 0 min 0,000 mm 0,0 UV-I 0 W/m 2,0 C 3,8 C 0,0 km/h (0 Bft) 100,00 %
23.03.2016 01:46 3,8 C 88 % 1008,0 hPa 0,0 l/m 0,0 km/h (0 Bft) O-SO 121 0 min 0,000 mm 0,0 UV-I 0 W/m 2,0 C 3,8 C 0,0 km/h (0 Bft) 96,30 %
23.03.2016 01:47 3,8 C 89 % 1008,0 hPa 0,0 l/m 0,0 km/h (0 Bft) O-SO 121 0 min 0,000 mm 0,0 UV-I 0 W/m 2,2 C 3,8 C 0,0 km/h (0 Bft) 100,00 %
23.03.2016 01:48 3,8 C 88 % 1008,0 hPa 0,0 l/m 0,0 km/h (0 Bft) O-SO 121 0 min 0,000 mm 0,0 UV-I 0 W/m 2,0 C 3,8 C 0,0 km/h (0 Bft) 100,00 %
23.03.2016 01:49 3,8 C 88 % 1008,0 hPa 0,0 l/m 0,3 km/h (0 Bft) O-SO 121 0 min 0,000 mm 0,0 UV-I 0 W/m 2,0 C 3,8 C 1,6 km/h (1 Bft) 100,00 %
23.03.2016 01:50 3,8 C 89 % 1008,0 hPa 0,0 l/m 1,3 km/h (1 Bft) O-SO 121 0 min 0,000 mm 0,0 UV-I 0 W/m 2,2 C 3,8 C 1,6 km/h (1 Bft) 100,00 %
23.03.2016 01:51 3,8 C 89 % 1007,9 hPa 0,0 l/m 1,1 km/h (1 Bft) O-SO 121 0 min 0,000 mm 0,0 UV-I 0 W/m 2,2 C 3,8 C 1,6 km/h (1 Bft) 100,00 %
23.03.2016 01:52 3,8 C 89 % 1007,9 hPa 0,0 l/m 1,6 km/h (1 Bft) O-SO 121 0 min 0,000 mm 0,0 UV-I 0 W/m 2,2 C 3,8 C 1,6 km/h (1 Bft) 100,00 %
23.03.2016 01:53 3,8 C 88 % 1008,0 hPa 0,0 l/m 1,7 km/h (1 Bft) O-SO 121 0 min 0,000 mm 0,0 UV-I 0 W/m 2,0 C 3,8 C 3,2 km/h (1 Bft) 100,00 %
23.03.2016 01:54 3,8 C 89 % 1007,9 hPa 0,0 l/m 2,2 km/h (1 Bft) O-SO 121 0 min 0,000 mm 0,0 UV-I 0 W/m 2,2 C 3,8 C 3,2 km/h (1 Bft) 100,00 %
23.03.2016 01:55 3,8 C 89 % 1007,9 hPa 0,0 l/m 1,9 km/h (1 Bft) O-SO 121 0 min 0,000 mm 0,0 UV-I 0 W/m 2,2 C 3,8 C 3,2 km/h (1 Bft) 100,00 %
23.03.2016 01:56 3,8 C 89 % 1007,9 hPa 0,0 l/m 2,0 km/h (1 Bft) O-SO 121 0 min 0,000 mm 0,0 UV-I 0 W/m 2,2 C 3,8 C 3,2 km/h (1 Bft) 100,00 %
23.03.2016 01:57 3,9 C 89 % 1007,8 hPa 0,0 l/m 2,5 km/h (1 Bft) O-SO 121 0 min 0,000 mm 0,0 UV-I 0 W/m 2,3 C 3,9 C 3,2 km/h (1 Bft) 100,00 %
23.03.2016 01:58 3,9 C 89 % 1007,8 hPa 0,0 l/m 2,1 km/h (1 Bft) O-SO 121 0 min 0,000 mm 0,0 UV-I 0 W/m 2,3 C 3,9 C 3,2 km/h (1 Bft) 100,00 %
23.03.2016 01:59 3,9 C 89 % 1007,8 hPa 0,0 l/m 1,9 km/h (1 Bft) O-SO 121 0 min 0,000 mm 0,0 UV-I 0 W/m 2,3 C 3,9 C 3,2 km/h (1 Bft) 100,00 %
23.03.2016 02:00 3,9 C 89 % 1007,8 hPa 0,0 l/m 1,0 km/h (0 Bft) O-SO 121 0 min 0,000 mm 0,0 UV-I 0 W/m 2,3 C 3,9 C 1,6 km/h (1 Bft) 100,00 %
23.03.2016 02:01 3,9 C 88 % 1007,8 hPa 0,0 l/m 1,2 km/h (1 Bft) O-SO 121 0 min 0,000 mm 0,0 UV-I 0 W/m 2,1 C 3,9 C 1,6 km/h (1 Bft) 100,00 %
23.03.2016 02:02 3,9 C 89 % 1007,7 hPa 0,0 l/m 0,6 km/h (0 Bft) O-SO 121 0 min 0,000 mm 0,0 UV-I 0 W/m 2,3 C 3,9 C 1,6 km/h (1 Bft) 100,00 %
23.03.2016 02:03 3,9 C 89 % 1007,7 hPa 0,0 l/m 0,2 km/h (0 Bft) O-SO 121 0 min 0,000 mm 0,0 UV-I 0 W/m 2,3 C 3,9 C 1,6 km/h (1 Bft) 96,30 %
23.03.2016 02:04 3,9 C 89 % 1007,7 hPa 0,0 l/m 1,1 km/h (1 Bft) O-SO 121 0 min 0,000 mm 0,0 UV-I 0 W/m 2,3 C 3,9 C 1,6 km/h (1 Bft) 100,00 %
23.03.2016 02:05 3,8 C 89 % 1007,7 hPa 0,0 l/m 0,4 km/h (0 Bft) O-SO 121 0 min 0,000 mm 0,0 UV-I 0 W/m 2,2 C 3,8 C 1,6 km/h (1 Bft) 100,00 %
23.03.2016 02:06 3,8 C 89 % 1007,6 hPa 0,0 l/m 0,0 km/h (0 Bft) O-SO 121 0 min 0,000 mm 0,0 UV-I 0 W/m 2,2 C 3,8 C 0,0 km/h (0 Bft) 92,31 %
23.03.2016 02:07 3,8 C 89 % 1007,6 hPa 0,0 l/m 0,2 km/h (0 Bft) O-SO 121 0 min 0,000 mm 0,0 UV-I 0 W/m 2,2 C 3,8 C 1,6 km/h (1 Bft) 100,00 %
23.03.2016 02:08 3,8 C 89 % 1007,6 hPa 0,0 l/m 0,1 km/h (0 Bft) O-SO 121 0 min 0,000 mm 0,0 UV-I 0 W/m 2,2 C 3,8 C 1,6 km/h (1 Bft) 96,55 %
23.03.2016 02:09 3,8 C 89 % 1007,6 hPa 0,0 l/m 0,8 km/h (0 Bft) O-SO 121 0 min 0,000 mm 0,0 UV-I 0 W/m 2,2 C 3,8 C 1,6 km/h (1 Bft) 96,30 %
23.03.2016 02:10 3,8 C 89 % 1007,6 hPa 0,0 l/m 0,0 km/h (0 Bft) O-SO 121 0 min 0,000 mm 0,0 UV-I 0 W/m 2,2 C 3,8 C 0,0 km/h (0 Bft) 96,55 %
23.03.2016 02:11 3,7 C 90 % 1007,6 hPa 0,0 l/m 0,1 km/h (0 Bft) O-SO 121 0 min 0,000 mm 0,0 UV-I 0 W/m 2,2 C 3,7 C 1,6 km/h (1 Bft) 91,67 %
23.03.2016 02:12 3,7 C 90 % 1007,5 hPa 0,0 l/m 0,9 km/h (0 Bft) O-SO 121 0 min 0,000 mm 0,0 UV-I 0 W/m 2,2 C 3,7 C 1,6 km/h (1 Bft) 95,65 %
23.03.2016 02:13 3,7 C 90 % 1007,5 hPa 0,0 l/m 1,0 km/h (0 Bft) O-SO 121 0 min 0,000 mm 0,0 UV-I 0 W/m 2,2 C 3,7 C 1,6 km/h (1 Bft) 100,00 %
23.03.2016 02:14 3,8 C 90 % 1007,5 hPa 0,0 l/m 0,9 km/h (0 Bft) O-SO 121 0 min 0,000 mm 0,0 UV-I 0 W/m 2,3 C 3,8 C 1,6 km/h (1 Bft) 98,39 %
23.03.2016 02:15 3,8 C 90 % 1007,5 hPa 0,0 l/m 1,1 km/h (1 Bft) O-SO 121 0 min 0,000 mm 0,0 UV-I 0 W/m 2,3 C 3,8 C 1,6 km/h (1 Bft) 97,56 %
23.03.2016 02:16 3,8 C 90 % 1007,5 hPa 0,0 l/m 0,9 km/h (0 Bft) O-SO 121 0 min 0,000 mm 0,0 UV-I 0 W/m 2,3 C 3,8 C 1,6 km/h (1 Bft) 95,83 %
23.03.2016 02:17 3,8 C 89 % 1007,5 hPa 0,0 l/m 1,1 km/h (1 Bft) O-SO 121 0 min 0,000 mm 0,0 UV-I 0 W/m 2,2 C 3,8 C 1,6 km/h (1 Bft) 100,00 %
23.03.2016 02:18 3,8 C 89 % 1007,5 hPa 0,0 l/m 1,4 km/h (1 Bft) O-SO 121 0 min 0,000 mm 0,0 UV-I 0 W/m 2,2 C 3,8 C 1,6 km/h (1 Bft) 95,83 %
23.03.2016 02:19 3,8 C 89 % 1007,5 hPa 0,0 l/m 1,2 km/h (1 Bft) O-SO 121 0 min 0,000 mm 0,0 UV-I 0 W/m 2,2 C 3,8 C 1,6 km/h (1 Bft) 100,00 %
23.03.2016 02:20 3,8 C 89 % 1007,5 hPa 0,0 l/m 1,1 km/h (1 Bft) O-SO 121 0 min 0,000 mm 0,0 UV-I 0 W/m 2,2 C 3,8 C 1,6 km/h (1 Bft) 96,30 %
23.03.2016 02:21 3,8 C 89 % 1007,5 hPa 0,0 l/m 0,5 km/h (0 Bft) O-SO 121 0 min 0,000 mm 0,0 UV-I 0 W/m 2,2 C 3,8 C 1,6 km/h (1 Bft) 100,00 %
23.03.2016 02:22 3,8 C 89 % 1007,5 hPa 0,0 l/m 1,0 km/h (0 Bft) O-SO 121 0 min 0,000 mm 0,0 UV-I 0 W/m 2,2 C 3,8 C 1,6 km/h (1 Bft) 96,30 %
23.03.2016 02:23 3,8 C 89 % 1007,4 hPa 0,0 l/m 0,3 km/h (0 Bft) O-SO 121 0 min 0,000 mm 0,0 UV-I 0 W/m 2,2 C 3,8 C 1,6 km/h (1 Bft) 96,15 %
23.03.2016 02:24 3,7 C 90 % 1007,4 hPa 0,0 l/m 0,3 km/h (0 Bft) O-SO 121 0 min 0,000 mm 0,0 UV-I 0 W/m 2,2 C 3,7 C 1,6 km/h (1 Bft) 100,00 %
23.03.2016 02:25 3,7 C 90 % 1007,4 hPa 0,0 l/m 0,7 km/h (0 Bft) O-SO 121 0 min 0,000 mm 0,0 UV-I 0 W/m 2,2 C 3,7 C 1,6 km/h (1 Bft) 92,86 %
23.03.2016 02:26 3,7 C 90 % 1007,3 hPa 0,0 l/m 0,9 km/h (0 Bft) O-SO 121 0 min 0,000 mm 0,0 UV-I 0 W/m 2,2 C 3,7 C 1,6 km/h (1 Bft) 100,00 %
23.03.2016 02:27 3,7 C 90 % 1007,3 hPa 0,0 l/m 1,3 km/h (1 Bft) O-SO 121 0 min 0,000 mm 0,0 UV-I 0 W/m 2,2 C 3,7 C 1,6 km/h (1 Bft) 95,65 %
23.03.2016 02:28 3,7 C 90 % 1007,3 hPa 0,0 l/m 0,5 km/h (0 Bft) O-SO 121 0 min 0,000 mm 0,0 UV-I 0 W/m 2,2 C 3,7 C 1,6 km/h (1 Bft) 100,00 %
23.03.2016 02:29 3,7 C 90 % 1007,3 hPa 0,0 l/m 0,0 km/h (0 Bft) O-SO 121 0 min 0,000 mm 0,0 UV-I 0 W/m 2,2 C 3,7 C 0,0 km/h (0 Bft) 95,65 %
23.03.2016 02:30 3,7 C 90 % 1007,3 hPa 0,0 l/m 0,0 km/h (0 Bft) O-SO 121 0 min 0,000 mm 0,0 UV-I 0 W/m 2,2 C 3,7 C 0,0 km/h (0 Bft) 95,83 %
23.03.2016 02:31 3,7 C 90 % 1007,3 hPa 0,0 l/m 0,0 km/h (0 Bft) O-SO 121 0 min 0,000 mm 0,0 UV-I 0 W/m 2,2 C 3,7 C 0,0 km/h (0 Bft) 100,00 %
23.03.2016 02:32 3,7 C 90 % 1007,3 hPa 0,0 l/m 0,0 km/h (0 Bft) O-SO 121 0 min 0,000 mm 0,0 UV-I 0 W/m 2,2 C 3,7 C 0,0 km/h (0 Bft) 95,83 %
23.03.2016 02:33 3,7 C 90 % 1007,2 hPa 0,0 l/m 0,0 km/h (0 Bft) O-SO 121 0 min 0,000 mm 0,0 UV-I 0 W/m 2,2 C 3,7 C 0,0 km/h (0 Bft) 100,00 %
23.03.2016 02:34 3,7 C 90 % 1007,3 hPa 0,0 l/m 0,0 km/h (0 Bft) O-SO 121 0 min 0,000 mm 0,0 UV-I 0 W/m 2,2 C 3,7 C 0,0 km/h (0 Bft) 91,67 %
23.03.2016 02:35 3,7 C 90 % 1007,2 hPa 0,0 l/m 0,0 km/h (0 Bft) O-SO 121 0 min 0,000 mm 0,0 UV-I 0 W/m 2,2 C 3,7 C 0,0 km/h (0 Bft) 100,00 %
23.03.2016 02:36 3,7 C 90 % 1007,2 hPa 0,0 l/m 0,0 km/h (0 Bft) O-SO 121 0 min 0,000 mm 0,0 UV-I 0 W/m 2,2 C 3,7 C 0,0 km/h (0 Bft) 96,15 %
23.03.2016 02:37 3,7 C 90 % 1007,2 hPa 0,0 l/m 0,0 km/h (0 Bft) O-SO 121 0 min 0,000 mm 0,0 UV-I 0 W/m 2,2 C 3,7 C 0,0 km/h (0 Bft) 100,00 %
23.03.2016 02:38 3,7 C 90 % 1007,2 hPa 0,0 l/m 0,0 km/h (0 Bft) O-SO 121 0 min 0,000 mm 0,0 UV-I 0 W/m 2,2 C 3,7 C 0,0 km/h (0 Bft) 100,00 %
23.03.2016 02:39 3,7 C 91 % 1007,1 hPa 0,0 l/m 0,0 km/h (0 Bft) O-SO 121 0 min 0,000 mm 0,0 UV-I 0 W/m 2,4 C 3,7 C 0,0 km/h (0 Bft) 100,00 %
23.03.2016 02:40 3,7 C 91 % 1007,1 hPa 0,0 l/m 0,0 km/h (0 Bft) O-SO 121 0 min 0,000 mm 0,0 UV-I 0 W/m 2,4 C 3,7 C 0,0 km/h (0 Bft) 95,83 %
23.03.2016 02:41 3,7 C 91 % 1007,1 hPa 0,0 l/m 0,0 km/h (0 Bft) O-SO 121 0 min 0,000 mm 0,0 UV-I 0 W/m 2,4 C 3,7 C 0,0 km/h (0 Bft) 100,00 %
23.03.2016 02:42 3,7 C 90 % 1007,1 hPa 0,0 l/m 0,0 km/h (0 Bft) O-SO 121 0 min 0,000 mm 0,0 UV-I 0 W/m 2,2 C 3,7 C 0,0 km/h (0 Bft) 100,00 %
23.03.2016 02:43 3,7 C 90 % 1007,1 hPa 0,0 l/m 0,0 km/h (0 Bft) O-SO 121 0 min 0,000 mm 0,0 UV-I 0 W/m 2,2 C 3,7 C 0,0 km/h (0 Bft) 93,33 %
23.03.2016 02:44 3,7 C 90 % 1007,1 hPa 0,0 l/m 0,3 km/h (0 Bft) O-SO 121 0 min 0,000 mm 0,0 UV-I 0 W/m 2,2 C 3,7 C 1,6 km/h (1 Bft) 100,00 %
23.03.2016 02:45 3,7 C 90 % 1007,0 hPa 0,0 l/m 0,6 km/h (0 Bft) O-SO 121 0 min 0,000 mm 0,0 UV-I 0 W/m 2,2 C 3,7 C 1,6 km/h (1 Bft) 100,00 %
23.03.2016 02:46 3,7 C 90 % 1007,0 hPa 0,0 l/m 0,2 km/h (0 Bft) O-SO 121 0 min 0,000 mm 0,0 UV-I 0 W/m 2,2 C 3,7 C 1,6 km/h (1 Bft) 100,00 %
23.03.2016 02:47 3,7 C 90 % 1007,0 hPa 0,0 l/m 0,0 km/h (0 Bft) O-SO 121 0 min 0,000 mm 0,0 UV-I 0 W/m 2,2 C 3,7 C 0,0 km/h (0 Bft) 94,87 %
23.03.2016 02:48 3,7 C 90 % 1007,1 hPa 0,0 l/m 0,0 km/h (0 Bft) O-SO 121 0 min 0,000 mm 0,0 UV-I 0 W/m 2,2 C 3,7 C 0,0 km/h (0 Bft) 100,00 %
23.03.2016 02:49 3,7 C 90 % 1007,0 hPa 0,0 l/m 0,0 km/h (0 Bft) O-SO 121 0 min 0,000 mm 0,0 UV-I 0 W/m 2,2 C 3,7 C 0,0 km/h (0 Bft) 100,00 %
23.03.2016 02:50 3,7 C 90 % 1007,0 hPa 0,0 l/m 0,1 km/h (0 Bft) O-SO 121 0 min 0,000 mm 0,0 UV-I 0 W/m 2,2 C 3,7 C 1,6 km/h (1 Bft) 100,00 %
23.03.2016 02:51 3,7 C 90 % 1007,0 hPa 0,0 l/m 0,3 km/h (0 Bft) O-SO 121 0 min 0,000 mm 0,0 UV-I 0 W/m 2,2 C 3,7 C 1,6 km/h (1 Bft) 100,00 %
23.03.2016 02:52 3,8 C 90 % 1007,1 hPa 0,0 l/m 0,0 km/h (0 Bft) O-SO 121 0 min 0,000 mm 0,0 UV-I 0 W/m 2,3 C 3,8 C 0,0 km/h (0 Bft) 100,00 %
23.03.2016 02:53 3,8 C 90 % 1007,0 hPa 0,0 l/m 0,4 km/h (0 Bft) O-SO 121 0 min 0,000 mm 0,0 UV-I 0 W/m 2,3 C 3,8 C 1,6 km/h (1 Bft) 96,30 %
23.03.2016 02:54 3,8 C 89 % 1007,0 hPa 0,0 l/m 0,0 km/h (0 Bft) O-SO 121 0 min 0,000 mm 0,0 UV-I 0 W/m 2,2 C 3,8 C 0,0 km/h (0 Bft) 100,00 %
23.03.2016 02:55 3,8 C 89 % 1007,1 hPa 0,0 l/m 0,0 km/h (0 Bft) O-SO 121 0 min 0,000 mm 0,0 UV-I 0 W/m 2,2 C 3,8 C 0,0 km/h (0 Bft) 100,00 %
23.03.2016 02:56 3,8 C 89 % 1007,1 hPa 0,0 l/m 0,0 km/h (0 Bft) O-SO 121 0 min 0,000 mm 0,0 UV-I 0 W/m 2,2 C 3,8 C 0,0 km/h (0 Bft) 100,00 %
23.03.2016 02:57 3,8 C 89 % 1007,0 hPa 0,0 l/m 0,0 km/h (0 Bft) O-SO 121 0 min 0,000 mm 0,0 UV-I 0 W/m 2,2 C 3,8 C 0,0 km/h (0 Bft) 100,00 %
23.03.2016 02:58 3,8 C 89 % 1007,1 hPa 0,0 l/m 0,0 km/h (0 Bft) O-SO 121 0 min 0,000 mm 0,0 UV-I 0 W/m 2,2 C 3,8 C 0,0 km/h (0 Bft) 100,00 %
23.03.2016 02:59 3,8 C 89 % 1007,1 hPa 0,0 l/m 0,2 km/h (0 Bft) O-SO 121 0 min 0,000 mm 0,0 UV-I 0 W/m 2,2 C 3,8 C 1,6 km/h (1 Bft) 96,55 %
23.03.2016 03:00 3,8 C 89 % 1007,1 hPa 0,0 l/m 0,5 km/h (0 Bft) O-SO 121 0 min 0,000 mm 0,0 UV-I 0 W/m 2,2 C 3,8 C 1,6 km/h (1 Bft) 100,00 %
23.03.2016 03:01 3,8 C 89 % 1007,1 hPa 0,0 l/m 0,1 km/h (0 Bft) O-SO 121 0 min 0,000 mm 0,0 UV-I 0 W/m 2,2 C 3,8 C 1,6 km/h (1 Bft) 100,00 %
23.03.2016 03:02 3,8 C 89 % 1007,0 hPa 0,0 l/m 0,1 km/h (0 Bft) O-SO 121 0 min 0,000 mm 0,0 UV-I 0 W/m 2,2 C 3,8 C 1,6 km/h (1 Bft) 100,00 %
23.03.2016 03:03 3,8 C 89 % 1007,0 hPa 0,0 l/m 0,1 km/h (0 Bft) O-SO 121 0 min 0,000 mm 0,0 UV-I 0 W/m 2,2 C 3,8 C 1,6 km/h (1 Bft) 100,00 %
23.03.2016 03:04 3,8 C 89 % 1007,0 hPa 0,0 l/m 0,7 km/h (0 Bft) O-SO 121 0 min 0,000 mm 0,0 UV-I 0 W/m 2,2 C 3,8 C 1,6 km/h (1 Bft) 100,00 %
23.03.2016 03:05 3,8 C 89 % 1007,0 hPa 0,0 l/m 0,8 km/h (0 Bft) O-SO 121 0 min 0,000 mm 0,0 UV-I 0 W/m 2,2 C 3,8 C 1,6 km/h (1 Bft) 100,00 %
23.03.2016 03:06 3,8 C 89 % 1007,0 hPa 0,0 l/m 0,1 km/h (0 Bft) O-SO 121 0 min 0,000 mm 0,0 UV-I 0 W/m 2,2 C 3,8 C 1,6 km/h (1 Bft) 100,00 %
23.03.2016 03:07 3,8 C 89 % 1007,0 hPa 0,0 l/m 0,0 km/h (0 Bft) O-SO 121 0 min 0,000 mm 0,0 UV-I 0 W/m 2,2 C 3,8 C 0,0 km/h (0 Bft) 100,00 %
23.03.2016 03:08 3,9 C 89 % 1007,0 hPa 0,0 l/m 0,0 km/h (0 Bft) O-SO 121 0 min 0,000 mm 0,0 UV-I 0 W/m 2,3 C 3,9 C 0,0 km/h (0 Bft) 100,00 %
23.03.2016 03:09 3,9 C 88 % 1007,0 hPa 0,0 l/m 0,0 km/h (0 Bft) O-SO 121 0 min 0,000 mm 0,0 UV-I 0 W/m 2,1 C 3,9 C 0,0 km/h (0 Bft) 100,00 %
23.03.2016 03:10 3,8 C 88 % 1006,9 hPa 0,0 l/m 0,0 km/h (0 Bft) O-SO 121 0 min 0,000 mm 0,0 UV-I 0 W/m 2,0 C 3,8 C 0,0 km/h (0 Bft) 100,00 %
23.03.2016 03:11 3,9 C 88 % 1007,0 hPa 0,0 l/m 0,0 km/h (0 Bft) O-SO 121 0 min 0,000 mm 0,0 UV-I 0 W/m 2,1 C 3,9 C 0,0 km/h (0 Bft) 100,00 %
23.03.2016 03:12 3,8 C 88 % 1007,0 hPa 0,0 l/m 0,0 km/h (0 Bft) O-SO 121 0 min 0,000 mm 0,0 UV-I 0 W/m 2,0 C 3,8 C 0,0 km/h (0 Bft) 100,00 %
23.03.2016 03:13 3,8 C 89 % 1007,0 hPa 0,0 l/m 0,1 km/h (0 Bft) O-SO 121 0 min 0,000 mm 0,0 UV-I 0 W/m 2,2 C 3,8 C 1,6 km/h (1 Bft) 95,65 %
23.03.2016 03:14 3,8 C 89 % 1006,9 hPa 0,0 l/m 0,6 km/h (0 Bft) O-SO 121 0 min 0,000 mm 0,0 UV-I 0 W/m 2,2 C 3,8 C 1,6 km/h (1 Bft) 96,30 %
23.03.2016 03:15 3,8 C 90 % 1006,9 hPa 0,0 l/m 0,8 km/h (0 Bft) O-SO 121 0 min 0,000 mm 0,0 UV-I 0 W/m 2,3 C 3,8 C 1,6 km/h (1 Bft) 100,00 %
23.03.2016 03:16 3,7 C 90 % 1006,9 hPa 0,0 l/m 0,1 km/h (0 Bft) O-SO 121 0 min 0,000 mm 0,0 UV-I 0 W/m 2,2 C 3,7 C 1,6 km/h (1 Bft) 100,00 %
23.03.2016 03:17 3,7 C 90 % 1006,9 hPa 0,0 l/m 0,2 km/h (0 Bft) O-SO 121 0 min 0,000 mm 0,0 UV-I 0 W/m 2,2 C 3,7 C 1,6 km/h (1 Bft) 100,00 %
23.03.2016 03:18 3,7 C 90 % 1006,9 hPa 0,0 l/m 0,0 km/h (0 Bft) O-SO 121 0 min 0,000 mm 0,0 UV-I 0 W/m 2,2 C 3,7 C 0,0 km/h (0 Bft) 100,00 %
23.03.2016 03:19 3,6 C 90 % 1006,9 hPa 0,0 l/m 0,0 km/h (0 Bft) O-SO 121 0 min 0,000 mm 0,0 UV-I 0 W/m 2,1 C 3,6 C 0,0 km/h (0 Bft) 95,65 %
23.03.2016 03:20 3,6 C 90 % 1006,9 hPa 0,0 l/m 0,0 km/h (0 Bft) O-SO 121 0 min 0,000 mm 0,0 UV-I 0 W/m 2,1 C 3,6 C 0,0 km/h (0 Bft) 100,00 %
23.03.2016 03:21 3,6 C 90 % 1006,9 hPa 0,0 l/m 0,0 km/h (0 Bft) O-SO 121 0 min 0,000 mm 0,0 UV-I 0 W/m 2,1 C 3,6 C 0,0 km/h (0 Bft) 100,00 %
23.03.2016 03:22 3,6 C 90 % 1006,8 hPa 0,0 l/m 0,0 km/h (0 Bft) O-SO 121 0 min 0,000 mm 0,0 UV-I 0 W/m 2,1 C 3,6 C 0,0 km/h (0 Bft) 100,00 %
23.03.2016 03:23 3,6 C 90 % 1006,9 hPa 0,0 l/m 0,0 km/h (0 Bft) O-SO 121 0 min 0,000 mm 0,0 UV-I 0 W/m 2,1 C 3,6 C 0,0 km/h (0 Bft) 100,00 %
23.03.2016 03:24 3,6 C 90 % 1006,9 hPa 0,0 l/m 0,0 km/h (0 Bft) O-SO 121 0 min 0,000 mm 0,0 UV-I 0 W/m 2,1 C 3,6 C 0,0 km/h (0 Bft) 100,00 %
23.03.2016 03:25 3,6 C 90 % 1006,9 hPa 0,0 l/m 0,3 km/h (0 Bft) O-SO 121 0 min 0,000 mm 0,0 UV-I 0 W/m 2,1 C 3,6 C 1,6 km/h (1 Bft) 100,00 %
23.03.2016 03:26 3,6 C 90 % 1006,9 hPa 0,0 l/m 1,3 km/h (1 Bft) O-SO 121 0 min 0,000 mm 0,0 UV-I 0 W/m 2,1 C 3,6 C 1,6 km/h (1 Bft) 100,00 %
23.03.2016 03:27 3,6 C 90 % 1006,9 hPa 0,0 l/m 0,5 km/h (0 Bft) O-SO 121 0 min 0,000 mm 0,0 UV-I 0 W/m 2,1 C 3,6 C 1,6 km/h (1 Bft) 100,00 %
23.03.2016 03:28 3,6 C 90 % 1006,9 hPa 0,0 l/m 0,0 km/h (0 Bft) O-SO 121 0 min 0,000 mm 0,0 UV-I 0 W/m 2,1 C 3,6 C 0,0 km/h (0 Bft) 100,00 %
23.03.2016 03:29 3,6 C 90 % 1006,9 hPa 0,0 l/m 0,0 km/h (0 Bft) O-SO 121 0 min 0,000 mm 0,0 UV-I 0 W/m 2,1 C 3,6 C 0,0 km/h (0 Bft) 100,00 %
23.03.2016 03:30 3,6 C 90 % 1006,9 hPa 0,0 l/m 0,0 km/h (0 Bft) O-SO 121 0 min 0,000 mm 0,0 UV-I 0 W/m 2,1 C 3,6 C 0,0 km/h (0 Bft) 100,00 %
23.03.2016 03:31 3,6 C 90 % 1006,9 hPa 0,0 l/m 0,0 km/h (0 Bft) O-SO 121 0 min 0,000 mm 0,0 UV-I 0 W/m 2,1 C 3,6 C 0,0 km/h (0 Bft) 100,00 %
23.03.2016 03:32 3,6 C 91 % 1006,9 hPa 0,0 l/m 0,0 km/h (0 Bft) O-SO 121 0 min 0,000 mm 0,0 UV-I 0 W/m 2,3 C 3,6 C 0,0 km/h (0 Bft) 95,65 %
23.03.2016 03:33 3,5 C 91 % 1006,9 hPa 0,0 l/m 0,0 km/h (0 Bft) O-SO 121 0 min 0,000 mm 0,0 UV-I 0 W/m 2,2 C 3,5 C 0,0 km/h (0 Bft) 100,00 %
23.03.2016 03:34 3,5 C 91 % 1006,9 hPa 0,0 l/m 0,1 km/h (0 Bft) O-SO 121 0 min 0,000 mm 0,0 UV-I 0 W/m 2,2 C 3,5 C 1,6 km/h (1 Bft) 100,00 %
23.03.2016 03:35 3,4 C 91 % 1006,9 hPa 0,0 l/m 0,3 km/h (0 Bft) O-SO 121 0 min 0,000 mm 0,0 UV-I 0 W/m 2,1 C 3,4 C 1,6 km/h (1 Bft) 100,00 %
23.03.2016 03:36 3,4 C 91 % 1006,9 hPa 0,0 l/m 0,0 km/h (0 Bft) O-SO 121 0 min 0,000 mm 0,0 UV-I 0 W/m 2,1 C 3,4 C 0,0 km/h (0 Bft) 100,00 %
23.03.2016 03:37 3,4 C 91 % 1006,9 hPa 0,0 l/m 0,0 km/h (0 Bft) O-SO 121 0 min 0,000 mm 0,0 UV-I 0 W/m 2,1 C 3,4 C 0,0 km/h (0 Bft) 100,00 %
23.03.2016 03:38 3,3 C 91 % 1006,9 hPa 0,0 l/m 0,0 km/h (0 Bft) O-SO 121 0 min 0,000 mm 0,0 UV-I 0 W/m 2,0 C 3,3 C 0,0 km/h (0 Bft) 100,00 %
23.03.2016 03:39 3,3 C 91 % 1006,9 hPa 0,0 l/m 0,0 km/h (0 Bft) O-SO 121 0 min 0,000 mm 0,0 UV-I 0 W/m 2,0 C 3,3 C 0,0 km/h (0 Bft) 100,00 %
23.03.2016 03:40 3,3 C 91 % 1006,9 hPa 0,0 l/m 0,1 km/h (0 Bft) O-SO 121 0 min 0,000 mm 0,0 UV-I 0 W/m 2,0 C 3,3 C 1,6 km/h (1 Bft) 100,00 %
23.03.2016 03:41 3,3 C 91 % 1006,8 hPa 0,0 l/m 0,4 km/h (0 Bft) O-SO 121 0 min 0,000 mm 0,0 UV-I 0 W/m 2,0 C 3,3 C 1,6 km/h (1 Bft) 100,00 %
23.03.2016 03:42 3,3 C 91 % 1006,8 hPa 0,0 l/m 0,1 km/h (0 Bft) O-SO 121 0 min 0,000 mm 0,0 UV-I 0 W/m 2,0 C 3,3 C 1,6 km/h (1 Bft) 100,00 %
23.03.2016 03:43 3,2 C 91 % 1006,8 hPa 0,0 l/m 0,0 km/h (0 Bft) O-SO 121 0 min 0,000 mm 0,0 UV-I 0 W/m 1,9 C 3,2 C 0,0 km/h (0 Bft) 100,00 %
23.03.2016 03:44 3,2 C 91 % 1006,8 hPa 0,0 l/m 0,0 km/h (0 Bft) O-SO 121 0 min 0,000 mm 0,0 UV-I 0 W/m 1,9 C 3,2 C 0,0 km/h (0 Bft) 100,00 %
23.03.2016 03:45 3,2 C 91 % 1006,8 hPa 0,0 l/m 0,0 km/h (0 Bft) O-SO 121 0 min 0,000 mm 0,0 UV-I 0 W/m 1,9 C 3,2 C 0,0 km/h (0 Bft) 100,00 %
23.03.2016 03:46 3,2 C 91 % 1006,8 hPa 0,0 l/m 0,0 km/h (0 Bft) O-SO 121 0 min 0,000 mm 0,0 UV-I 0 W/m 1,9 C 3,2 C 0,0 km/h (0 Bft) 95,83 %
23.03.2016 03:47 3,3 C 91 % 1006,7 hPa 0,0 l/m 0,0 km/h (0 Bft) O-SO 121 0 min 0,000 mm 0,0 UV-I 0 W/m 2,0 C 3,3 C 0,0 km/h (0 Bft) 100,00 %
23.03.2016 03:48 3,3 C 91 % 1006,8 hPa 0,0 l/m 0,0 km/h (0 Bft) O-SO 121 0 min 0,000 mm 0,0 UV-I 0 W/m 2,0 C 3,3 C 0,0 km/h (0 Bft) 100,00 %
23.03.2016 03:49 3,3 C 91 % 1006,8 hPa 0,0 l/m 0,0 km/h (0 Bft) O-SO 121 0 min 0,000 mm 0,0 UV-I 0 W/m 2,0 C 3,3 C 0,0 km/h (0 Bft) 100,00 %
23.03.2016 03:50 3,3 C 91 % 1006,7 hPa 0,0 l/m 0,0 km/h (0 Bft) O-SO 121 0 min 0,000 mm 0,0 UV-I 0 W/m 2,0 C 3,3 C 0,0 km/h (0 Bft) 100,00 %
23.03.2016 03:51 3,3 C 92 % 1006,7 hPa 0,0 l/m 0,0 km/h (0 Bft) O-SO 121 0 min 0,000 mm 0,0 UV-I 0 W/m 2,1 C 3,3 C 0,0 km/h (0 Bft) 100,00 %
23.03.2016 03:52 3,3 C 91 % 1006,7 hPa 0,0 l/m 0,1 km/h (0 Bft) O-SO 121 0 min 0,000 mm 0,0 UV-I 0 W/m 2,0 C 3,3 C 1,6 km/h (1 Bft) 100,00 %
23.03.2016 03:53 3,3 C 91 % 1006,7 hPa 0,0 l/m 0,7 km/h (0 Bft) O-SO 121 0 min 0,000 mm 0,0 UV-I 0 W/m 2,0 C 3,3 C 1,6 km/h (1 Bft) 100,00 %
23.03.2016 03:54 3,2 C 91 % 1006,7 hPa 0,0 l/m 1,8 km/h (1 Bft) O-SO 121 0 min 0,000 mm 0,0 UV-I 0 W/m 1,9 C 3,2 C 3,2 km/h (1 Bft) 100,00 %
23.03.2016 03:55 3,2 C 91 % 1006,7 hPa 0,0 l/m 1,9 km/h (1 Bft) O-SO 121 0 min 0,000 mm 0,0 UV-I 0 W/m 1,9 C 3,2 C 3,2 km/h (1 Bft) 100,00 %
23.03.2016 03:56 3,1 C 91 % 1006,7 hPa 0,0 l/m 2,1 km/h (1 Bft) O-SO 121 0 min 0,000 mm 0,0 UV-I 0 W/m 1,8 C 3,1 C 3,2 km/h (1 Bft) 100,00 %
23.03.2016 03:57 3,1 C 92 % 1006,7 hPa 0,0 l/m 1,5 km/h (1 Bft) O-SO 121 0 min 0,000 mm 0,0 UV-I 0 W/m 1,9 C 3,1 C 1,6 km/h (1 Bft) 100,00 %
23.03.2016 03:58 3,1 C 92 % 1006,7 hPa 0,0 l/m 0,3 km/h (0 Bft) O-SO 121 0 min 0,000 mm 0,0 UV-I 0 W/m 1,9 C 3,1 C 1,6 km/h (1 Bft) 100,00 %
23.03.2016 03:59 3,1 C 92 % 1006,7 hPa 0,0 l/m 0,0 km/h (0 Bft) O-SO 121 0 min 0,000 mm 0,0 UV-I 0 W/m 1,9 C 3,1 C 0,0 km/h (0 Bft) 95,65 %
23.03.2016 04:00 3,1 C 92 % 1006,7 hPa 0,0 l/m 0,0 km/h (0 Bft) O-SO 121 0 min 0,000 mm 0,0 UV-I 0 W/m 1,9 C 3,1 C 0,0 km/h (0 Bft) 100,00 %
23.03.2016 04:01 3,1 C 92 % 1006,7 hPa 0,0 l/m 0,0 km/h (0 Bft) O-SO 121 0 min 0,000 mm 0,0 UV-I 0 W/m 1,9 C 3,1 C 0,0 km/h (0 Bft) 100,00 %
23.03.2016 04:02 3,1 C 92 % 1006,6 hPa 0,0 l/m 0,0 km/h (0 Bft) O-SO 121 0 min 0,000 mm 0,0 UV-I 0 W/m 1,9 C 3,1 C 0,0 km/h (0 Bft) 100,00 %
23.03.2016 04:03 3,1 C 92 % 1006,7 hPa 0,0 l/m 0,0 km/h (0 Bft) O-SO 121 0 min 0,000 mm 0,0 UV-I 0 W/m 1,9 C 3,1 C 0,0 km/h (0 Bft) 100,00 %
23.03.2016 04:04 3,1 C 92 % 1006,7 hPa 0,0 l/m 0,7 km/h (0 Bft) O-SO 121 0 min 0,000 mm 0,0 UV-I 0 W/m 1,9 C 3,1 C 1,6 km/h (1 Bft) 100,00 %
23.03.2016 04:05 3,1 C 92 % 1006,7 hPa 0,0 l/m 1,0 km/h (0 Bft) O-SO 121 0 min 0,000 mm 0,0 UV-I 0 W/m 1,9 C 3,1 C 1,6 km/h (1 Bft) 100,00 %
23.03.2016 04:06 3,1 C 92 % 1006,7 hPa 0,0 l/m 0,1 km/h (0 Bft) O-SO 121 0 min 0,000 mm 0,0 UV-I 0 W/m 1,9 C 3,1 C 1,6 km/h (1 Bft) 100,00 %
23.03.2016 04:07 3,2 C 91 % 1006,7 hPa 0,0 l/m 0,0 km/h (0 Bft) O-SO 121 0 min 0,000 mm 0,0 UV-I 0 W/m 1,9 C 3,2 C 0,0 km/h (0 Bft) 100,00 %
23.03.2016 04:08 3,2 C 91 % 1006,7 hPa 0,0 l/m 0,0 km/h (0 Bft) O-SO 121 0 min 0,000 mm 0,0 UV-I 0 W/m 1,9 C 3,2 C 0,0 km/h (0 Bft) 96,55 %
23.03.2016 04:09 3,2 C 91 % 1006,7 hPa 0,0 l/m 0,0 km/h (0 Bft) O-SO 121 0 min 0,000 mm 0,0 UV-I 0 W/m 1,9 C 3,2 C 0,0 km/h (0 Bft) 95,83 %
23.03.2016 04:10 3,2 C 91 % 1006,7 hPa 0,0 l/m 0,0 km/h (0 Bft) O-SO 121 0 min 0,000 mm 0,0 UV-I 0 W/m 1,9 C 3,2 C 0,0 km/h (0 Bft) 100,00 %
23.03.2016 04:11 3,2 C 91 % 1006,7 hPa 0,0 l/m 0,0 km/h (0 Bft) O-SO 121 0 min 0,000 mm 0,0 UV-I 0 W/m 1,9 C 3,2 C 0,0 km/h (0 Bft) 95,83 %
23.03.2016 04:12 3,2 C 91 % 1006,7 hPa 0,0 l/m 0,0 km/h (0 Bft) O-SO 121 0 min 0,000 mm 0,0 UV-I 0 W/m 1,9 C 3,2 C 0,0 km/h (0 Bft) 100,00 %
23.03.2016 04:13 3,2 C 91 % 1006,7 hPa 0,0 l/m 0,0 km/h (0 Bft) O-SO 121 0 min 0,000 mm 0,0 UV-I 0 W/m 1,9 C 3,2 C 0,0 km/h (0 Bft) 96,15 %
23.03.2016 04:14 3,2 C 91 % 1006,7 hPa 0,0 l/m 0,0 km/h (0 Bft) O-SO 121 0 min 0,000 mm 0,0 UV-I 0 W/m 1,9 C 3,2 C 0,0 km/h (0 Bft) 100,00 %
23.03.2016 04:15 3,2 C 91 % 1006,7 hPa 0,0 l/m 0,0 km/h (0 Bft) O-SO 121 0 min 0,000 mm 0,0 UV-I 0 W/m 1,9 C 3,2 C 0,0 km/h (0 Bft) 96,15 %
23.03.2016 04:16 3,2 C 91 % 1006,7 hPa 0,0 l/m 0,0 km/h (0 Bft) O-SO 121 0 min 0,000 mm 0,0 UV-I 0 W/m 1,9 C 3,2 C 0,0 km/h (0 Bft) 95,83 %
23.03.2016 04:17 3,2 C 91 % 1006,7 hPa 0,0 l/m 0,0 km/h (0 Bft) O-SO 121 0 min 0,000 mm 0,0 UV-I 0 W/m 1,9 C 3,2 C 0,0 km/h (0 Bft) 100,00 %
23.03.2016 04:18 3,2 C 92 % 1006,6 hPa 0,0 l/m 0,0 km/h (0 Bft) O-SO 121 0 min 0,000 mm 0,0 UV-I 0 W/m 2,0 C 3,2 C 0,0 km/h (0 Bft) 96,30 %
23.03.2016 04:19 3,2 C 92 % 1006,6 hPa 0,0 l/m 0,1 km/h (0 Bft) O-SO 121 0 min 0,000 mm 0,0 UV-I 0 W/m 2,0 C 3,2 C 1,6 km/h (1 Bft) 95,65 %
23.03.2016 04:20 3,2 C 92 % 1006,6 hPa 0,0 l/m 0,0 km/h (0 Bft) O-SO 121 0 min 0,000 mm 0,0 UV-I 0 W/m 2,0 C 3,2 C 0,0 km/h (0 Bft) 96,30 %
23.03.2016 04:21 3,2 C 92 % 1006,6 hPa 0,0 l/m 0,0 km/h (0 Bft) O-SO 121 0 min 0,000 mm 0,0 UV-I 0 W/m 2,0 C 3,2 C 0,0 km/h (0 Bft) 98,02 %
23.03.2016 04:22 3,2 C 92 % 1006,6 hPa 0,0 l/m 0,0 km/h (0 Bft) O-SO 121 0 min 0,000 mm 0,0 UV-I 0 W/m 2,0 C 3,2 C 0,0 km/h (0 Bft) 94,74 %
23.03.2016 04:23 3,2 C 92 % 1006,6 hPa 0,0 l/m 0,0 km/h (0 Bft) O-SO 121 0 min 0,000 mm 0,0 UV-I 0 W/m 2,0 C 3,2 C 0,0 km/h (0 Bft) 96,15 %
23.03.2016 04:24 3,2 C 92 % 1006,6 hPa 0,0 l/m 0,0 km/h (0 Bft) O-SO 121 0 min 0,000 mm 0,0 UV-I 0 W/m 2,0 C 3,2 C 0,0 km/h (0 Bft) 100,00 %
23.03.2016 04:25 3,2 C 92 % 1006,6 hPa 0,0 l/m 0,0 km/h (0 Bft) O-SO 121 0 min 0,000 mm 0,0 UV-I 0 W/m 2,0 C 3,2 C 0,0 km/h (0 Bft) 95,65 %
23.03.2016 04:26 3,2 C 92 % 1006,6 hPa 0,0 l/m 0,0 km/h (0 Bft) O-SO 121 0 min 0,000 mm 0,0 UV-I 0 W/m 2,0 C 3,2 C 0,0 km/h (0 Bft) 100,00 %
23.03.2016 04:27 3,2 C 92 % 1006,6 hPa 0,0 l/m 0,0 km/h (0 Bft) O-SO 121 0 min 0,000 mm 0,0 UV-I 0 W/m 2,0 C 3,2 C 0,0 km/h (0 Bft) 95,65 %
23.03.2016 04:28 3,1 C 92 % 1006,6 hPa 0,0 l/m 0,0 km/h (0 Bft) O-SO 121 0 min 0,000 mm 0,0 UV-I 0 W/m 1,9 C 3,1 C 0,0 km/h (0 Bft) 100,00 %
23.03.2016 04:29 3,2 C 92 % 1006,6 hPa 0,0 l/m 0,0 km/h (0 Bft) O-SO 121 0 min 0,000 mm 0,0 UV-I 0 W/m 2,0 C 3,2 C 0,0 km/h (0 Bft) 95,65 %
23.03.2016 04:30 3,2 C 92 % 1006,6 hPa 0,0 l/m 0,0 km/h (0 Bft) O-SO 121 0 min 0,000 mm 0,0 UV-I 0 W/m 2,0 C 3,2 C 0,0 km/h (0 Bft) 100,00 %
23.03.2016 04:31 3,2 C 92 % 1006,6 hPa 0,0 l/m 0,0 km/h (0 Bft) O-SO 121 0 min 0,000 mm 0,0 UV-I 0 W/m 2,0 C 3,2 C 0,0 km/h (0 Bft) 91,30 %
23.03.2016 04:32 3,2 C 92 % 1006,6 hPa 0,0 l/m 0,0 km/h (0 Bft) O-SO 121 0 min 0,000 mm 0,0 UV-I 0 W/m 2,0 C 3,2 C 0,0 km/h (0 Bft) 95,83 %
23.03.2016 04:33 3,1 C 92 % 1006,6 hPa 0,0 l/m 0,0 km/h (0 Bft) O-SO 121 0 min 0,000 mm 0,0 UV-I 0 W/m 1,9 C 3,1 C 0,0 km/h (0 Bft) 95,65 %
23.03.2016 04:34 3,1 C 92 % 1006,6 hPa 0,0 l/m 0,0 km/h (0 Bft) O-SO 121 0 min 0,000 mm 0,0 UV-I 0 W/m 1,9 C 3,1 C 0,0 km/h (0 Bft) 95,83 %
23.03.2016 04:35 3,1 C 92 % 1006,6 hPa 0,0 l/m 0,0 km/h (0 Bft) O-SO 121 0 min 0,000 mm 0,0 UV-I 0 W/m 1,9 C 3,1 C 0,0 km/h (0 Bft) 100,00 %
23.03.2016 04:36 3,0 C 92 % 1006,6 hPa 0,0 l/m 0,0 km/h (0 Bft) O-SO 121 0 min 0,000 mm 0,0 UV-I 0 W/m 1,8 C 3,0 C 0,0 km/h (0 Bft) 96,30 %
23.03.2016 04:37 3,0 C 92 % 1006,6 hPa 0,0 l/m 0,0 km/h (0 Bft) O-SO 121 0 min 0,000 mm 0,0 UV-I 0 W/m 1,8 C 3,0 C 0,0 km/h (0 Bft) 100,00 %
23.03.2016 04:38 3,0 C 92 % 1006,5 hPa 0,0 l/m 0,0 km/h (0 Bft) O-SO 121 0 min 0,000 mm 0,0 UV-I 0 W/m 1,8 C 3,0 C 0,0 km/h (0 Bft) 95,65 %
23.03.2016 04:39 3,0 C 92 % 1006,5 hPa 0,0 l/m 0,0 km/h (0 Bft) O-SO 121 0 min 0,000 mm 0,0 UV-I 0 W/m 1,8 C 3,0 C 0,0 km/h (0 Bft) 100,00 %
23.03.2016 04:40 3,0 C 92 % 1006,5 hPa 0,0 l/m 0,0 km/h (0 Bft) O-SO 121 0 min 0,000 mm 0,0 UV-I 0 W/m 1,8 C 3,0 C 0,0 km/h (0 Bft) 91,30 %
23.03.2016 04:41 3,0 C 92 % 1006,6 hPa 0,0 l/m 0,0 km/h (0 Bft) O-SO 121 0 min 0,000 mm 0,0 UV-I 0 W/m 1,8 C 3,0 C 0,0 km/h (0 Bft) 100,00 %
23.03.2016 04:42 3,0 C 92 % 1006,5 hPa 0,0 l/m 0,0 km/h (0 Bft) O-SO 121 0 min 0,000 mm 0,0 UV-I 0 W/m 1,8 C 3,0 C 0,0 km/h (0 Bft) 100,00 %
23.03.2016 04:43 3,0 C 93 % 1006,5 hPa 0,0 l/m 0,0 km/h (0 Bft) O-SO 121 0 min 0,000 mm 0,0 UV-I 0 W/m 2,0 C 3,0 C 0,0 km/h (0 Bft) 96,30 %
23.03.2016 04:44 3,1 C 93 % 1006,5 hPa 0,0 l/m 0,0 km/h (0 Bft) O-SO 121 0 min 0,000 mm 0,0 UV-I 0 W/m 2,1 C 3,1 C 0,0 km/h (0 Bft) 100,00 %
23.03.2016 04:45 3,1 C 93 % 1006,5 hPa 0,0 l/m 0,0 km/h (0 Bft) O-SO 121 0 min 0,000 mm 0,0 UV-I 0 W/m 2,1 C 3,1 C 0,0 km/h (0 Bft) 100,00 %
23.03.2016 04:46 3,1 C 93 % 1006,5 hPa 0,0 l/m 0,0 km/h (0 Bft) O-SO 121 0 min 0,000 mm 0,0 UV-I 0 W/m 2,1 C 3,1 C 0,0 km/h (0 Bft) 100,00 %
23.03.2016 04:47 3,1 C 92 % 1006,5 hPa 0,0 l/m 0,0 km/h (0 Bft) O-SO 121 0 min 0,000 mm 0,0 UV-I 0 W/m 1,9 C 3,1 C 0,0 km/h (0 Bft) 100,00 %
23.03.2016 04:48 3,1 C 92 % 1006,5 hPa 0,0 l/m 0,0 km/h (0 Bft) O-SO 121 0 min 0,000 mm 0,0 UV-I 0 W/m 1,9 C 3,1 C 0,0 km/h (0 Bft) 95,65 %
23.03.2016 04:49 3,1 C 92 % 1006,5 hPa 0,0 l/m 0,0 km/h (0 Bft) O-SO 121 0 min 0,000 mm 0,0 UV-I 0 W/m 1,9 C 3,1 C 0,0 km/h (0 Bft) 100,00 %
23.03.2016 04:50 3,1 C 92 % 1006,5 hPa 0,0 l/m 0,0 km/h (0 Bft) O-SO 121 0 min 0,000 mm 0,0 UV-I 0 W/m 1,9 C 3,1 C 0,0 km/h (0 Bft) 97,71 %
23.03.2016 04:51 3,2 C 92 % 1006,5 hPa 0,0 l/m 0,0 km/h (0 Bft) O-SO 121 0 min 0,000 mm 0,0 UV-I 0 W/m 2,0 C 3,2 C 0,0 km/h (0 Bft) 100,00 %
23.03.2016 04:52 3,2 C 92 % 1006,6 hPa 0,0 l/m 0,0 km/h (0 Bft) O-SO 121 0 min 0,000 mm 0,0 UV-I 0 W/m 2,0 C 3,2 C 0,0 km/h (0 Bft) 100,00 %
23.03.2016 04:53 3,2 C 92 % 1006,6 hPa 0,0 l/m 0,0 km/h (0 Bft) O-SO 121 0 min 0,000 mm 0,0 UV-I 0 W/m 2,0 C 3,2 C 0,0 km/h (0 Bft) 100,00 %
23.03.2016 04:54 3,2 C 92 % 1006,6 hPa 0,0 l/m 0,0 km/h (0 Bft) O-SO 121 0 min 0,000 mm 0,0 UV-I 0 W/m 2,0 C 3,2 C 0,0 km/h (0 Bft) 100,00 %
23.03.2016 04:55 3,2 C 92 % 1006,6 hPa 0,0 l/m 0,0 km/h (0 Bft) O-SO 121 0 min 0,000 mm 0,0 UV-I 0 W/m 2,0 C 3,2 C 0,0 km/h (0 Bft) 100,00 %
23.03.2016 04:56 3,1 C 92 % 1006,6 hPa 0,0 l/m 0,0 km/h (0 Bft) O-SO 121 0 min 0,000 mm 0,0 UV-I 0 W/m 1,9 C 3,1 C 0,0 km/h (0 Bft) 100,00 %
23.03.2016 04:57 3,2 C 92 % 1006,6 hPa 0,0 l/m 0,0 km/h (0 Bft) O-SO 121 0 min 0,000 mm 0,0 UV-I 0 W/m 2,0 C 3,2 C 0,0 km/h (0 Bft) 100,00 %
23.03.2016 04:58 3,2 C 92 % 1006,6 hPa 0,0 l/m 0,0 km/h (0 Bft) O-SO 121 0 min 0,000 mm 0,0 UV-I 0 W/m 2,0 C 3,2 C 0,0 km/h (0 Bft) 100,00 %
23.03.2016 04:59 3,2 C 92 % 1006,6 hPa 0,0 l/m 0,0 km/h (0 Bft) O-SO 121 0 min 0,000 mm 0,0 UV-I 0 W/m 2,0 C 3,2 C 0,0 km/h (0 Bft) 100,00 %
23.03.2016 05:00 3,2 C 92 % 1006,6 hPa 0,0 l/m 0,0 km/h (0 Bft) O-SO 121 0 min 0,000 mm 0,0 UV-I 0 W/m 2,0 C 3,2 C 0,0 km/h (0 Bft) 100,00 %
23.03.2016 05:01 3,2 C 92 % 1006,6 hPa 0,0 l/m 0,0 km/h (0 Bft) O-SO 121 0 min 0,000 mm 0,0 UV-I 0 W/m 2,0 C 3,2 C 0,0 km/h (0 Bft) 91,67 %
23.03.2016 05:02 3,2 C 92 % 1006,6 hPa 0,0 l/m 0,0 km/h (0 Bft) O-SO 121 0 min 0,000 mm 0,0 UV-I 0 W/m 2,0 C 3,2 C 0,0 km/h (0 Bft) 100,00 %
23.03.2016 05:03 3,2 C 92 % 1006,6 hPa 0,0 l/m 0,0 km/h (0 Bft) O-SO 121 0 min 0,000 mm 0,0 UV-I 0 W/m 2,0 C 3,2 C 0,0 km/h (0 Bft) 100,00 %
23.03.2016 05:04 3,2 C 92 % 1006,6 hPa 0,0 l/m 0,0 km/h (0 Bft) O-SO 121 0 min 0,000 mm 0,0 UV-I 0 W/m 2,0 C 3,2 C 0,0 km/h (0 Bft) 96,30 %
23.03.2016 05:05 3,1 C 92 % 1006,6 hPa 0,0 l/m 0,0 km/h (0 Bft) O-SO 121 0 min 0,000 mm 0,0 UV-I 0 W/m 1,9 C 3,1 C 0,0 km/h (0 Bft) 100,00 %
23.03.2016 05:06 3,1 C 92 % 1006,6 hPa 0,0 l/m 0,0 km/h (0 Bft) O-SO 121 0 min 0,000 mm 0,0 UV-I 0 W/m 1,9 C 3,1 C 0,0 km/h (0 Bft) 100,00 %
23.03.2016 05:07 3,1 C 92 % 1006,5 hPa 0,0 l/m 0,0 km/h (0 Bft) O-SO 121 0 min 0,000 mm 0,0 UV-I 0 W/m 1,9 C 3,1 C 0,0 km/h (0 Bft) 100,00 %
23.03.2016 05:08 3,1 C 92 % 1006,6 hPa 0,0 l/m 0,0 km/h (0 Bft) O-SO 121 0 min 0,000 mm 0,0 UV-I 0 W/m 1,9 C 3,1 C 0,0 km/h (0 Bft) 100,00 %
23.03.2016 05:09 3,1 C 92 % 1006,6 hPa 0,0 l/m 0,0 km/h (0 Bft) O-SO 121 0 min 0,000 mm 0,0 UV-I 0 W/m 1,9 C 3,1 C 0,0 km/h (0 Bft) 98,22 %
23.03.2016 05:10 3,1 C 92 % 1006,6 hPa 0,0 l/m 0,0 km/h (0 Bft) O-SO 121 0 min 0,000 mm 0,0 UV-I 0 W/m 1,9 C 3,1 C 0,0 km/h (0 Bft) 100,00 %
23.03.2016 05:11 3,1 C 92 % 1006,6 hPa 0,0 l/m 0,0 km/h (0 Bft) O-SO 121 0 min 0,000 mm 0,0 UV-I 0 W/m 1,9 C 3,1 C 0,0 km/h (0 Bft) 96,15 %
23.03.2016 05:12 3,1 C 92 % 1006,6 hPa 0,0 l/m 0,1 km/h (0 Bft) O-SO 121 0 min 0,000 mm 0,0 UV-I 0 W/m 1,9 C 3,1 C 1,6 km/h (1 Bft) 100,00 %
23.03.2016 05:13 3,1 C 92 % 1006,6 hPa 0,0 l/m 0,1 km/h (0 Bft) O-SO 121 0 min 0,000 mm 0,0 UV-I 0 W/m 1,9 C 3,1 C 1,6 km/h (1 Bft) 100,00 %
23.03.2016 05:14 3,1 C 92 % 1006,5 hPa 0,0 l/m 0,0 km/h (0 Bft) O-SO 121 0 min 0,000 mm 0,0 UV-I 0 W/m 1,9 C 3,1 C 0,0 km/h (0 Bft) 95,83 %
23.03.2016 05:15 3,1 C 92 % 1006,6 hPa 0,0 l/m 0,1 km/h (0 Bft) O-SO 121 0 min 0,000 mm 0,0 UV-I 0 W/m 1,9 C 3,1 C 1,6 km/h (1 Bft) 100,00 %
23.03.2016 05:16 3,1 C 92 % 1006,5 hPa 0,0 l/m 1,3 km/h (1 Bft) O-SO 121 0 min 0,000 mm 0,0 UV-I 0 W/m 1,9 C 3,1 C 1,6 km/h (1 Bft) 100,00 %
23.03.2016 05:17 3,1 C 92 % 1006,5 hPa 0,0 l/m 0,6 km/h (0 Bft) O-SO 121 0 min 0,000 mm 0,0 UV-I 0 W/m 1,9 C 3,1 C 1,6 km/h (1 Bft) 100,00 %
23.03.2016 05:18 3,1 C 92 % 1006,5 hPa 0,0 l/m 1,4 km/h (1 Bft) O-SO 121 0 min 0,000 mm 0,0 UV-I 0 W/m 1,9 C 3,1 C 3,2 km/h (1 Bft) 100,00 %
23.03.2016 05:19 3,0 C 92 % 1006,5 hPa 0,0 l/m 1,4 km/h (1 Bft) O-SO 121 0 min 0,000 mm 0,0 UV-I 0 W/m 1,8 C 3,0 C 3,2 km/h (1 Bft) 100,00 %
23.03.2016 05:20 3,0 C 92 % 1006,5 hPa 0,0 l/m 1,5 km/h (1 Bft) O-SO 121 0 min 0,000 mm 0,0 UV-I 0 W/m 1,8 C 3,0 C 1,6 km/h (1 Bft) 95,65 %
23.03.2016 05:21 3,1 C 92 % 1006,5 hPa 0,0 l/m 2,0 km/h (1 Bft) O-SO 121 0 min 0,000 mm 0,0 UV-I 0 W/m 1,9 C 3,1 C 3,2 km/h (1 Bft) 100,00 %
23.03.2016 05:22 3,1 C 92 % 1006,5 hPa 0,0 l/m 3,0 km/h (1 Bft) O-SO 121 0 min 0,000 mm 0,0 UV-I 0 W/m 1,9 C 3,1 C 3,2 km/h (1 Bft) 100,00 %
23.03.2016 05:23 3,1 C 92 % 1006,5 hPa 0,0 l/m 3,0 km/h (1 Bft) O-SO 121 0 min 0,000 mm 0,0 UV-I 0 W/m 1,9 C 3,1 C 3,2 km/h (1 Bft) 100,00 %
23.03.2016 05:24 3,1 C 92 % 1006,5 hPa 0,0 l/m 2,6 km/h (1 Bft) O-SO 121 0 min 0,000 mm 0,0 UV-I 0 W/m 1,9 C 3,1 C 3,2 km/h (1 Bft) 100,00 %
23.03.2016 05:25 3,2 C 92 % 1006,5 hPa 0,0 l/m 2,5 km/h (1 Bft) O-SO 121 0 min 0,000 mm 0,0 UV-I 0 W/m 2,0 C 3,2 C 3,2 km/h (1 Bft) 100,00 %
23.03.2016 05:26 3,2 C 92 % 1006,6 hPa 0,0 l/m 2,3 km/h (1 Bft) O-SO 121 0 min 0,000 mm 0,0 UV-I 0 W/m 2,0 C 3,2 C 3,2 km/h (1 Bft) 100,00 %
23.03.2016 05:27 3,2 C 91 % 1006,6 hPa 0,0 l/m 3,2 km/h (1 Bft) O-SO 121 0 min 0,000 mm 0,0 UV-I 0 W/m 1,9 C 3,2 C 4,8 km/h (1 Bft) 100,00 %
23.03.2016 05:28 3,2 C 91 % 1006,6 hPa 0,0 l/m 3,3 km/h (1 Bft) O-SO 121 0 min 0,000 mm 0,0 UV-I 0 W/m 1,9 C 3,2 C 4,8 km/h (1 Bft) 100,00 %
23.03.2016 05:29 3,2 C 91 % 1006,6 hPa 0,0 l/m 3,5 km/h (1 Bft) O-SO 120 0 min 0,000 mm 0,0 UV-I 0 W/m 1,9 C 3,2 C 4,8 km/h (1 Bft) 100,00 %
23.03.2016 05:30 3,2 C 91 % 1006,6 hPa 0,0 l/m 3,4 km/h (1 Bft) O-SO 120 0 min 0,000 mm 0,0 UV-I 0 W/m 1,9 C 3,2 C 4,8 km/h (1 Bft) 100,00 %
23.03.2016 05:31 3,2 C 91 % 1006,6 hPa 0,0 l/m 4,2 km/h (1 Bft) O-SO 119 0 min 0,000 mm 0,0 UV-I 0 W/m 1,9 C 3,2 C 4,8 km/h (1 Bft) 100,00 %
23.03.2016 05:32 3,2 C 91 % 1006,6 hPa 0,0 l/m 3,8 km/h (1 Bft) O-SO 119 0 min 0,000 mm 0,0 UV-I 0 W/m 1,9 C 3,2 C 4,8 km/h (1 Bft) 100,00 %
23.03.2016 05:33 3,2 C 91 % 1006,6 hPa 0,0 l/m 3,2 km/h (1 Bft) O-SO 119 0 min 0,000 mm 0,0 UV-I 0 W/m 1,9 C 3,2 C 4,8 km/h (1 Bft) 100,00 %
23.03.2016 05:34 3,2 C 91 % 1006,6 hPa 0,0 l/m 3,5 km/h (1 Bft) O-SO 119 0 min 0,000 mm 0,0 UV-I 0 W/m 1,9 C 3,2 C 4,8 km/h (1 Bft) 100,00 %
23.03.2016 05:35 3,2 C 91 % 1006,5 hPa 0,0 l/m 2,6 km/h (1 Bft) O-SO 119 0 min 0,000 mm 0,0 UV-I 0 W/m 1,9 C 3,2 C 3,2 km/h (1 Bft) 100,00 %
23.03.2016 05:36 3,2 C 91 % 1006,5 hPa 0,0 l/m 2,5 km/h (1 Bft) O-SO 119 0 min 0,000 mm 0,0 UV-I 0 W/m 1,9 C 3,2 C 3,2 km/h (1 Bft) 100,00 %
23.03.2016 05:37 3,2 C 91 % 1006,5 hPa 0,0 l/m 2,2 km/h (1 Bft) O-SO 119 0 min 0,000 mm 0,0 UV-I 0 W/m 1,9 C 3,2 C 3,2 km/h (1 Bft) 100,00 %
23.03.2016 05:38 3,2 C 90 % 1006,5 hPa 0,0 l/m 2,0 km/h (1 Bft) O-SO 119 0 min 0,000 mm 0,0 UV-I 0 W/m 1,7 C 3,2 C 3,2 km/h (1 Bft) 100,00 %
23.03.2016 05:39 3,2 C 90 % 1006,5 hPa 0,0 l/m 1,9 km/h (1 Bft) O-SO 119 0 min 0,000 mm 0,0 UV-I 0 W/m 1,7 C 3,2 C 3,2 km/h (1 Bft) 100,00 %
23.03.2016 05:40 3,3 C 90 % 1006,5 hPa 0,0 l/m 1,5 km/h (1 Bft) O-SO 119 0 min 0,000 mm 0,0 UV-I 0 W/m 1,8 C 3,3 C 3,2 km/h (1 Bft) 100,00 %
23.03.2016 05:41 3,3 C 90 % 1006,5 hPa 0,0 l/m 0,9 km/h (0 Bft) O-SO 119 0 min 0,000 mm 0,0 UV-I 0 W/m 1,8 C 3,3 C 1,6 km/h (1 Bft) 95,65 %
23.03.2016 05:42 3,3 C 90 % 1006,5 hPa 0,0 l/m 0,9 km/h (0 Bft) O-SO 119 0 min 0,000 mm 0,0 UV-I 0 W/m 1,8 C 3,3 C 1,6 km/h (1 Bft) 100,00 %
23.03.2016 05:43 3,3 C 90 % 1006,5 hPa 0,0 l/m 0,1 km/h (0 Bft) O-SO 119 0 min 0,000 mm 0,0 UV-I 0 W/m 1,8 C 3,3 C 1,6 km/h (1 Bft) 100,00 %
23.03.2016 05:44 3,3 C 90 % 1006,5 hPa 0,0 l/m 0,5 km/h (0 Bft) O-SO 119 0 min 0,000 mm 0,0 UV-I 0 W/m 1,8 C 3,3 C 1,6 km/h (1 Bft) 100,00 %
23.03.2016 05:45 3,3 C 90 % 1006,5 hPa 0,0 l/m 0,8 km/h (0 Bft) O-SO 119 0 min 0,000 mm 0,0 UV-I 0 W/m 1,8 C 3,3 C 1,6 km/h (1 Bft) 100,00 %
23.03.2016 05:46 3,3 C 90 % 1006,5 hPa 0,0 l/m 0,8 km/h (0 Bft) O-SO 119 0 min 0,000 mm 0,0 UV-I 0 W/m 1,8 C 3,3 C 1,6 km/h (1 Bft) 100,00 %
23.03.2016 05:47 3,3 C 90 % 1006,5 hPa 0,0 l/m 0,1 km/h (0 Bft) O-SO 119 0 min 0,000 mm 0,0 UV-I 0 W/m 1,8 C 3,3 C 1,6 km/h (1 Bft) 100,00 %
23.03.2016 05:48 3,3 C 90 % 1006,5 hPa 0,0 l/m 0,2 km/h (0 Bft) O-SO 119 0 min 0,000 mm 0,0 UV-I 0 W/m 1,8 C 3,3 C 1,6 km/h (1 Bft) 100,00 %
23.03.2016 05:49 3,3 C 90 % 1006,5 hPa 0,0 l/m 0,0 km/h (0 Bft) O-SO 119 0 min 0,000 mm 0,0 UV-I 0 W/m 1,8 C 3,3 C 0,0 km/h (0 Bft) 100,00 %
23.03.2016 05:50 3,3 C 90 % 1006,5 hPa 0,0 l/m 0,0 km/h (0 Bft) O-SO 119 0 min 0,000 mm 0,0 UV-I 0 W/m 1,8 C 3,3 C 0,0 km/h (0 Bft) 100,00 %
23.03.2016 05:51 3,3 C 90 % 1006,5 hPa 0,0 l/m 0,0 km/h (0 Bft) O-SO 119 0 min 0,000 mm 0,0 UV-I 0 W/m 1,8 C 3,3 C 0,0 km/h (0 Bft) 100,00 %
23.03.2016 05:52 3,3 C 90 % 1006,5 hPa 0,0 l/m 0,1 km/h (0 Bft) O-SO 119 0 min 0,000 mm 0,0 UV-I 0 W/m 1,8 C 3,3 C 1,6 km/h (1 Bft) 98,76 %
23.03.2016 05:53 3,3 C 91 % 1006,5 hPa 0,0 l/m 0,9 km/h (0 Bft) O-SO 119 0 min 0,000 mm 0,0 UV-I 0 W/m 2,0 C 3,3 C 1,6 km/h (1 Bft) 100,00 %
23.03.2016 05:54 3,2 C 91 % 1006,6 hPa 0,0 l/m 0,1 km/h (0 Bft) O-SO 119 0 min 0,000 mm 0,0 UV-I 0 W/m 1,9 C 3,2 C 1,6 km/h (1 Bft) 100,00 %
23.03.2016 05:55 3,2 C 91 % 1006,5 hPa 0,0 l/m 0,0 km/h (0 Bft) O-SO 119 0 min 0,000 mm 0,0 UV-I 0 W/m 1,9 C 3,2 C 0,0 km/h (0 Bft) 100,00 %
23.03.2016 05:56 3,1 C 91 % 1006,6 hPa 0,0 l/m 0,0 km/h (0 Bft) O-SO 119 0 min 0,000 mm 0,0 UV-I 0 W/m 1,8 C 3,1 C 0,0 km/h (0 Bft) 100,00 %
23.03.2016 05:57 3,1 C 91 % 1006,6 hPa 0,0 l/m 0,0 km/h (0 Bft) O-SO 119 0 min 0,000 mm 0,0 UV-I 0 W/m 1,8 C 3,1 C 0,0 km/h (0 Bft) 100,00 %
23.03.2016 05:58 3,1 C 92 % 1006,5 hPa 0,0 l/m 0,0 km/h (0 Bft) O-SO 119 0 min 0,000 mm 0,0 UV-I 0 W/m 1,9 C 3,1 C 0,0 km/h (0 Bft) 100,00 %
23.03.2016 05:59 3,0 C 92 % 1006,5 hPa 0,0 l/m 0,0 km/h (0 Bft) O-SO 119 0 min 0,000 mm 0,0 UV-I 0 W/m 1,8 C 3,0 C 0,0 km/h (0 Bft) 100,00 %
23.03.2016 06:00 3,0 C 92 % 1006,6 hPa 0,0 l/m 0,0 km/h (0 Bft) O-SO 119 0 min 0,000 mm 0,0 UV-I 0 W/m 1,8 C 3,0 C 0,0 km/h (0 Bft) 100,00 %
23.03.2016 06:01 3,0 C 92 % 1006,6 hPa 0,0 l/m 0,0 km/h (0 Bft) O-SO 119 0 min 0,000 mm 0,0 UV-I 0 W/m 1,8 C 3,0 C 0,0 km/h (0 Bft) 100,00 %
23.03.2016 06:02 2,9 C 92 % 1006,6 hPa 0,0 l/m 0,0 km/h (0 Bft) O-SO 119 0 min 0,000 mm 0,0 UV-I 0 W/m 1,7 C 2,9 C 0,0 km/h (0 Bft) 95,65 %
23.03.2016 06:03 2,9 C 92 % 1006,6 hPa 0,0 l/m 0,0 km/h (0 Bft) O-SO 119 0 min 0,000 mm 0,0 UV-I 0 W/m 1,7 C 2,9 C 0,0 km/h (0 Bft) 100,00 %
23.03.2016 06:04 2,9 C 92 % 1006,6 hPa 0,0 l/m 0,0 km/h (0 Bft) O-SO 119 0 min 0,000 mm 0,0 UV-I 0 W/m 1,7 C 2,9 C 0,0 km/h (0 Bft) 100,00 %
23.03.2016 06:05 2,9 C 92 % 1006,6 hPa 0,0 l/m 0,0 km/h (0 Bft) O-SO 119 0 min 0,000 mm 0,0 UV-I 0 W/m 1,7 C 2,9 C 0,0 km/h (0 Bft) 100,00 %
23.03.2016 06:06 3,0 C 92 % 1006,6 hPa 0,0 l/m 0,0 km/h (0 Bft) O-SO 119 0 min 0,000 mm 0,0 UV-I 0 W/m 1,8 C 3,0 C 0,0 km/h (0 Bft) 100,00 %
23.03.2016 06:07 2,9 C 92 % 1006,6 hPa 0,0 l/m 0,0 km/h (0 Bft) O-SO 119 0 min 0,000 mm 0,0 UV-I 0 W/m 1,7 C 2,9 C 0,0 km/h (0 Bft) 96,30 %
23.03.2016 06:08 3,0 C 92 % 1006,6 hPa 0,0 l/m 0,0 km/h (0 Bft) O-SO 119 0 min 0,000 mm 0,0 UV-I 0 W/m 1,8 C 3,0 C 0,0 km/h (0 Bft) 100,00 %
23.03.2016 06:09 3,0 C 92 % 1006,5 hPa 0,0 l/m 0,0 km/h (0 Bft) O-SO 119 0 min 0,000 mm 0,0 UV-I 0 W/m 1,8 C 3,0 C 0,0 km/h (0 Bft) 100,00 %
23.03.2016 06:10 3,0 C 92 % 1006,6 hPa 0,0 l/m 0,0 km/h (0 Bft) O-SO 119 0 min 0,000 mm 0,0 UV-I 0 W/m 1,8 C 3,0 C 0,0 km/h (0 Bft) 100,00 %
23.03.2016 06:11 3,0 C 92 % 1006,6 hPa 0,0 l/m 0,0 km/h (0 Bft) O-SO 119 0 min 0,000 mm 0,0 UV-I 0 W/m 1,8 C 3,0 C 0,0 km/h (0 Bft) 95,83 %
23.03.2016 06:12 3,1 C 92 % 1006,5 hPa 0,0 l/m 0,0 km/h (0 Bft) O-SO 119 0 min 0,000 mm 0,0 UV-I 0 W/m 1,9 C 3,1 C 0,0 km/h (0 Bft) 100,00 %
23.03.2016 06:13 3,1 C 92 % 1006,6 hPa 0,0 l/m 0,1 km/h (0 Bft) O-SO 119 0 min 0,000 mm 0,0 UV-I 1 W/m 1,9 C 3,1 C 1,6 km/h (1 Bft) 95,65 %
23.03.2016 06:14 3,1 C 92 % 1006,6 hPa 0,0 l/m 0,7 km/h (0 Bft) O-SO 119 0 min 0,000 mm 0,0 UV-I 5 W/m 1,9 C 3,1 C 1,6 km/h (1 Bft) 100,00 %
23.03.2016 06:15 3,1 C 92 % 1006,6 hPa 0,0 l/m 0,4 km/h (0 Bft) O-SO 119 0 min 0,000 mm 0,0 UV-I 5 W/m 1,9 C 3,1 C 1,6 km/h (1 Bft) 96,15 %
23.03.2016 06:16 3,1 C 92 % 1006,6 hPa 0,0 l/m 0,0 km/h (0 Bft) O-SO 119 0 min 0,000 mm 0,0 UV-I 5 W/m 1,9 C 3,1 C 0,0 km/h (0 Bft) 95,83 %
23.03.2016 06:17 3,1 C 92 % 1006,6 hPa 0,0 l/m 0,0 km/h (0 Bft) O-SO 119 0 min 0,000 mm 0,0 UV-I 5 W/m 1,9 C 3,1 C 0,0 km/h (0 Bft) 100,00 %
23.03.2016 06:18 3,1 C 92 % 1006,6 hPa 0,0 l/m 0,0 km/h (0 Bft) O-SO 119 0 min 0,000 mm 0,0 UV-I 5 W/m 1,9 C 3,1 C 0,0 km/h (0 Bft) 92,31 %
23.03.2016 06:19 3,1 C 92 % 1006,6 hPa 0,0 l/m 0,0 km/h (0 Bft) O-SO 119 0 min 0,000 mm 0,0 UV-I 7 W/m 1,9 C 3,1 C 0,0 km/h (0 Bft) 100,00 %
23.03.2016 06:20 3,1 C 92 % 1006,6 hPa 0,0 l/m 0,0 km/h (0 Bft) O-SO 119 0 min 0,000 mm 0,0 UV-I 7 W/m 1,9 C 3,1 C 0,0 km/h (0 Bft) 91,67 %
23.03.2016 06:21 3,1 C 92 % 1006,6 hPa 0,0 l/m 0,1 km/h (0 Bft) O-SO 119 0 min 0,000 mm 0,0 UV-I 7 W/m 1,9 C 3,1 C 1,6 km/h (1 Bft) 100,00 %
23.03.2016 06:22 3,1 C 92 % 1006,6 hPa 0,0 l/m 0,4 km/h (0 Bft) O-SO 119 0 min 0,000 mm 0,0 UV-I 8 W/m 1,9 C 3,1 C 1,6 km/h (1 Bft) 95,83 %
23.03.2016 06:23 3,1 C 92 % 1006,6 hPa 0,0 l/m 0,0 km/h (0 Bft) O-SO 119 0 min 0,000 mm 0,0 UV-I 9 W/m 1,9 C 3,1 C 0,0 km/h (0 Bft) 100,00 %
23.03.2016 06:24 3,1 C 92 % 1006,6 hPa 0,0 l/m 0,0 km/h (0 Bft) O-SO 119 0 min 0,000 mm 0,0 UV-I 9 W/m 1,9 C 3,1 C 0,0 km/h (0 Bft) 95,83 %
23.03.2016 06:25 3,1 C 92 % 1006,6 hPa 0,0 l/m 0,2 km/h (0 Bft) O-SO 119 0 min 0,000 mm 0,0 UV-I 11 W/m 1,9 C 3,1 C 1,6 km/h (1 Bft) 96,15 %
23.03.2016 06:26 3,1 C 92 % 1006,6 hPa 0,0 l/m 0,2 km/h (0 Bft) O-SO 119 0 min 0,000 mm 0,0 UV-I 11 W/m 1,9 C 3,1 C 1,6 km/h (1 Bft) 100,00 %
23.03.2016 06:27 3,1 C 92 % 1006,6 hPa 0,0 l/m 0,0 km/h (0 Bft) O-SO 119 0 min 0,000 mm 0,0 UV-I 11 W/m 1,9 C 3,1 C 0,0 km/h (0 Bft) 95,65 %
23.03.2016 06:28 3,1 C 93 % 1006,6 hPa 0,0 l/m 0,1 km/h (0 Bft) O-SO 119 0 min 0,000 mm 0,0 UV-I 12 W/m 2,1 C 3,1 C 1,6 km/h (1 Bft) 100,00 %
23.03.2016 06:29 3,1 C 93 % 1006,6 hPa 0,0 l/m 0,0 km/h (0 Bft) O-SO 119 0 min 0,000 mm 0,0 UV-I 12 W/m 2,1 C 3,1 C 0,0 km/h (0 Bft) 96,15 %
23.03.2016 06:30 3,1 C 93 % 1006,6 hPa 0,0 l/m 0,0 km/h (0 Bft) O-SO 119 0 min 0,000 mm 0,0 UV-I 12 W/m 2,1 C 3,1 C 0,0 km/h (0 Bft) 95,83 %
23.03.2016 06:31 3,0 C 93 % 1006,6 hPa 0,0 l/m 0,0 km/h (0 Bft) O-SO 119 0 min 0,000 mm 0,0 UV-I 14 W/m 2,0 C 3,0 C 0,0 km/h (0 Bft) 95,65 %
23.03.2016 06:32 3,0 C 93 % 1006,6 hPa 0,0 l/m 0,0 km/h (0 Bft) O-SO 119 0 min 0,000 mm 0,0 UV-I 15 W/m 2,0 C 3,0 C 0,0 km/h (0 Bft) 95,83 %
23.03.2016 06:33 3,0 C 93 % 1006,6 hPa 0,0 l/m 0,0 km/h (0 Bft) O-SO 119 0 min 0,000 mm 0,0 UV-I 16 W/m 2,0 C 3,0 C 0,0 km/h (0 Bft) 100,00 %
23.03.2016 06:34 3,0 C 93 % 1006,6 hPa 0,0 l/m 0,0 km/h (0 Bft) O-SO 119 0 min 0,000 mm 0,0 UV-I 17 W/m 2,0 C 3,0 C 0,0 km/h (0 Bft) 95,83 %
23.03.2016 06:35 3,0 C 93 % 1006,7 hPa 0,0 l/m 0,0 km/h (0 Bft) O-SO 119 0 min 0,000 mm 0,0 UV-I 18 W/m 2,0 C 3,0 C 0,0 km/h (0 Bft) 100,00 %
23.03.2016 06:36 3,0 C 93 % 1006,7 hPa 0,0 l/m 0,0 km/h (0 Bft) O-SO 119 0 min 0,000 mm 0,0 UV-I 19 W/m 2,0 C 3,0 C 0,0 km/h (0 Bft) 96,15 %
23.03.2016 06:37 3,0 C 93 % 1006,7 hPa 0,0 l/m 0,1 km/h (0 Bft) O-SO 119 0 min 0,000 mm 0,0 UV-I 21 W/m 2,0 C 3,0 C 1,6 km/h (1 Bft) 100,00 %
23.03.2016 06:38 3,1 C 93 % 1006,7 hPa 0,0 l/m 0,1 km/h (0 Bft) O-SO 119 0 min 0,000 mm 0,0 UV-I 23 W/m 2,1 C 3,1 C 1,6 km/h (1 Bft) 96,55 %
23.03.2016 06:39 3,1 C 93 % 1006,7 hPa 0,0 l/m 0,0 km/h (0 Bft) O-SO 119 0 min 0,000 mm 0,0 UV-I 24 W/m 2,1 C 3,1 C 0,0 km/h (0 Bft) 95,83 %
23.03.2016 06:40 3,1 C 93 % 1006,7 hPa 0,0 l/m 0,1 km/h (0 Bft) O-SO 119 0 min 0,000 mm 0,0 UV-I 26 W/m 2,1 C 3,1 C 1,6 km/h (1 Bft) 100,00 %
23.03.2016 06:41 3,1 C 92 % 1006,7 hPa 0,0 l/m 0,0 km/h (0 Bft) O-SO 119 0 min 0,000 mm 0,0 UV-I 26 W/m 1,9 C 3,1 C 0,0 km/h (0 Bft) 95,83 %
23.03.2016 06:42 3,1 C 92 % 1006,7 hPa 0,0 l/m 0,0 km/h (0 Bft) O-SO 119 0 min 0,000 mm 0,0 UV-I 28 W/m 1,9 C 3,1 C 0,0 km/h (0 Bft) 100,00 %
23.03.2016 06:43 3,1 C 92 % 1006,6 hPa 0,0 l/m 0,0 km/h (0 Bft) O-SO 119 0 min 0,000 mm 0,0 UV-I 29 W/m 1,9 C 3,1 C 0,0 km/h (0 Bft) 93,33 %
23.03.2016 06:44 3,1 C 93 % 1006,7 hPa 0,0 l/m 0,0 km/h (0 Bft) O-SO 119 0 min 0,000 mm 0,0 UV-I 20 W/m 2,1 C 3,1 C 0,0 km/h (0 Bft) 96,15 %
23.03.2016 06:45 3,1 C 93 % 1006,7 hPa 0,0 l/m 0,0 km/h (0 Bft) O-SO 119 0 min 0,000 mm 0,0 UV-I 23 W/m 2,1 C 3,1 C 0,0 km/h (0 Bft) 95,83 %
23.03.2016 06:46 3,1 C 93 % 1006,7 hPa 0,0 l/m 0,0 km/h (0 Bft) O-SO 119 0 min 0,000 mm 0,0 UV-I 32 W/m 2,1 C 3,1 C 0,0 km/h (0 Bft) 100,00 %
23.03.2016 06:47 3,1 C 93 % 1006,7 hPa 0,0 l/m 0,0 km/h (0 Bft) O-SO 119 0 min 0,000 mm 0,0 UV-I 33 W/m 2,1 C 3,1 C 0,0 km/h (0 Bft) 100,00 %
23.03.2016 06:48 3,1 C 93 % 1006,7 hPa 0,0 l/m 0,0 km/h (0 Bft) O-SO 119 0 min 0,000 mm 0,0 UV-I 34 W/m 2,1 C 3,1 C 0,0 km/h (0 Bft) 96,55 %
23.03.2016 06:49 3,1 C 93 % 1006,7 hPa 0,0 l/m 0,0 km/h (0 Bft) O-SO 119 0 min 0,000 mm 0,0 UV-I 36 W/m 2,1 C 3,1 C 0,0 km/h (0 Bft) 98,52 %
23.03.2016 06:50 3,2 C 93 % 1006,7 hPa 0,0 l/m 0,0 km/h (0 Bft) O-SO 119 0 min 0,000 mm 0,0 UV-I 38 W/m 2,2 C 3,2 C 0,0 km/h (0 Bft) 100,00 %
23.03.2016 06:51 3,2 C 93 % 1006,7 hPa 0,0 l/m 0,0 km/h (0 Bft) O-SO 119 0 min 0,000 mm 0,0 UV-I 39 W/m 2,2 C 3,2 C 0,0 km/h (0 Bft) 100,00 %
23.03.2016 06:52 3,2 C 92 % 1006,8 hPa 0,0 l/m 0,0 km/h (0 Bft) O-SO 119 0 min 0,000 mm 0,0 UV-I 40 W/m 2,0 C 3,2 C 0,0 km/h (0 Bft) 100,00 %
23.03.2016 06:53 3,2 C 92 % 1006,7 hPa 0,0 l/m 0,0 km/h (0 Bft) O-SO 119 0 min 0,000 mm 0,0 UV-I 42 W/m 2,0 C 3,2 C 0,0 km/h (0 Bft) 100,00 %
23.03.2016 06:54 3,2 C 92 % 1006,7 hPa 0,0 l/m 0,0 km/h (0 Bft) O-SO 119 0 min 0,000 mm 0,0 UV-I 42 W/m 2,0 C 3,2 C 0,0 km/h (0 Bft) 95,65 %
23.03.2016 06:55 3,2 C 92 % 1006,7 hPa 0,0 l/m 0,0 km/h (0 Bft) O-SO 119 0 min 0,000 mm 0,0 UV-I 44 W/m 2,0 C 3,2 C 0,0 km/h (0 Bft) 100,00 %
23.03.2016 06:56 3,2 C 92 % 1006,7 hPa 0,0 l/m 0,0 km/h (0 Bft) O-SO 119 0 min 0,000 mm 0,0 UV-I 45 W/m 2,0 C 3,2 C 0,0 km/h (0 Bft) 100,00 %
23.03.2016 06:57 3,2 C 92 % 1006,7 hPa 0,0 l/m 0,0 km/h (0 Bft) O-SO 119 0 min 0,000 mm 0,0 UV-I 46 W/m 2,0 C 3,2 C 0,0 km/h (0 Bft) 100,00 %
23.03.2016 06:58 3,2 C 92 % 1006,7 hPa 0,0 l/m 0,0 km/h (0 Bft) O-SO 119 0 min 0,000 mm 0,0 UV-I 47 W/m 2,0 C 3,2 C 0,0 km/h (0 Bft) 100,00 %
23.03.2016 06:59 3,3 C 92 % 1006,8 hPa 0,0 l/m 0,2 km/h (0 Bft) O-SO 119 0 min 0,000 mm 0,0 UV-I 47 W/m 2,1 C 3,3 C 1,6 km/h (1 Bft) 100,00 %
23.03.2016 07:00 3,3 C 92 % 1006,8 hPa 0,0 l/m 0,8 km/h (0 Bft) O-SO 119 0 min 0,000 mm 0,0 UV-I 49 W/m 2,1 C 3,3 C 1,6 km/h (1 Bft) 100,00 %
23.03.2016 07:01 3,3 C 92 % 1006,8 hPa 0,0 l/m 0,0 km/h (0 Bft) O-SO 119 0 min 0,000 mm 0,0 UV-I 50 W/m 2,1 C 3,3 C 0,0 km/h (0 Bft) 100,00 %
23.03.2016 07:02 3,3 C 92 % 1006,8 hPa 0,0 l/m 0,1 km/h (0 Bft) O-SO 119 0 min 0,000 mm 0,0 UV-I 51 W/m 2,1 C 3,3 C 1,6 km/h (1 Bft) 100,00 %
23.03.2016 07:03 3,3 C 92 % 1006,8 hPa 0,0 l/m 0,4 km/h (0 Bft) O-SO 119 0 min 0,000 mm 0,0 UV-I 52 W/m 2,1 C 3,3 C 1,6 km/h (1 Bft) 100,00 %
23.03.2016 07:04 3,3 C 92 % 1006,8 hPa 0,0 l/m 1,4 km/h (1 Bft) O-SO 119 0 min 0,000 mm 0,0 UV-I 54 W/m 2,1 C 3,3 C 1,6 km/h (1 Bft) 100,00 %
23.03.2016 07:05 3,3 C 92 % 1006,8 hPa 0,0 l/m 1,6 km/h (1 Bft) O-SO 119 0 min 0,000 mm 0,0 UV-I 54 W/m 2,1 C 3,3 C 1,6 km/h (1 Bft) 100,00 %
23.03.2016 07:06 3,3 C 92 % 1006,8 hPa 0,0 l/m 2,2 km/h (1 Bft) O-SO 119 0 min 0,000 mm 0,0 UV-I 57 W/m 2,1 C 3,3 C 3,2 km/h (1 Bft) 100,00 %
23.03.2016 07:07 3,4 C 92 % 1006,8 hPa 0,0 l/m 2,1 km/h (1 Bft) O-SO 119 0 min 0,000 mm 0,0 UV-I 58 W/m 2,2 C 3,4 C 3,2 km/h (1 Bft) 95,65 %
23.03.2016 07:08 3,4 C 92 % 1006,8 hPa 0,0 l/m 2,4 km/h (1 Bft) O-SO 119 0 min 0,000 mm 0,0 UV-I 59 W/m 2,2 C 3,4 C 3,2 km/h (1 Bft) 100,00 %
23.03.2016 07:09 3,4 C 91 % 1006,8 hPa 0,0 l/m 1,5 km/h (1 Bft) O-SO 119 0 min 0,000 mm 0,0 UV-I 62 W/m 2,1 C 3,4 C 1,6 km/h (1 Bft) 98,63 %
23.03.2016 07:10 3,4 C 91 % 1006,8 hPa 0,0 l/m 1,4 km/h (1 Bft) O-SO 119 0 min 0,000 mm 0,0 UV-I 63 W/m 2,1 C 3,4 C 3,2 km/h (1 Bft) 100,00 %
23.03.2016 07:11 3,4 C 91 % 1006,8 hPa 0,0 l/m 1,2 km/h (1 Bft) O-SO 119 0 min 0,000 mm 0,0 UV-I 67 W/m 2,1 C 3,4 C 1,6 km/h (1 Bft) 100,00 %
23.03.2016 07:12 3,4 C 91 % 1006,8 hPa 0,0 l/m 1,7 km/h (1 Bft) O-SO 119 0 min 0,000 mm 0,0 UV-I 69 W/m 2,1 C 3,4 C 3,2 km/h (1 Bft) 100,00 %
23.03.2016 07:13 3,4 C 91 % 1006,8 hPa 0,0 l/m 0,2 km/h (0 Bft) O-SO 119 0 min 0,000 mm 0,0 UV-I 70 W/m 2,1 C 3,4 C 1,6 km/h (1 Bft) 100,00 %
23.03.2016 07:14 3,4 C 91 % 1006,8 hPa 0,0 l/m 0,1 km/h (0 Bft) O-SO 119 0 min 0,000 mm 0,0 UV-I 70 W/m 2,1 C 3,4 C 1,6 km/h (1 Bft) 100,00 %
23.03.2016 07:15 3,4 C 91 % 1006,8 hPa 0,0 l/m 0,0 km/h (0 Bft) O-SO 119 0 min 0,000 mm 0,0 UV-I 70 W/m 2,1 C 3,4 C 0,0 km/h (0 Bft) 100,00 %
23.03.2016 07:16 3,5 C 91 % 1006,8 hPa 0,0 l/m 0,0 km/h (0 Bft) O-SO 119 0 min 0,000 mm 0,0 UV-I 70 W/m 2,2 C 3,5 C 0,0 km/h (0 Bft) 100,00 %
23.03.2016 07:17 3,5 C 91 % 1006,8 hPa 0,0 l/m 1,0 km/h (0 Bft) O-SO 119 0 min 0,000 mm 0,0 UV-I 72 W/m 2,2 C 3,5 C 3,2 km/h (1 Bft) 100,00 %
23.03.2016 07:18 3,6 C 91 % 1006,8 hPa 0,0 l/m 1,1 km/h (1 Bft) O-SO 119 0 min 0,000 mm 0,0 UV-I 72 W/m 2,3 C 3,6 C 1,6 km/h (1 Bft) 100,00 %
23.03.2016 07:19 3,6 C 91 % 1006,8 hPa 0,0 l/m 0,9 km/h (0 Bft) O-SO 119 0 min 0,000 mm 0,0 UV-I 73 W/m 2,3 C 3,6 C 1,6 km/h (1 Bft) 100,00 %
23.03.2016 07:20 3,6 C 91 % 1006,8 hPa 0,0 l/m 1,5 km/h (1 Bft) O-SO 119 0 min 0,000 mm 0,0 UV-I 74 W/m 2,3 C 3,6 C 1,6 km/h (1 Bft) 100,00 %
23.03.2016 07:21 3,6 C 91 % 1006,8 hPa 0,0 l/m 0,3 km/h (0 Bft) O-SO 119 0 min 0,000 mm 0,0 UV-I 75 W/m 2,3 C 3,6 C 1,6 km/h (1 Bft) 100,00 %
23.03.2016 07:22 3,6 C 91 % 1006,8 hPa 0,0 l/m 0,4 km/h (0 Bft) O-SO 119 0 min 0,000 mm 0,0 UV-I 76 W/m 2,3 C 3,6 C 1,6 km/h (1 Bft) 100,00 %
23.03.2016 07:23 3,6 C 91 % 1006,8 hPa 0,0 l/m 0,1 km/h (0 Bft) O-SO 119 0 min 0,000 mm 0,0 UV-I 76 W/m 2,3 C 3,6 C 1,6 km/h (1 Bft) 100,00 %
23.03.2016 07:24 3,6 C 91 % 1006,8 hPa 0,0 l/m 1,8 km/h (1 Bft) O-SO 119 0 min 0,000 mm 0,0 UV-I 76 W/m 2,3 C 3,6 C 3,2 km/h (1 Bft) 100,00 %
23.03.2016 07:25 3,6 C 91 % 1006,8 hPa 0,0 l/m 2,0 km/h (1 Bft) O-SO 119 0 min 0,000 mm 0,0 UV-I 76 W/m 2,3 C 3,6 C 3,2 km/h (1 Bft) 100,00 %
23.03.2016 07:26 3,6 C 90 % 1006,9 hPa 0,0 l/m 2,0 km/h (1 Bft) O-SO 119 0 min 0,000 mm 0,0 UV-I 76 W/m 2,1 C 3,6 C 3,2 km/h (1 Bft) 100,00 %
23.03.2016 07:27 3,6 C 91 % 1006,8 hPa 0,0 l/m 2,2 km/h (1 Bft) O-SO 119 0 min 0,000 mm 0,0 UV-I 76 W/m 2,3 C 3,6 C 3,2 km/h (1 Bft) 100,00 %
23.03.2016 07:28 3,6 C 90 % 1006,8 hPa 0,0 l/m 0,8 km/h (0 Bft) O-SO 119 0 min 0,000 mm 0,0 UV-I 76 W/m 2,1 C 3,6 C 1,6 km/h (1 Bft) 95,65 %
23.03.2016 07:29 3,7 C 90 % 1006,9 hPa 0,0 l/m 0,7 km/h (0 Bft) O-SO 119 0 min 0,000 mm 0,0 UV-I 76 W/m 2,2 C 3,7 C 1,6 km/h (1 Bft) 100,00 %
23.03.2016 07:30 3,6 C 90 % 1006,9 hPa 0,0 l/m 0,4 km/h (0 Bft) O-SO 119 0 min 0,000 mm 0,0 UV-I 77 W/m 2,1 C 3,6 C 1,6 km/h (1 Bft) 96,55 %
23.03.2016 07:31 3,6 C 90 % 1006,9 hPa 0,0 l/m 1,0 km/h (0 Bft) O-SO 119 0 min 0,000 mm 0,0 UV-I 78 W/m 2,1 C 3,6 C 1,6 km/h (1 Bft) 100,00 %
23.03.2016 07:32 3,7 C 90 % 1006,9 hPa 0,0 l/m 0,5 km/h (0 Bft) O-SO 119 0 min 0,000 mm 0,0 UV-I 80 W/m 2,2 C 3,7 C 1,6 km/h (1 Bft) 100,00 %
23.03.2016 07:33 3,7 C 90 % 1006,9 hPa 0,0 l/m 0,4 km/h (0 Bft) O-SO 119 0 min 0,000 mm 0,0 UV-I 83 W/m 2,2 C 3,7 C 1,6 km/h (1 Bft) 96,15 %
23.03.2016 07:34 3,7 C 90 % 1006,9 hPa 0,0 l/m 0,1 km/h (0 Bft) O-SO 119 0 min 0,000 mm 0,0 UV-I 84 W/m 2,2 C 3,7 C 1,6 km/h (1 Bft) 100,00 %
23.03.2016 07:35 3,7 C 90 % 1006,9 hPa 0,0 l/m 0,1 km/h (0 Bft) O-SO 119 0 min 0,000 mm 0,0 UV-I 86 W/m 2,2 C 3,7 C 1,6 km/h (1 Bft) 100,00 %
23.03.2016 07:36 3,7 C 91 % 1006,9 hPa 0,0 l/m 2,7 km/h (1 Bft) O-SO 119 0 min 0,000 mm 0,0 UV-I 86 W/m 2,4 C 3,7 C 3,2 km/h (1 Bft) 100,00 %
23.03.2016 07:37 3,7 C 91 % 1006,9 hPa 0,0 l/m 3,2 km/h (1 Bft) O-SO 119 0 min 0,000 mm 0,0 UV-I 87 W/m 2,4 C 3,7 C 4,8 km/h (1 Bft) 100,00 %
23.03.2016 07:38 3,8 C 91 % 1006,9 hPa 0,0 l/m 1,3 km/h (1 Bft) O-SO 119 0 min 0,000 mm 0,0 UV-I 88 W/m 2,5 C 3,8 C 3,2 km/h (1 Bft) 100,00 %
23.03.2016 07:39 3,8 C 90 % 1007,0 hPa 0,0 l/m 0,1 km/h (0 Bft) O-SO 119 0 min 0,000 mm 0,0 UV-I 90 W/m 2,3 C 3,8 C 1,6 km/h (1 Bft) 95,83 %
23.03.2016 07:40 3,8 C 90 % 1006,9 hPa 0,0 l/m 1,0 km/h (0 Bft) O-SO 119 0 min 0,000 mm 0,0 UV-I 91 W/m 2,3 C 3,8 C 3,2 km/h (1 Bft) 100,00 %
23.03.2016 07:41 3,8 C 90 % 1006,9 hPa 0,0 l/m 0,3 km/h (0 Bft) O-SO 119 0 min 0,000 mm 0,0 UV-I 96 W/m 2,3 C 3,8 C 1,6 km/h (1 Bft) 100,00 %
23.03.2016 07:42 3,8 C 90 % 1007,0 hPa 0,0 l/m 0,0 km/h (0 Bft) O-SO 119 0 min 0,000 mm 0,0 UV-I 99 W/m 2,3 C 3,8 C 0,0 km/h (0 Bft) 100,00 %
23.03.2016 07:43 3,8 C 89 % 1006,9 hPa 0,0 l/m 0,4 km/h (0 Bft) O-SO 119 0 min 0,000 mm 0,0 UV-I 102 W/m 2,2 C 3,8 C 1,6 km/h (1 Bft) 100,00 %
23.03.2016 07:44 3,8 C 90 % 1007,0 hPa 0,0 l/m 0,8 km/h (0 Bft) O-SO 119 0 min 0,000 mm 0,0 UV-I 105 W/m 2,3 C 3,8 C 1,6 km/h (1 Bft) 100,00 %
23.03.2016 07:45 3,9 C 90 % 1007,0 hPa 0,0 l/m 0,0 km/h (0 Bft) O-SO 119 0 min 0,000 mm 0,0 UV-I 106 W/m 2,4 C 3,9 C 0,0 km/h (0 Bft) 100,00 %
23.03.2016 07:46 3,9 C 90 % 1006,9 hPa 0,0 l/m 0,2 km/h (0 Bft) O-SO 119 0 min 0,000 mm 0,0 UV-I 109 W/m 2,4 C 3,9 C 1,6 km/h (1 Bft) 100,00 %
23.03.2016 07:47 3,9 C 89 % 1006,9 hPa 0,0 l/m 1,5 km/h (1 Bft) O-SO 119 0 min 0,000 mm 0,0 UV-I 109 W/m 2,3 C 3,9 C 3,2 km/h (1 Bft) 100,00 %
23.03.2016 07:48 3,9 C 90 % 1006,9 hPa 0,0 l/m 2,5 km/h (1 Bft) O-SO 119 0 min 0,000 mm 0,0 UV-I 109 W/m 2,4 C 3,9 C 3,2 km/h (1 Bft) 100,00 %
23.03.2016 07:49 4,0 C 89 % 1007,0 hPa 0,0 l/m 0,2 km/h (0 Bft) O-SO 119 0 min 0,000 mm 0,0 UV-I 109 W/m 2,4 C 4,0 C 1,6 km/h (1 Bft) 100,00 %
23.03.2016 07:50 4,1 C 89 % 1007,0 hPa 0,0 l/m 0,0 km/h (0 Bft) O-SO 119 0 min 0,000 mm 0,0 UV-I 109 W/m 2,5 C 4,1 C 0,0 km/h (0 Bft) 100,00 %
23.03.2016 07:51 4,1 C 89 % 1007,0 hPa 0,0 l/m 1,4 km/h (1 Bft) O-SO 119 0 min 0,000 mm 0,0 UV-I 107 W/m 2,5 C 4,1 C 3,2 km/h (1 Bft) 100,00 %
23.03.2016 07:52 4,1 C 88 % 1007,0 hPa 0,0 l/m 2,8 km/h (1 Bft) O-SO 119 0 min 0,000 mm 0,0 UV-I 107 W/m 2,3 C 4,1 C 4,8 km/h (1 Bft) 100,00 %
23.03.2016 07:53 4,1 C 88 % 1007,0 hPa 0,0 l/m 1,7 km/h (1 Bft) O-SO 119 0 min 0,000 mm 0,0 UV-I 105 W/m 2,3 C 4,1 C 3,2 km/h (1 Bft) 100,00 %
23.03.2016 07:54 4,1 C 88 % 1007,0 hPa 0,0 l/m 1,0 km/h (0 Bft) O-SO 119 0 min 0,000 mm 0,0 UV-I 103 W/m 2,3 C 4,1 C 3,2 km/h (1 Bft) 100,00 %
23.03.2016 07:55 4,1 C 88 % 1007,0 hPa 0,0 l/m 0,5 km/h (0 Bft) O-SO 119 0 min 0,000 mm 0,0 UV-I 102 W/m 2,3 C 4,1 C 1,6 km/h (1 Bft) 95,83 %
23.03.2016 07:56 4,1 C 88 % 1007,0 hPa 0,0 l/m 0,7 km/h (0 Bft) O-SO 119 0 min 0,000 mm 0,0 UV-I 101 W/m 2,3 C 4,1 C 1,6 km/h (1 Bft) 95,65 %
23.03.2016 07:57 4,1 C 88 % 1007,1 hPa 0,0 l/m 2,0 km/h (1 Bft) O-SO 119 0 min 0,000 mm 0,0 UV-I 98 W/m 2,3 C 4,1 C 3,2 km/h (1 Bft) 100,00 %
23.03.2016 07:58 4,1 C 88 % 1007,0 hPa 0,0 l/m 0,7 km/h (0 Bft) O-SO 119 0 min 0,000 mm 0,0 UV-I 98 W/m 2,3 C 4,1 C 3,2 km/h (1 Bft) 100,00 %
23.03.2016 07:59 4,1 C 88 % 1007,0 hPa 0,0 l/m 0,8 km/h (0 Bft) O-SO 119 0 min 0,000 mm 0,0 UV-I 98 W/m 2,3 C 4,1 C 3,2 km/h (1 Bft) 100,00 %
23.03.2016 08:00 4,1 C 88 % 1007,0 hPa 0,0 l/m 1,7 km/h (1 Bft) O-SO 119 0 min 0,025 mm 0,0 UV-I 99 W/m 2,3 C 4,1 C 3,2 km/h (1 Bft) 100,00 %
23.03.2016 08:02 4,2 C 87 % 1007,0 hPa 0,0 l/m 2,4 km/h (1 Bft) O-SO 119 0 min 0,000 mm 0,0 UV-I 103 W/m 2,2 C 4,2 C 3,2 km/h (1 Bft) 100,00 %
23.03.2016 08:03 4,2 C 87 % 1007,0 hPa 0,0 l/m 2,1 km/h (1 Bft) O-SO 119 0 min 0,000 mm 0,0 UV-I 105 W/m 2,2 C 4,2 C 3,2 km/h (1 Bft) 100,00 %
23.03.2016 08:04 4,2 C 88 % 1007,0 hPa 0,0 l/m 2,1 km/h (1 Bft) O-SO 119 0 min 0,000 mm 0,0 UV-I 111 W/m 2,4 C 4,2 C 3,2 km/h (1 Bft) 100,00 %
23.03.2016 08:05 4,2 C 87 % 1007,0 hPa 0,0 l/m 2,1 km/h (1 Bft) O-NO 72 0 min 0,000 mm 0,0 UV-I 115 W/m 2,2 C 4,2 C 4,8 km/h (1 Bft) 100,00 %
23.03.2016 08:06 4,2 C 88 % 1007,0 hPa 0,0 l/m 0,7 km/h (0 Bft) O-NO 72 0 min 0,000 mm 0,0 UV-I 120 W/m 2,4 C 4,2 C 1,6 km/h (1 Bft) 100,00 %
23.03.2016 08:07 4,2 C 88 % 1007,0 hPa 0,0 l/m 0,5 km/h (0 Bft) O-NO 72 0 min 0,000 mm 0,0 UV-I 122 W/m 2,4 C 4,2 C 1,6 km/h (1 Bft) 100,00 %
23.03.2016 08:08 4,2 C 88 % 1007,0 hPa 0,0 l/m 1,0 km/h (0 Bft) O-NO 72 0 min 0,000 mm 0,0 UV-I 124 W/m 2,4 C 4,2 C 1,6 km/h (1 Bft) 100,00 %
23.03.2016 08:09 4,2 C 87 % 1006,9 hPa 0,0 l/m 0,6 km/h (0 Bft) O-NO 72 0 min 0,000 mm 0,0 UV-I 125 W/m 2,2 C 4,2 C 1,6 km/h (1 Bft) 100,00 %
23.03.2016 08:10 4,2 C 87 % 1007,0 hPa 0,0 l/m 0,1 km/h (0 Bft) O-NO 72 0 min 0,000 mm 0,0 UV-I 123 W/m 2,2 C 4,2 C 1,6 km/h (1 Bft) 100,00 %
23.03.2016 08:11 4,3 C 87 % 1006,9 hPa 0,0 l/m 2,1 km/h (1 Bft) O-NO 69 0 min 0,000 mm 0,0 UV-I 123 W/m 2,3 C 4,3 C 4,8 km/h (1 Bft) 95,83 %
23.03.2016 08:12 4,3 C 88 % 1006,9 hPa 0,0 l/m 3,5 km/h (1 Bft) O-NO 67 0 min 0,000 mm 0,0 UV-I 124 W/m 2,5 C 4,3 C 4,8 km/h (1 Bft) 100,00 %
23.03.2016 08:13 4,3 C 88 % 1007,0 hPa 0,0 l/m 2,1 km/h (1 Bft) O-NO 67 0 min 0,000 mm 0,0 UV-I 125 W/m 2,5 C 4,3 C 3,2 km/h (1 Bft) 96,15 %
23.03.2016 08:14 4,3 C 87 % 1006,9 hPa 0,0 l/m 1,9 km/h (1 Bft) O-NO 67 0 min 0,000 mm 0,0 UV-I 126 W/m 2,3 C 4,3 C 3,2 km/h (1 Bft) 100,00 %
23.03.2016 08:15 4,3 C 87 % 1006,9 hPa 0,0 l/m 3,2 km/h (1 Bft) O-NO 66 0 min 0,000 mm 0,0 UV-I 127 W/m 2,3 C 4,3 C 6,4 km/h (2 Bft) 96,15 %
23.03.2016 08:16 4,4 C 87 % 1006,9 hPa 0,0 l/m 3,9 km/h (1 Bft) NO 56 0 min 0,000 mm 0,0 UV-I 127 W/m 2,4 C 4,4 C 4,8 km/h (1 Bft) 100,00 %
23.03.2016 08:17 4,4 C 86 % 1006,9 hPa 0,0 l/m 1,9 km/h (1 Bft) NO 56 0 min 0,000 mm 0,0 UV-I 129 W/m 2,3 C 4,4 C 3,2 km/h (1 Bft) 96,15 %
23.03.2016 08:18 4,4 C 86 % 1006,9 hPa 0,0 l/m 1,3 km/h (1 Bft) NO 56 0 min 0,000 mm 0,0 UV-I 130 W/m 2,3 C 4,4 C 1,6 km/h (1 Bft) 95,83 %
23.03.2016 08:19 4,4 C 87 % 1006,9 hPa 0,0 l/m 1,1 km/h (1 Bft) NO 56 0 min 0,000 mm 0,0 UV-I 135 W/m 2,4 C 4,4 C 3,2 km/h (1 Bft) 100,00 %
23.03.2016 08:20 4,5 C 87 % 1006,9 hPa 0,0 l/m 1,2 km/h (1 Bft) NO 53 0 min 0,000 mm 0,0 UV-I 141 W/m 2,5 C 4,5 C 3,2 km/h (1 Bft) 95,83 %
23.03.2016 08:21 4,5 C 86 % 1006,9 hPa 0,0 l/m 3,1 km/h (1 Bft) NO 53 0 min 0,000 mm 0,0 UV-I 142 W/m 2,4 C 4,5 C 4,8 km/h (1 Bft) 95,65 %
23.03.2016 08:22 4,5 C 85 % 1006,9 hPa 0,0 l/m 1,9 km/h (1 Bft) NO 53 0 min 0,000 mm 0,0 UV-I 151 W/m 2,2 C 4,5 C 3,2 km/h (1 Bft) 95,83 %
23.03.2016 08:23 4,5 C 85 % 1006,9 hPa 0,0 l/m 4,7 km/h (1 Bft) N-NO 22 0 min 0,000 mm 0,0 UV-I 154 W/m 2,2 C 4,5 C 6,4 km/h (2 Bft) 100,00 %
23.03.2016 08:24 4,5 C 85 % 1006,9 hPa 0,0 l/m 4,7 km/h (1 Bft) N-NO 25 0 min 0,000 mm 0,0 UV-I 155 W/m 2,2 C 4,5 C 6,4 km/h (2 Bft) 96,30 %
23.03.2016 08:25 4,6 C 86 % 1006,9 hPa 0,0 l/m 2,7 km/h (1 Bft) N-NO 25 0 min 0,000 mm 0,0 UV-I 156 W/m 2,5 C 4,6 C 4,8 km/h (1 Bft) 100,00 %
23.03.2016 08:26 4,6 C 86 % 1007,0 hPa 0,0 l/m 0,9 km/h (0 Bft) N-NO 25 0 min 0,000 mm 0,0 UV-I 159 W/m 2,5 C 4,6 C 1,6 km/h (1 Bft) 95,83 %
23.03.2016 08:27 4,6 C 86 % 1007,0 hPa 0,0 l/m 2,3 km/h (1 Bft) N-NO 25 0 min 0,000 mm 0,0 UV-I 164 W/m 2,5 C 4,6 C 6,4 km/h (2 Bft) 91,30 %
23.03.2016 08:28 4,6 C 86 % 1006,9 hPa 0,0 l/m 4,1 km/h (1 Bft) N-NO 29 0 min 0,000 mm 0,0 UV-I 173 W/m 2,5 C 4,6 C 4,8 km/h (1 Bft) 100,00 %
23.03.2016 08:29 4,7 C 86 % 1006,9 hPa 0,0 l/m 2,4 km/h (1 Bft) N-NO 29 0 min 0,000 mm 0,1 UV-I 181 W/m 2,6 C 4,7 C 4,8 km/h (1 Bft) 92,31 %
23.03.2016 08:30 4,7 C 86 % 1006,9 hPa 0,0 l/m 0,8 km/h (0 Bft) N-NO 18 0 min 0,000 mm 0,5 UV-I 189 W/m 2,6 C 4,7 C 1,6 km/h (1 Bft) 100,00 %
23.03.2016 08:31 4,8 C 85 % 1006,9 hPa 0,0 l/m 5,5 km/h (1 Bft) N-NO 28 0 min 0,000 mm 0,5 UV-I 195 W/m 2,5 C 4,8 C 8,0 km/h (2 Bft) 95,65 %
23.03.2016 08:32 4,8 C 85 % 1006,9 hPa 0,0 l/m 2,9 km/h (1 Bft) N-NO 27 0 min 0,000 mm 0,5 UV-I 199 W/m 2,5 C 4,8 C 4,8 km/h (1 Bft) 100,00 %
23.03.2016 08:33 4,8 C 85 % 1006,9 hPa 0,0 l/m 3,3 km/h (1 Bft) N-NO 17 0 min 0,000 mm 0,5 UV-I 204 W/m 2,5 C 4,8 C 4,8 km/h (1 Bft) 96,30 %
23.03.2016 08:34 4,8 C 84 % 1006,9 hPa 0,0 l/m 3,2 km/h (1 Bft) N-NO 29 0 min 0,000 mm 0,5 UV-I 204 W/m 2,3 C 4,8 C 4,8 km/h (1 Bft) 96,55 %
23.03.2016 08:35 4,9 C 84 % 1006,9 hPa 0,0 l/m 5,6 km/h (1 Bft) O-NO 58 0 min 0,000 mm 0,5 UV-I 204 W/m 2,4 C 4,9 C 8,0 km/h (2 Bft) 100,00 %
23.03.2016 08:36 4,8 C 83 % 1007,0 hPa 0,0 l/m 4,5 km/h (1 Bft) NO 54 0 min 0,000 mm 0,5 UV-I 204 W/m 2,2 C 4,8 C 6,4 km/h (2 Bft) 96,15 %
23.03.2016 08:37 4,8 C 84 % 1006,9 hPa 0,0 l/m 4,3 km/h (1 Bft) NO 40 0 min 0,000 mm 0,6 UV-I 204 W/m 2,3 C 4,8 C 6,4 km/h (2 Bft) 100,00 %
23.03.2016 08:38 4,8 C 82 % 1007,0 hPa 0,0 l/m 4,4 km/h (1 Bft) NO 40 0 min 0,000 mm 0,6 UV-I 202 W/m 2,0 C 4,8 C 4,8 km/h (1 Bft) 96,15 %
23.03.2016 08:39 4,8 C 83 % 1007,0 hPa 0,0 l/m 3,2 km/h (1 Bft) N-NO 32 0 min 0,000 mm 0,6 UV-I 198 W/m 2,2 C 4,8 C 4,8 km/h (1 Bft) 100,00 %
23.03.2016 08:40 4,9 C 84 % 1007,0 hPa 0,0 l/m 4,0 km/h (1 Bft) N-NO 33 0 min 0,000 mm 0,6 UV-I 192 W/m 2,4 C 4,9 C 4,8 km/h (1 Bft) 95,65 %
23.03.2016 08:41 4,9 C 84 % 1007,0 hPa 0,0 l/m 3,5 km/h (1 Bft) NO 36 0 min 0,000 mm 0,6 UV-I 188 W/m 2,4 C 4,9 C 6,4 km/h (2 Bft) 100,00 %
23.03.2016 08:42 4,9 C 83 % 1007,0 hPa 0,0 l/m 5,8 km/h (2 Bft) NO 49 0 min 0,000 mm 0,6 UV-I 185 W/m 2,3 C 4,9 C 8,0 km/h (2 Bft) 92,31 %
23.03.2016 08:43 4,9 C 83 % 1007,0 hPa 0,0 l/m 4,4 km/h (1 Bft) O-NO 57 0 min 0,000 mm 0,6 UV-I 187 W/m 2,3 C 4,9 C 6,4 km/h (2 Bft) 100,00 %
23.03.2016 08:44 4,9 C 82 % 1007,0 hPa 0,0 l/m 5,3 km/h (1 Bft) NO 47 0 min 0,000 mm 0,6 UV-I 194 W/m 2,1 C 4,9 C 6,4 km/h (2 Bft) 100,00 %
23.03.2016 08:45 4,9 C 83 % 1007,0 hPa 0,0 l/m 4,1 km/h (1 Bft) NO 47 0 min 0,000 mm 0,6 UV-I 207 W/m 2,3 C 4,9 C 4,8 km/h (1 Bft) 100,00 %
23.03.2016 08:46 4,9 C 83 % 1007,0 hPa 0,0 l/m 5,0 km/h (1 Bft) NO 51 0 min 0,000 mm 0,6 UV-I 221 W/m 2,3 C 4,9 C 6,4 km/h (2 Bft) 96,15 %
23.03.2016 08:47 4,9 C 82 % 1007,0 hPa 0,0 l/m 3,7 km/h (1 Bft) NO 51 0 min 0,000 mm 0,6 UV-I 229 W/m 2,1 C 4,9 C 4,8 km/h (1 Bft) 100,00 %
23.03.2016 08:48 4,9 C 84 % 1007,0 hPa 0,0 l/m 2,4 km/h (1 Bft) NO 51 0 min 0,000 mm 0,6 UV-I 234 W/m 2,4 C 4,9 C 4,8 km/h (1 Bft) 100,00 %
23.03.2016 08:49 5,1 C 85 % 1007,0 hPa 0,0 l/m 2,0 km/h (1 Bft) N 11 0 min 0,000 mm 0,6 UV-I 242 W/m 2,8 C 5,1 C 3,2 km/h (1 Bft) 100,00 %
23.03.2016 08:50 5,2 C 84 % 1007,0 hPa 0,0 l/m 4,6 km/h (1 Bft) N-NO 22 1 min 0,000 mm 0,7 UV-I 292 W/m 2,7 C 5,2 C 8,0 km/h (2 Bft) 100,00 %
23.03.2016 08:51 5,2 C 83 % 1007,0 hPa 0,0 l/m 4,2 km/h (1 Bft) NO 34 1 min 0,000 mm 0,7 UV-I 306 W/m 2,6 C 5,2 C 6,4 km/h (2 Bft) 91,67 %
23.03.2016 08:52 5,2 C 81 % 1007,0 hPa 0,0 l/m 6,8 km/h (2 Bft) NO 54 1 min 0,000 mm 0,7 UV-I 306 W/m 2,2 C 4,9 C 9,7 km/h (2 Bft) 100,00 %
23.03.2016 08:53 5,2 C 82 % 1007,0 hPa 0,0 l/m 5,6 km/h (1 Bft) NO 49 0 min 0,000 mm 0,7 UV-I 238 W/m 2,4 C 5,2 C 6,4 km/h (2 Bft) 100,00 %
23.03.2016 08:54 5,2 C 82 % 1007,0 hPa 0,0 l/m 5,6 km/h (1 Bft) NO 49 0 min 0,000 mm 0,7 UV-I 217 W/m 2,4 C 5,2 C 8,0 km/h (2 Bft) 95,65 %
23.03.2016 08:55 5,2 C 82 % 1006,9 hPa 0,0 l/m 5,6 km/h (1 Bft) NO 36 0 min 0,000 mm 0,7 UV-I 207 W/m 2,4 C 5,2 C 6,4 km/h (2 Bft) 100,00 %
23.03.2016 08:56 5,3 C 83 % 1006,9 hPa 0,0 l/m 6,4 km/h (2 Bft) N-NO 27 0 min 0,000 mm 0,7 UV-I 204 W/m 2,7 C 5,3 C 8,0 km/h (2 Bft) 100,00 %
23.03.2016 08:57 5,3 C 83 % 1006,9 hPa 0,0 l/m 8,1 km/h (2 Bft) N-NO 18 0 min 0,000 mm 0,7 UV-I 206 W/m 2,7 C 3,8 C 11,3 km/h (2 Bft) 96,55 %
23.03.2016 08:58 5,3 C 82 % 1006,9 hPa 0,0 l/m 5,0 km/h (1 Bft) N-NO 15 0 min 0,000 mm 0,7 UV-I 216 W/m 2,5 C 5,3 C 11,3 km/h (2 Bft) 100,00 %
23.03.2016 08:59 5,3 C 82 % 1006,9 hPa 0,0 l/m 4,9 km/h (1 Bft) NO 43 0 min 0,000 mm 0,7 UV-I 225 W/m 2,5 C 5,3 C 9,7 km/h (2 Bft) 91,30 %
23.03.2016 09:00 5,3 C 81 % 1006,9 hPa 0,0 l/m 6,4 km/h (2 Bft) N-NO 28 0 min 0,077 mm 0,8 UV-I 241 W/m 2,3 C 5,3 C 14,5 km/h (3 Bft) 100,00 %
23.03.2016 09:02 5,4 C 81 % 1006,9 hPa 0,0 l/m 8,8 km/h (2 Bft) NO 54 2 min 0,000 mm 0,8 UV-I 280 W/m 2,4 C 3,4 C 17,7 km/h (3 Bft) 100,00 %
23.03.2016 09:03 5,4 C 81 % 1006,9 hPa 0,0 l/m 6,2 km/h (2 Bft) N-NO 22 1 min 0,000 mm 0,8 UV-I 280 W/m 2,4 C 5,4 C 8,0 km/h (2 Bft) 100,00 %
23.03.2016 09:04 5,4 C 81 % 1006,9 hPa 0,0 l/m 6,8 km/h (2 Bft) NO 34 1 min 0,000 mm 0,8 UV-I 320 W/m 2,4 C 5,1 C 8,0 km/h (2 Bft) 100,00 %
23.03.2016 09:05 5,4 C 81 % 1006,8 hPa 0,0 l/m 3,1 km/h (1 Bft) N-NO 31 1 min 0,000 mm 0,9 UV-I 368 W/m 2,4 C 5,4 C 8,0 km/h (2 Bft) 95,65 %
23.03.2016 09:06 5,5 C 82 % 1006,8 hPa 0,0 l/m 0,6 km/h (0 Bft) N 350 1 min 0,000 mm 0,9 UV-I 397 W/m 2,7 C 5,5 C 1,6 km/h (1 Bft) 100,00 %
23.03.2016 09:07 5,6 C 81 % 1006,8 hPa 0,0 l/m 1,3 km/h (1 Bft) N-NO 15 1 min 0,000 mm 0,9 UV-I 327 W/m 2,6 C 5,6 C 3,2 km/h (1 Bft) 100,00 %
23.03.2016 09:08 5,6 C 81 % 1006,8 hPa 0,0 l/m 2,6 km/h (1 Bft) N 5 1 min 0,000 mm 0,9 UV-I 281 W/m 2,6 C 5,6 C 4,8 km/h (1 Bft) 95,83 %
23.03.2016 09:09 5,6 C 80 % 1006,8 hPa 0,0 l/m 0,9 km/h (0 Bft) N 5 0 min 0,000 mm 0,8 UV-I 247 W/m 2,4 C 5,6 C 1,6 km/h (1 Bft) 100,00 %
23.03.2016 09:10 5,6 C 81 % 1006,8 hPa 0,0 l/m 4,2 km/h (1 Bft) N-NO 22 0 min 0,000 mm 0,8 UV-I 231 W/m 2,6 C 5,6 C 8,0 km/h (2 Bft) 100,00 %
23.03.2016 09:11 5,6 C 82 % 1006,8 hPa 0,0 l/m 6,7 km/h (2 Bft) N-NO 27 0 min 0,000 mm 0,8 UV-I 223 W/m 2,8 C 5,4 C 9,7 km/h (2 Bft) 100,00 %
23.03.2016 09:12 5,6 C 81 % 1006,8 hPa 0,0 l/m 8,3 km/h (2 Bft) N-NO 23 0 min 0,000 mm 0,8 UV-I 219 W/m 2,6 C 4,0 C 12,9 km/h (3 Bft) 100,00 %
23.03.2016 09:13 5,6 C 81 % 1006,8 hPa 0,0 l/m 11,2 km/h (2 Bft) N-NO 26 0 min 0,000 mm 0,8 UV-I 221 W/m 2,6 C 1,9 C 16,1 km/h (3 Bft) 92,59 %
23.03.2016 09:14 5,6 C 82 % 1006,8 hPa 0,0 l/m 10,8 km/h (2 Bft) N-NO 26 0 min 0,000 mm 0,9 UV-I 232 W/m 2,8 C 2,2 C 14,5 km/h (3 Bft) 100,00 %
23.03.2016 09:15 5,6 C 82 % 1006,8 hPa 0,0 l/m 7,2 km/h (2 Bft) N-NO 13 0 min 0,000 mm 0,9 UV-I 245 W/m 2,8 C 4,9 C 14,5 km/h (3 Bft) 96,30 %
23.03.2016 09:16 5,6 C 81 % 1006,9 hPa 0,0 l/m 7,9 km/h (2 Bft) N-NO 26 0 min 0,000 mm 0,9 UV-I 252 W/m 2,6 C 4,3 C 12,9 km/h (3 Bft) 100,00 %
23.03.2016 09:17 5,7 C 80 % 1006,8 hPa 0,0 l/m 7,9 km/h (2 Bft) N 360 0 min 0,000 mm 0,9 UV-I 256 W/m 2,5 C 4,4 C 12,9 km/h (3 Bft) 100,00 %
23.03.2016 09:18 5,6 C 80 % 1006,8 hPa 0,0 l/m 4,7 km/h (1 Bft) N-NO 18 0 min 0,000 mm 0,9 UV-I 257 W/m 2,4 C 5,6 C 11,3 km/h (2 Bft) 100,00 %
23.03.2016 09:19 5,6 C 81 % 1006,9 hPa 0,0 l/m 6,3 km/h (2 Bft) N 10 0 min 0,000 mm 0,9 UV-I 254 W/m 2,6 C 5,6 C 11,3 km/h (2 Bft) 100,00 %
23.03.2016 09:20 5,7 C 81 % 1006,8 hPa 0,0 l/m 10,5 km/h (2 Bft) N-NO 13 0 min 0,000 mm 0,9 UV-I 247 W/m 2,7 C 2,5 C 14,5 km/h (3 Bft) 100,00 %
23.03.2016 09:21 5,7 C 81 % 1006,9 hPa 0,0 l/m 9,1 km/h (2 Bft) N-NO 13 0 min 0,000 mm 0,9 UV-I 239 W/m 2,7 C 3,5 C 12,9 km/h (3 Bft) 100,00 %
23.03.2016 09:22 5,7 C 81 % 1006,9 hPa 0,0 l/m 8,0 km/h (2 Bft) N-NO 17 0 min 0,000 mm 0,9 UV-I 228 W/m 2,7 C 4,3 C 14,5 km/h (3 Bft) 100,00 %
23.03.2016 09:23 5,7 C 80 % 1006,8 hPa 0,0 l/m 12,0 km/h (2 Bft) NO 36 0 min 0,000 mm 0,9 UV-I 222 W/m 2,5 C 1,6 C 16,1 km/h (3 Bft) 100,00 %
23.03.2016 09:24 5,6 C 80 % 1006,9 hPa 0,0 l/m 8,0 km/h (2 Bft) N-NO 22 0 min 0,000 mm 0,9 UV-I 220 W/m 2,4 C 4,2 C 9,7 km/h (2 Bft) 100,00 %
23.03.2016 09:25 5,6 C 80 % 1006,9 hPa 0,0 l/m 12,2 km/h (2 Bft) NO 44 0 min 0,000 mm 0,9 UV-I 218 W/m 2,4 C 1,3 C 16,1 km/h (3 Bft) 100,00 %
23.03.2016 09:26 5,6 C 80 % 1006,9 hPa 0,0 l/m 9,4 km/h (2 Bft) NO 48 0 min 0,000 mm 0,9 UV-I 216 W/m 2,4 C 3,2 C 12,9 km/h (3 Bft) 100,00 %
23.03.2016 09:27 5,6 C 79 % 1006,9 hPa 0,0 l/m 8,4 km/h (2 Bft) NO 44 0 min 0,000 mm 0,9 UV-I 214 W/m 2,3 C 3,9 C 12,9 km/h (3 Bft) 100,00 %
23.03.2016 09:28 5,6 C 80 % 1006,9 hPa 0,0 l/m 6,8 km/h (2 Bft) NO 47 0 min 0,000 mm 0,9 UV-I 212 W/m 2,4 C 5,3 C 9,7 km/h (2 Bft) 100,00 %
23.03.2016 09:29 5,6 C 78 % 1006,9 hPa 0,0 l/m 4,6 km/h (1 Bft) N-NO 29 0 min 0,000 mm 0,9 UV-I 209 W/m 2,1 C 5,6 C 8,0 km/h (2 Bft) 100,00 %
23.03.2016 09:30 5,6 C 79 % 1006,9 hPa 0,0 l/m 5,6 km/h (1 Bft) NO 46 0 min 0,000 mm 0,9 UV-I 205 W/m 2,3 C 5,6 C 8,0 km/h (2 Bft) 100,00 %
23.03.2016 09:31 5,6 C 79 % 1006,9 hPa 0,0 l/m 6,3 km/h (2 Bft) O-NO 60 0 min 0,000 mm 0,9 UV-I 200 W/m 2,3 C 5,6 C 12,9 km/h (3 Bft) 100,00 %
23.03.2016 09:32 5,6 C 79 % 1006,9 hPa 0,0 l/m 8,0 km/h (2 Bft) O-NO 65 0 min 0,000 mm 0,9 UV-I 199 W/m 2,3 C 4,2 C 14,5 km/h (3 Bft) 100,00 %
23.03.2016 09:33 5,6 C 78 % 1006,9 hPa 0,0 l/m 8,3 km/h (2 Bft) O 82 0 min 0,000 mm 0,9 UV-I 197 W/m 2,1 C 4,0 C 12,9 km/h (3 Bft) 100,00 %
23.03.2016 09:34 5,6 C 78 % 1006,9 hPa 0,0 l/m 13,1 km/h (3 Bft) O-NO 67 0 min 0,000 mm 0,9 UV-I 198 W/m 2,1 C 0,8 C 17,7 km/h (3 Bft) 100,00 %
23.03.2016 09:35 5,6 C 77 % 1006,9 hPa 0,0 l/m 10,9 km/h (2 Bft) O-NO 61 0 min 0,000 mm 0,9 UV-I 200 W/m 1,9 C 2,1 C 17,7 km/h (3 Bft) 100,00 %
23.03.2016 09:36 5,5 C 78 % 1006,9 hPa 0,0 l/m 8,5 km/h (2 Bft) NO 51 0 min 0,000 mm 0,9 UV-I 203 W/m 2,0 C 3,7 C 11,3 km/h (2 Bft) 100,00 %
23.03.2016 09:37 5,6 C 77 % 1006,9 hPa 0,0 l/m 9,3 km/h (2 Bft) O-NO 71 0 min 0,000 mm 0,9 UV-I 209 W/m 1,9 C 3,2 C 16,1 km/h (3 Bft) 100,00 %
23.03.2016 09:38 5,5 C 77 % 1006,9 hPa 0,0 l/m 10,6 km/h (2 Bft) NO 49 0 min 0,000 mm 1,0 UV-I 221 W/m 1,8 C 2,2 C 14,5 km/h (3 Bft) 100,00 %
23.03.2016 09:39 5,5 C 77 % 1006,9 hPa 0,0 l/m 10,8 km/h (2 Bft) NO 50 0 min 0,000 mm 1,0 UV-I 234 W/m 1,8 C 2,1 C 16,1 km/h (3 Bft) 100,00 %
23.03.2016 09:40 5,5 C 76 % 1006,9 hPa 0,0 l/m 10,7 km/h (2 Bft) O-NO 57 0 min 0,000 mm 1,0 UV-I 254 W/m 1,6 C 2,2 C 14,5 km/h (3 Bft) 96,30 %
23.03.2016 09:41 5,5 C 76 % 1006,9 hPa 0,0 l/m 8,5 km/h (2 Bft) O-NO 58 0 min 0,000 mm 1,1 UV-I 282 W/m 1,6 C 3,7 C 11,3 km/h (2 Bft) 100,00 %
23.03.2016 09:42 5,5 C 77 % 1006,9 hPa 0,0 l/m 7,4 km/h (2 Bft) O-NO 77 1 min 0,000 mm 1,2 UV-I 311 W/m 1,8 C 4,6 C 11,3 km/h (2 Bft) 100,00 %
23.03.2016 09:43 5,5 C 77 % 1006,9 hPa 0,0 l/m 8,0 km/h (2 Bft) NO 51 1 min 0,000 mm 1,2 UV-I 341 W/m 1,8 C 4,1 C 11,3 km/h (2 Bft) 96,15 %
23.03.2016 09:44 5,6 C 77 % 1006,9 hPa 0,0 l/m 6,1 km/h (2 Bft) O-NO 66 1 min 0,000 mm 1,2 UV-I 351 W/m 1,9 C 5,6 C 8,0 km/h (2 Bft) 100,00 %
23.03.2016 09:45 5,6 C 77 % 1006,9 hPa 0,0 l/m 5,4 km/h (1 Bft) O-NO 76 1 min 0,000 mm 1,3 UV-I 365 W/m 1,9 C 5,6 C 8,0 km/h (2 Bft) 92,31 %
23.03.2016 09:46 5,6 C 78 % 1006,9 hPa 0,0 l/m 5,2 km/h (1 Bft) O 87 1 min 0,000 mm 1,3 UV-I 359 W/m 2,1 C 5,6 C 6,4 km/h (2 Bft) 100,00 %
23.03.2016 09:47 5,7 C 79 % 1006,8 hPa 0,0 l/m 7,8 km/h (2 Bft) O-NO 75 1 min 0,000 mm 1,3 UV-I 326 W/m 2,3 C 4,5 C 12,9 km/h (3 Bft) 100,00 %
23.03.2016 09:48 5,8 C 77 % 1006,8 hPa 0,0 l/m 7,2 km/h (2 Bft) O-NO 62 0 min 0,000 mm 1,2 UV-I 297 W/m 2,1 C 5,1 C 9,7 km/h (2 Bft) 100,00 %
23.03.2016 09:49 5,8 C 79 % 1006,9 hPa 0,0 l/m 8,6 km/h (2 Bft) NO 55 0 min 0,000 mm 1,2 UV-I 272 W/m 2,4 C 4,0 C 12,9 km/h (3 Bft) 100,00 %
23.03.2016 09:50 5,9 C 78 % 1006,8 hPa 0,0 l/m 8,9 km/h (2 Bft) NO 46 0 min 0,000 mm 1,2 UV-I 274 W/m 2,4 C 3,9 C 9,7 km/h (2 Bft) 100,00 %
23.03.2016 09:51 5,9 C 78 % 1006,8 hPa 0,0 l/m 7,3 km/h (2 Bft) O-NO 78 0 min 0,000 mm 1,3 UV-I 292 W/m 2,4 C 5,1 C 12,9 km/h (3 Bft) 100,00 %
23.03.2016 09:52 5,9 C 77 % 1006,8 hPa 0,0 l/m 8,7 km/h (2 Bft) O-NO 63 1 min 0,000 mm 1,3 UV-I 330 W/m 2,2 C 4,0 C 12,9 km/h (3 Bft) 100,00 %
23.03.2016 09:53 5,8 C 76 % 1006,8 hPa 0,0 l/m 7,0 km/h (2 Bft) NO 44 1 min 0,000 mm 1,4 UV-I 362 W/m 1,9 C 5,3 C 12,9 km/h (3 Bft) 100,00 %
23.03.2016 09:54 5,8 C 76 % 1006,8 hPa 0,0 l/m 6,2 km/h (2 Bft) O-NO 59 1 min 0,000 mm 1,5 UV-I 412 W/m 1,9 C 5,8 C 8,0 km/h (2 Bft) 100,00 %
23.03.2016 09:55 5,8 C 77 % 1006,8 hPa 0,0 l/m 10,3 km/h (2 Bft) O-NO 76 1 min 0,000 mm 1,6 UV-I 442 W/m 2,1 C 2,8 C 16,1 km/h (3 Bft) 100,00 %
23.03.2016 09:56 5,8 C 76 % 1006,8 hPa 0,0 l/m 13,6 km/h (3 Bft) O-NO 76 1 min 0,000 mm 1,7 UV-I 571 W/m 1,9 C 0,8 C 16,1 km/h (3 Bft) 100,00 %
23.03.2016 09:57 5,9 C 76 % 1006,8 hPa 0,0 l/m 8,4 km/h (2 Bft) NO 49 1 min 0,000 mm 1,7 UV-I 579 W/m 2,0 C 4,2 C 14,5 km/h (3 Bft) 100,00 %
23.03.2016 09:58 5,9 C 76 % 1006,8 hPa 0,0 l/m 7,8 km/h (2 Bft) NO 53 1 min 0,000 mm 1,7 UV-I 591 W/m 2,0 C 4,7 C 12,9 km/h (3 Bft) 98,75 %
23.03.2016 09:59 6,0 C 77 % 1006,8 hPa 0,0 l/m 9,3 km/h (2 Bft) O-NO 57 1 min 0,000 mm 1,7 UV-I 555 W/m 2,3 C 3,7 C 12,9 km/h (3 Bft) 100,00 %
23.03.2016 10:00 6,1 C 77 % 1006,7 hPa 0,0 l/m 9,3 km/h (2 Bft) O-NO 68 1 min 0,000 mm 1,5 UV-I 527 W/m 2,4 C 3,8 C 14,5 km/h (3 Bft) 96,15 %
23.03.2016 10:01 6,1 C 77 % 1006,8 hPa 0,0 l/m 12,1 km/h (2 Bft) O-NO 67 0 min 0,127 mm 1,4 UV-I 315 W/m 2,4 C 2,0 C 17,7 km/h (3 Bft) 100,00 %
23.03.2016 10:02 6,1 C 77 % 1006,8 hPa 0,0 l/m 9,5 km/h (2 Bft) O 93 0 min 0,000 mm 1,4 UV-I 293 W/m 2,4 C 3,6 C 14,5 km/h (3 Bft) 95,65 %
23.03.2016 10:03 6,1 C 78 % 1006,8 hPa 0,0 l/m 11,4 km/h (2 Bft) O-NO 77 0 min 0,000 mm 1,4 UV-I 291 W/m 2,6 C 2,4 C 14,5 km/h (3 Bft) 100,00 %
23.03.2016 10:04 6,1 C 76 % 1006,8 hPa 0,0 l/m 7,4 km/h (2 Bft) O-NO 65 0 min 0,000 mm 1,4 UV-I 310 W/m 2,2 C 5,3 C 12,9 km/h (3 Bft) 95,65 %
23.03.2016 10:05 6,0 C 77 % 1006,8 hPa 0,0 l/m 9,5 km/h (2 Bft) O 84 1 min 0,000 mm 1,4 UV-I 330 W/m 2,3 C 3,5 C 12,9 km/h (3 Bft) 100,00 %
23.03.2016 10:06 5,9 C 77 % 1006,8 hPa 0,0 l/m 7,0 km/h (2 Bft) O 90 0 min 0,000 mm 1,5 UV-I 324 W/m 2,2 C 5,4 C 11,3 km/h (2 Bft) 95,65 %
23.03.2016 10:07 5,9 C 78 % 1006,8 hPa 0,0 l/m 10,5 km/h (2 Bft) O-NO 66 1 min 0,000 mm 1,5 UV-I 360 W/m 2,4 C 2,7 C 16,1 km/h (3 Bft) 100,00 %
23.03.2016 10:08 5,9 C 78 % 1006,8 hPa 0,0 l/m 6,9 km/h (2 Bft) NO 55 1 min 0,000 mm 1,5 UV-I 351 W/m 2,4 C 5,5 C 11,3 km/h (2 Bft) 95,65 %
23.03.2016 10:09 5,9 C 78 % 1006,8 hPa 0,0 l/m 5,9 km/h (2 Bft) O-NO 78 1 min 0,000 mm 1,7 UV-I 415 W/m 2,4 C 5,9 C 8,0 km/h (2 Bft) 96,30 %
23.03.2016 10:10 5,9 C 78 % 1006,8 hPa 0,0 l/m 3,0 km/h (1 Bft) O-NO 58 1 min 0,000 mm 1,8 UV-I 535 W/m 2,4 C 5,9 C 4,8 km/h (1 Bft) 100,00 %
23.03.2016 10:11 6,1 C 79 % 1006,7 hPa 0,0 l/m 7,4 km/h (2 Bft) O-NO 67 1 min 0,000 mm 1,7 UV-I 643 W/m 2,7 C 5,3 C 9,7 km/h (2 Bft) 96,55 %
23.03.2016 10:12 6,2 C 78 % 1006,8 hPa 0,0 l/m 9,9 km/h (2 Bft) O-NO 66 1 min 0,000 mm 1,6 UV-I 415 W/m 2,7 C 3,5 C 12,9 km/h (3 Bft) 100,00 %
23.03.2016 10:13 6,2 C 78 % 1006,8 hPa 0,0 l/m 8,4 km/h (2 Bft) SO 125 1 min 0,000 mm 1,6 UV-I 417 W/m 2,7 C 4,6 C 11,3 km/h (2 Bft) 96,30 %
23.03.2016 10:14 6,2 C 77 % 1006,8 hPa 0,0 l/m 4,2 km/h (1 Bft) SO 132 1 min 0,000 mm 1,7 UV-I 387 W/m 2,5 C 6,2 C 8,0 km/h (2 Bft) 100,00 %
23.03.2016 10:15 6,3 C 77 % 1006,8 hPa 0,0 l/m 5,0 km/h (1 Bft) O-NO 62 1 min 0,000 mm 1,5 UV-I 337 W/m 2,6 C 6,3 C 8,0 km/h (2 Bft) 91,67 %
23.03.2016 10:16 6,3 C 76 % 1006,8 hPa 0,0 l/m 7,2 km/h (2 Bft) NO 52 1 min 0,000 mm 1,6 UV-I 392 W/m 2,4 C 5,6 C 11,3 km/h (2 Bft) 100,00 %
23.03.2016 10:17 6,3 C 75 % 1006,8 hPa 0,0 l/m 10,5 km/h (2 Bft) NO 49 1 min 0,000 mm 1,7 UV-I 426 W/m 2,2 C 3,2 C 14,5 km/h (3 Bft) 95,65 %
23.03.2016 10:18 6,3 C 75 % 1006,8 hPa 0,0 l/m 6,2 km/h (2 Bft) NO 56 1 min 0,000 mm 1,8 UV-I 436 W/m 2,2 C 6,3 C 8,0 km/h (2 Bft) 92,59 %
23.03.2016 10:19 6,3 C 75 % 1006,7 hPa 0,0 l/m 7,1 km/h (2 Bft) O-NO 66 1 min 0,000 mm 1,7 UV-I 464 W/m 2,2 C 5,7 C 9,7 km/h (2 Bft) 100,00 %
23.03.2016 10:20 6,4 C 77 % 1006,7 hPa 0,0 l/m 7,0 km/h (2 Bft) NO 54 1 min 0,000 mm 1,7 UV-I 408 W/m 2,7 C 5,9 C 11,3 km/h (2 Bft) 95,83 %
23.03.2016 10:21 6,5 C 77 % 1006,7 hPa 0,0 l/m 7,6 km/h (2 Bft) O 94 1 min 0,000 mm 1,7 UV-I 389 W/m 2,8 C 5,5 C 12,9 km/h (3 Bft) 100,00 %
23.03.2016 10:22 6,6 C 76 % 1006,7 hPa 0,0 l/m 5,7 km/h (1 Bft) O 89 1 min 0,000 mm 1,6 UV-I 396 W/m 2,7 C 6,6 C 9,7 km/h (2 Bft) 95,83 %
23.03.2016 10:23 6,6 C 76 % 1006,7 hPa 0,0 l/m 7,3 km/h (2 Bft) O-NO 77 1 min 0,000 mm 1,7 UV-I 395 W/m 2,7 C 5,8 C 9,7 km/h (2 Bft) 92,86 %
23.03.2016 10:24 6,5 C 75 % 1006,7 hPa 0,0 l/m 5,7 km/h (1 Bft) NO 47 1 min 0,000 mm 1,8 UV-I 440 W/m 2,4 C 6,5 C 6,4 km/h (2 Bft) 95,83 %
23.03.2016 10:25 6,5 C 76 % 1006,7 hPa 0,0 l/m 6,5 km/h (2 Bft) SO 144 1 min 0,000 mm 1,7 UV-I 400 W/m 2,6 C 6,4 C 9,7 km/h (2 Bft) 100,00 %
23.03.2016 10:26 6,4 C 74 % 1006,7 hPa 0,0 l/m 5,4 km/h (1 Bft) O-SO 115 1 min 0,000 mm 1,7 UV-I 414 W/m 2,1 C 6,4 C 9,7 km/h (2 Bft) 96,30 %
23.03.2016 10:27 6,4 C 74 % 1006,7 hPa 0,0 l/m 2,4 km/h (1 Bft) SO 134 1 min 0,000 mm 1,7 UV-I 395 W/m 2,1 C 6,4 C 4,8 km/h (1 Bft) 95,65 %
23.03.2016 10:28 6,3 C 75 % 1006,7 hPa 0,0 l/m 3,6 km/h (1 Bft) SO 142 1 min 0,000 mm 1,8 UV-I 438 W/m 2,2 C 6,3 C 6,4 km/h (2 Bft) 98,65 %
23.03.2016 10:29 6,4 C 76 % 1006,7 hPa 0,0 l/m 5,7 km/h (1 Bft) O-SO 117 1 min 0,000 mm 1,9 UV-I 474 W/m 2,5 C 6,4 C 12,9 km/h (3 Bft) 97,56 %
23.03.2016 10:30 6,5 C 75 % 1006,6 hPa 0,0 l/m 9,4 km/h (2 Bft) O-SO 119 1 min 0,000 mm 1,8 UV-I 467 W/m 2,4 C 4,1 C 14,5 km/h (3 Bft) 100,00 %
23.03.2016 10:31 6,5 C 75 % 1006,6 hPa 0,0 l/m 11,3 km/h (2 Bft) O-SO 121 1 min 0,000 mm 1,8 UV-I 441 W/m 2,4 C 2,9 C 12,9 km/h (3 Bft) 96,15 %
23.03.2016 10:32 6,4 C 74 % 1006,6 hPa 0,0 l/m 6,7 km/h (2 Bft) S-SO 150 1 min 0,000 mm 1,8 UV-I 377 W/m 2,1 C 6,2 C 11,3 km/h (2 Bft) 100,00 %
23.03.2016 10:33 6,3 C 74 % 1006,7 hPa 0,0 l/m 2,3 km/h (1 Bft) S-SO 155 1 min 0,000 mm 1,7 UV-I 355 W/m 2,0 C 6,3 C 4,8 km/h (1 Bft) 100,00 %
23.03.2016 10:34 6,3 C 75 % 1006,6 hPa 0,0 l/m 0,8 km/h (0 Bft) S-SO 155 0 min 0,000 mm 1,7 UV-I 341 W/m 2,2 C 6,3 C 1,6 km/h (1 Bft) 100,00 %
23.03.2016 10:35 6,2 C 75 % 1006,6 hPa 0,0 l/m 1,5 km/h (1 Bft) SO 134 0 min 0,000 mm 1,7 UV-I 344 W/m 2,1 C 6,2 C 3,2 km/h (1 Bft) 100,00 %
23.03.2016 10:36 6,3 C 78 % 1006,7 hPa 0,0 l/m 7,8 km/h (2 Bft) SO 130 1 min 0,000 mm 1,8 UV-I 370 W/m 2,8 C 5,1 C 11,3 km/h (2 Bft) 97,37 %
23.03.2016 10:37 6,4 C 77 % 1006,6 hPa 0,0 l/m 6,6 km/h (2 Bft) SO 128 0 min 0,000 mm 1,7 UV-I 346 W/m 2,7 C 6,3 C 9,7 km/h (2 Bft) 100,00 %
23.03.2016 10:38 6,4 C 76 % 1006,6 hPa 0,0 l/m 3,0 km/h (1 Bft) S 171 1 min 0,000 mm 2,0 UV-I 438 W/m 2,5 C 6,4 C 3,2 km/h (1 Bft) 92,86 %
23.03.2016 10:39 6,5 C 74 % 1006,6 hPa 0,0 l/m 4,0 km/h (1 Bft) S-SO 149 1 min 0,000 mm 2,0 UV-I 537 W/m 2,2 C 6,5 C 6,4 km/h (2 Bft) 100,00 %
23.03.2016 10:40 6,5 C 75 % 1006,5 hPa 0,0 l/m 6,3 km/h (2 Bft) O-SO 103 1 min 0,000 mm 1,8 UV-I 508 W/m 2,4 C 6,5 C 11,3 km/h (2 Bft) 100,00 %
23.03.2016 10:41 6,6 C 75 % 1006,6 hPa 0,0 l/m 4,9 km/h (1 Bft) O-NO 64 1 min 0,000 mm 1,8 UV-I 401 W/m 2,5 C 6,6 C 6,4 km/h (2 Bft) 100,00 %
23.03.2016 10:42 6,6 C 76 % 1006,6 hPa 0,0 l/m 2,3 km/h (1 Bft) O-NO 67 1 min 0,000 mm 2,0 UV-I 380 W/m 2,7 C 6,6 C 6,4 km/h (2 Bft) 100,00 %
23.03.2016 10:43 6,6 C 75 % 1006,5 hPa 0,0 l/m 1,8 km/h (1 Bft) S-SW 199 1 min 0,000 mm 2,2 UV-I 472 W/m 2,5 C 6,6 C 8,0 km/h (2 Bft) 100,00 %
23.03.2016 10:44 6,7 C 75 % 1006,5 hPa 0,0 l/m 9,4 km/h (2 Bft) S 172 1 min 0,000 mm 2,2 UV-I 650 W/m 2,6 C 4,4 C 11,3 km/h (2 Bft) 100,00 %
23.03.2016 10:45 6,7 C 76 % 1006,5 hPa 0,0 l/m 5,6 km/h (1 Bft) SW 218 1 min 0,000 mm 2,2 UV-I 667 W/m 2,8 C 6,7 C 11,3 km/h (2 Bft) 100,00 %
23.03.2016 10:46 6,7 C 76 % 1006,6 hPa 0,0 l/m 4,2 km/h (1 Bft) S-SO 159 1 min 0,000 mm 2,3 UV-I 668 W/m 2,8 C 6,7 C 11,3 km/h (2 Bft) 100,00 %
23.03.2016 10:47 6,7 C 75 % 1006,6 hPa 0,0 l/m 2,1 km/h (1 Bft) S 169 1 min 0,000 mm 2,3 UV-I 658 W/m 2,6 C 6,7 C 4,8 km/h (1 Bft) 100,00 %
23.03.2016 10:48 6,8 C 78 % 1006,5 hPa 0,0 l/m 5,1 km/h (1 Bft) NO 40 1 min 0,000 mm 2,3 UV-I 655 W/m 3,2 C 6,8 C 9,7 km/h (2 Bft) 96,15 %
23.03.2016 10:49 7,1 C 77 % 1006,6 hPa 0,0 l/m 3,9 km/h (1 Bft) N-NO 30 1 min 0,000 mm 2,3 UV-I 663 W/m 3,3 C 7,1 C 4,8 km/h (1 Bft) 100,00 %
23.03.2016 10:50 7,2 C 75 % 1006,5 hPa 0,0 l/m 5,0 km/h (1 Bft) O-SO 113 1 min 0,000 mm 2,3 UV-I 671 W/m 3,1 C 7,2 C 9,7 km/h (2 Bft) 100,00 %
23.03.2016 10:51 7,2 C 72 % 1006,5 hPa 0,0 l/m 6,2 km/h (2 Bft) O 92 1 min 0,000 mm 2,4 UV-I 683 W/m 2,5 C 7,2 C 9,7 km/h (2 Bft) 100,00 %
23.03.2016 10:52 7,1 C 73 % 1006,5 hPa 0,0 l/m 4,7 km/h (1 Bft) N-NO 30 1 min 0,000 mm 2,4 UV-I 700 W/m 2,6 C 7,1 C 8,0 km/h (2 Bft) 100,00 %
23.03.2016 10:53 7,0 C 73 % 1006,5 hPa 0,0 l/m 7,8 km/h (2 Bft) O-NO 67 1 min 0,000 mm 2,5 UV-I 711 W/m 2,5 C 5,9 C 12,9 km/h (3 Bft) 95,65 %
23.03.2016 10:54 7,1 C 73 % 1006,4 hPa 0,0 l/m 7,3 km/h (2 Bft) O-NO 57 1 min 0,000 mm 2,5 UV-I 729 W/m 2,6 C 6,4 C 12,9 km/h (3 Bft) 93,33 %
23.03.2016 10:55 7,2 C 74 % 1006,4 hPa 0,0 l/m 5,0 km/h (1 Bft) NO 54 1 min 0,000 mm 2,5 UV-I 746 W/m 2,9 C 7,2 C 6,4 km/h (2 Bft) 100,00 %
23.03.2016 10:56 7,2 C 72 % 1006,4 hPa 0,0 l/m 7,2 km/h (2 Bft) NO 51 1 min 0,000 mm 2,5 UV-I 756 W/m 2,5 C 6,5 C 9,7 km/h (2 Bft) 100,00 %
23.03.2016 10:57 7,5 C 76 % 1006,4 hPa 0,0 l/m 7,2 km/h (2 Bft) NO 52 1 min 0,000 mm 2,6 UV-I 777 W/m 3,5 C 6,9 C 9,7 km/h (2 Bft) 100,00 %
23.03.2016 10:58 7,8 C 74 % 1006,4 hPa 0,0 l/m 6,2 km/h (2 Bft) NO 51 1 min 0,000 mm 2,6 UV-I 802 W/m 3,5 C 7,8 C 8,0 km/h (2 Bft) 100,00 %
23.03.2016 10:59 7,8 C 71 % 1006,4 hPa 0,0 l/m 7,2 km/h (2 Bft) NO 36 1 min 0,000 mm 2,7 UV-I 831 W/m 2,9 C 7,2 C 8,0 km/h (2 Bft) 100,00 %
23.03.2016 11:00 7,8 C 71 % 1006,4 hPa 0,0 l/m 2,9 km/h (1 Bft) NO 36 1 min 0,228 mm 2,7 UV-I 874 W/m 2,9 C 7,8 C 4,8 km/h (1 Bft) 100,00 %
23.03.2016 11:02 7,8 C 70 % 1006,4 hPa 0,0 l/m 0,7 km/h (0 Bft) NO 36 2 min 0,000 mm 2,2 UV-I 757 W/m 2,7 C 7,8 C 3,2 km/h (1 Bft) 100,00 %
23.03.2016 11:03 7,7 C 70 % 1006,4 hPa 0,0 l/m 0,8 km/h (0 Bft) NO 34 1 min 0,000 mm 1,9 UV-I 392 W/m 2,6 C 7,7 C 1,6 km/h (1 Bft) 96,15 %
23.03.2016 11:04 7,6 C 69 % 1006,4 hPa 0,0 l/m 2,5 km/h (1 Bft) N-NO 21 1 min 0,000 mm 1,9 UV-I 385 W/m 2,3 C 7,6 C 3,2 km/h (1 Bft) 100,00 %
23.03.2016 11:05 7,4 C 67 % 1006,4 hPa 0,0 l/m 2,0 km/h (1 Bft) W 263 1 min 0,000 mm 1,9 UV-I 393 W/m 1,7 C 7,4 C 4,8 km/h (1 Bft) 100,00 %
23.03.2016 11:06 7,3 C 67 % 1006,4 hPa 0,0 l/m 3,6 km/h (1 Bft) W 271 1 min 0,000 mm 2,0 UV-I 394 W/m 1,6 C 7,3 C 6,4 km/h (2 Bft) 100,00 %
23.03.2016 11:07 7,2 C 67 % 1006,3 hPa 0,0 l/m 3,7 km/h (1 Bft) W-SW 254 1 min 0,000 mm 1,8 UV-I 390 W/m 1,5 C 7,2 C 4,8 km/h (1 Bft) 98,69 %
23.03.2016 11:08 7,2 C 67 % 1006,4 hPa 0,0 l/m 2,9 km/h (1 Bft) W-SW 254 1 min 0,000 mm 1,8 UV-I 388 W/m 1,5 C 7,2 C 4,8 km/h (1 Bft) 97,56 %
23.03.2016 11:09 7,1 C 67 % 1006,4 hPa 0,0 l/m 1,7 km/h (1 Bft) W-SW 254 1 min 0,000 mm 1,9 UV-I 428 W/m 1,4 C 7,1 C 3,2 km/h (1 Bft) 100,00 %
23.03.2016 11:10 7,1 C 70 % 1006,3 hPa 0,0 l/m 1,1 km/h (1 Bft) W-SW 254 1 min 0,000 mm 2,0 UV-I 420 W/m 2,0 C 7,1 C 1,6 km/h (1 Bft) 100,00 %
23.03.2016 11:11 7,1 C 69 % 1006,3 hPa 0,0 l/m 0,6 km/h (0 Bft) W-SW 254 1 min 0,000 mm 1,9 UV-I 435 W/m 1,8 C 7,1 C 1,6 km/h (1 Bft) 100,00 %
23.03.2016 11:12 7,1 C 69 % 1006,4 hPa 0,0 l/m 1,0 km/h (0 Bft) N-NW 346 1 min 0,000 mm 1,8 UV-I 404 W/m 1,8 C 7,1 C 1,6 km/h (1 Bft) 100,00 %
23.03.2016 11:13 7,2 C 71 % 1006,3 hPa 0,0 l/m 5,7 km/h (1 Bft) NO 35 1 min 0,000 mm 1,8 UV-I 386 W/m 2,3 C 7,2 C 9,7 km/h (2 Bft) 100,00 %
23.03.2016 11:14 7,3 C 70 % 1006,3 hPa 0,0 l/m 2,6 km/h (1 Bft) N-NO 26 1 min 0,000 mm 1,8 UV-I 378 W/m 2,2 C 7,3 C 4,8 km/h (1 Bft) 100,00 %
23.03.2016 11:15 7,4 C 71 % 1006,3 hPa 0,0 l/m 1,6 km/h (1 Bft) N-NO 15 1 min 0,000 mm 1,7 UV-I 374 W/m 2,5 C 7,4 C 3,2 km/h (1 Bft) 100,00 %
23.03.2016 11:16 7,6 C 68 % 1006,3 hPa 0,0 l/m 3,1 km/h (1 Bft) N-NO 20 0 min 0,000 mm 1,7 UV-I 365 W/m 2,1 C 7,6 C 6,4 km/h (2 Bft) 100,00 %
23.03.2016 11:17 7,7 C 72 % 1006,3 hPa 0,0 l/m 0,7 km/h (0 Bft) N-NO 15 0 min 0,000 mm 1,7 UV-I 356 W/m 3,0 C 7,7 C 1,6 km/h (1 Bft) 100,00 %
23.03.2016 11:18 7,7 C 70 % 1006,3 hPa 0,0 l/m 0,3 km/h (0 Bft) NO 44 0 min 0,000 mm 1,7 UV-I 357 W/m 2,6 C 7,7 C 1,6 km/h (1 Bft) 100,00 %
23.03.2016 11:19 7,6 C 70 % 1006,3 hPa 0,0 l/m 3,1 km/h (1 Bft) N-NO 26 1 min 0,000 mm 1,9 UV-I 388 W/m 2,5 C 7,6 C 6,4 km/h (2 Bft) 100,00 %
23.03.2016 11:20 7,5 C 70 % 1006,3 hPa 0,0 l/m 2,1 km/h (1 Bft) N-NO 17 1 min 0,000 mm 2,0 UV-I 406 W/m 2,4 C 7,5 C 4,8 km/h (1 Bft) 100,00 %
23.03.2016 11:21 7,4 C 69 % 1006,3 hPa 0,0 l/m 2,7 km/h (1 Bft) N-NO 12 1 min 0,000 mm 1,8 UV-I 466 W/m 2,1 C 7,4 C 4,8 km/h (1 Bft) 100,00 %
23.03.2016 11:22 7,3 C 67 % 1006,3 hPa 0,0 l/m 2,0 km/h (1 Bft) N-NO 12 1 min 0,000 mm 1,8 UV-I 427 W/m 1,6 C 7,3 C 3,2 km/h (1 Bft) 100,00 %
23.03.2016 11:23 7,3 C 67 % 1006,3 hPa 0,0 l/m 2,4 km/h (1 Bft) N 355 1 min 0,000 mm 1,9 UV-I 426 W/m 1,6 C 7,3 C 3,2 km/h (1 Bft) 100,00 %
23.03.2016 11:24 7,3 C 68 % 1006,3 hPa 0,0 l/m 1,5 km/h (1 Bft) N 355 1 min 0,000 mm 2,0 UV-I 454 W/m 1,8 C 7,3 C 3,2 km/h (1 Bft) 100,00 %
23.03.2016 11:25 7,3 C 67 % 1006,2 hPa 0,0 l/m 0,6 km/h (0 Bft) N 355 1 min 0,000 mm 2,2 UV-I 452 W/m 1,6 C 7,3 C 1,6 km/h (1 Bft) 100,00 %
23.03.2016 11:26 7,3 C 70 % 1006,2 hPa 0,0 l/m 1,1 km/h (1 Bft) N-NO 21 1 min 0,000 mm 2,5 UV-I 578 W/m 2,2 C 7,3 C 3,2 km/h (1 Bft) 92,86 %
23.03.2016 11:27 7,6 C 71 % 1006,2 hPa 0,0 l/m 2,1 km/h (1 Bft) O 89 1 min 0,000 mm 2,1 UV-I 789 W/m 2,7 C 7,6 C 4,8 km/h (1 Bft) 100,00 %
23.03.2016 11:28 7,7 C 66 % 1006,3 hPa 0,0 l/m 4,2 km/h (1 Bft) O 96 1 min 0,000 mm 1,8 UV-I 462 W/m 1,8 C 7,7 C 4,8 km/h (1 Bft) 100,00 %
23.03.2016 11:29 7,6 C 66 % 1006,3 hPa 0,0 l/m 4,5 km/h (1 Bft) O 101 1 min 0,000 mm 1,8 UV-I 409 W/m 1,7 C 7,6 C 6,4 km/h (2 Bft) 100,00 %
23.03.2016 11:30 7,6 C 66 % 1006,2 hPa 0,0 l/m 2,9 km/h (1 Bft) O 101 1 min 0,000 mm 1,9 UV-I 431 W/m 1,7 C 7,6 C 4,8 km/h (1 Bft) 100,00 %
23.03.2016 11:31 7,6 C 66 % 1006,2 hPa 0,0 l/m 2,8 km/h (1 Bft) O 101 1 min 0,000 mm 2,3 UV-I 584 W/m 1,7 C 7,6 C 3,2 km/h (1 Bft) 100,00 %
23.03.2016 11:32 7,6 C 68 % 1006,3 hPa 0,0 l/m 0,5 km/h (0 Bft) O 90 1 min 0,000 mm 2,2 UV-I 798 W/m 2,1 C 7,6 C 1,6 km/h (1 Bft) 100,00 %
23.03.2016 11:33 7,7 C 69 % 1006,2 hPa 0,0 l/m 2,9 km/h (1 Bft) NW 322 1 min 0,000 mm 1,9 UV-I 798 W/m 2,4 C 7,7 C 4,8 km/h (1 Bft) 100,00 %
23.03.2016 11:34 7,8 C 68 % 1006,2 hPa 0,0 l/m 1,9 km/h (1 Bft) NW 316 1 min 0,000 mm 1,8 UV-I 429 W/m 2,3 C 7,8 C 6,4 km/h (2 Bft) 100,00 %
23.03.2016 11:35 7,8 C 69 % 1006,2 hPa 0,0 l/m 1,9 km/h (1 Bft) N-NW 333 1 min 0,000 mm 1,9 UV-I 403 W/m 2,5 C 7,8 C 3,2 km/h (1 Bft) 95,65 %
23.03.2016 11:36 7,9 C 68 % 1006,2 hPa 0,0 l/m 4,4 km/h (1 Bft) NO 50 1 min 0,000 mm 2,1 UV-I 438 W/m 2,4 C 7,9 C 9,7 km/h (2 Bft) 100,00 %
23.03.2016 11:37 8,1 C 69 % 1006,2 hPa 0,0 l/m 5,8 km/h (2 Bft) NO 39 1 min 0,000 mm 2,6 UV-I 614 W/m 2,8 C 8,1 C 12,9 km/h (3 Bft) 100,00 %
23.03.2016 11:38 8,1 C 66 % 1006,2 hPa 0,0 l/m 8,4 km/h (2 Bft) O-NO 64 1 min 0,000 mm 2,6 UV-I 829 W/m 2,1 C 6,6 C 11,3 km/h (2 Bft) 100,00 %
23.03.2016 11:39 8,1 C 65 % 1006,3 hPa 0,0 l/m 6,2 km/h (2 Bft) N-NO 32 1 min 0,000 mm 2,6 UV-I 835 W/m 1,9 C 8,1 C 9,7 km/h (2 Bft) 100,00 %
23.03.2016 11:40 8,1 C 65 % 1006,3 hPa 0,0 l/m 8,8 km/h (2 Bft) NO 46 1 min 0,000 mm 2,4 UV-I 799 W/m 1,9 C 6,3 C 12,9 km/h (3 Bft) 100,00 %
23.03.2016 11:41 8,3 C 67 % 1006,2 hPa 0,0 l/m 6,0 km/h (2 Bft) O-NO 71 1 min 0,000 mm 2,2 UV-I 738 W/m 2,5 C 8,3 C 11,3 km/h (2 Bft) 100,00 %
23.03.2016 11:42 8,2 C 62 % 1006,2 hPa 0,0 l/m 6,8 km/h (2 Bft) NO 40 1 min 0,000 mm 2,2 UV-I 527 W/m 1,4 C 7,9 C 14,5 km/h (3 Bft) 100,00 %
23.03.2016 11:43 8,2 C 62 % 1006,2 hPa 0,0 l/m 5,9 km/h (2 Bft) N 5 1 min 0,000 mm 2,2 UV-I 536 W/m 1,4 C 8,2 C 9,7 km/h (2 Bft) 100,00 %
23.03.2016 11:44 8,3 C 66 % 1006,2 hPa 0,0 l/m 4,9 km/h (1 Bft) N-NO 13 1 min 0,000 mm 2,0 UV-I 455 W/m 2,3 C 8,3 C 8,0 km/h (2 Bft) 96,30 %
23.03.2016 11:45 8,2 C 62 % 1006,2 hPa 0,0 l/m 3,0 km/h (1 Bft) N-NO 13 1 min 0,000 mm 1,9 UV-I 416 W/m 1,4 C 8,2 C 4,8 km/h (1 Bft) 100,00 %
23.03.2016 11:46 8,1 C 61 % 1006,1 hPa 0,0 l/m 0,9 km/h (0 Bft) N-NO 13 1 min 0,000 mm 2,0 UV-I 423 W/m 1,0 C 8,1 C 3,2 km/h (1 Bft) 91,67 %
23.03.2016 11:47 8,0 C 60 % 1006,1 hPa 0,0 l/m 0,2 km/h (0 Bft) N-NO 22 1 min 0,000 mm 2,1 UV-I 456 W/m 0,7 C 8,0 C 1,6 km/h (1 Bft) 100,00 %
23.03.2016 11:48 7,9 C 61 % 1006,1 hPa 0,0 l/m 1,6 km/h (1 Bft) N-NO 22 1 min 0,000 mm 2,0 UV-I 446 W/m 0,9 C 7,9 C 3,2 km/h (1 Bft) 93,33 %
23.03.2016 11:49 7,8 C 61 % 1006,1 hPa 0,0 l/m 3,0 km/h (1 Bft) NO 42 1 min 0,000 mm 2,0 UV-I 431 W/m 0,8 C 7,8 C 3,2 km/h (1 Bft) 100,00 %
23.03.2016 11:50 7,8 C 64 % 1006,1 hPa 0,0 l/m 4,4 km/h (1 Bft) N-NO 27 1 min 0,000 mm 2,0 UV-I 430 W/m 1,4 C 7,8 C 6,4 km/h (2 Bft) 96,15 %
23.03.2016 11:51 7,9 C 64 % 1006,0 hPa 0,0 l/m 6,6 km/h (2 Bft) N-NO 26 1 min 0,000 mm 2,0 UV-I 439 W/m 1,5 C 7,8 C 9,7 km/h (2 Bft) 100,00 %
23.03.2016 11:52 8,1 C 64 % 1006,0 hPa 0,0 l/m 1,0 km/h (0 Bft) N-NO 22 1 min 0,000 mm 2,0 UV-I 431 W/m 1,7 C 8,1 C 1,6 km/h (1 Bft) 95,65 %
23.03.2016 11:53 8,2 C 64 % 1006,0 hPa 0,0 l/m 3,0 km/h (1 Bft) NW 323 1 min 0,000 mm 2,0 UV-I 407 W/m 1,8 C 8,2 C 4,8 km/h (1 Bft) 95,83 %
23.03.2016 11:54 8,2 C 61 % 1006,0 hPa 0,0 l/m 1,6 km/h (1 Bft) NW 317 1 min 0,000 mm 1,9 UV-I 395 W/m 1,1 C 8,2 C 3,2 km/h (1 Bft) 100,00 %
23.03.2016 11:55 8,2 C 60 % 1006,0 hPa 0,0 l/m 3,5 km/h (1 Bft) NW 315 1 min 0,000 mm 1,9 UV-I 388 W/m 0,9 C 8,2 C 4,8 km/h (1 Bft) 96,30 %
23.03.2016 11:56 8,2 C 57 % 1006,0 hPa 0,0 l/m 1,3 km/h (1 Bft) NW 315 1 min 0,000 mm 1,9 UV-I 398 W/m 0,2 C 8,2 C 3,2 km/h (1 Bft) 100,00 %
23.03.2016 11:57 8,1 C 57 % 1006,0 hPa 0,0 l/m 0,9 km/h (0 Bft) NW 315 1 min 0,000 mm 2,1 UV-I 485 W/m 0,1 C 8,1 C 3,2 km/h (1 Bft) 95,83 %
23.03.2016 11:58 8,1 C 56 % 1006,0 hPa 0,0 l/m 0,1 km/h (0 Bft) NW 315 1 min 0,000 mm 2,1 UV-I 448 W/m -0,1 C 8,1 C 1,6 km/h (1 Bft) 95,65 %
23.03.2016 11:59 8,1 C 57 % 1006,0 hPa 0,0 l/m 0,8 km/h (0 Bft) NW 315 1 min 0,000 mm 2,1 UV-I 427 W/m 0,1 C 8,1 C 3,2 km/h (1 Bft) 91,67 %
23.03.2016 12:00 8,1 C 56 % 1006,0 hPa 0,0 l/m 1,1 km/h (1 Bft) NW 315 1 min 0,000 mm 2,0 UV-I 414 W/m -0,1 C 8,1 C 3,2 km/h (1 Bft) 100,00 %
23.03.2016 12:01 8,1 C 56 % 1006,0 hPa 0,0 l/m 2,1 km/h (1 Bft) N 355 1 min 0,229 mm 2,0 UV-I 422 W/m -0,1 C 8,1 C 3,2 km/h (1 Bft) 96,30 %
23.03.2016 12:02 8,2 C 60 % 1006,0 hPa 0,0 l/m 3,8 km/h (1 Bft) N 11 1 min 0,000 mm 1,8 UV-I 394 W/m 0,9 C 8,2 C 4,8 km/h (1 Bft) 96,15 %
23.03.2016 12:03 8,2 C 60 % 1006,0 hPa 0,0 l/m 4,0 km/h (1 Bft) N-NO 26 0 min 0,000 mm 1,8 UV-I 373 W/m 0,9 C 8,2 C 6,4 km/h (2 Bft) 100,00 %
23.03.2016 12:04 8,2 C 56 % 1006,0 hPa 0,0 l/m 3,7 km/h (1 Bft) N-NO 28 0 min 0,000 mm 1,8 UV-I 376 W/m -0,0 C 8,2 C 6,4 km/h (2 Bft) 95,65 %
23.03.2016 12:05 8,3 C 58 % 1006,0 hPa 0,0 l/m 1,4 km/h (1 Bft) N-NO 28 0 min 0,000 mm 1,8 UV-I 371 W/m 0,5 C 8,3 C 3,2 km/h (1 Bft) 100,00 %
23.03.2016 12:06 8,2 C 57 % 1006,1 hPa 0,0 l/m 1,1 km/h (1 Bft) N-NO 28 0 min 0,000 mm 1,8 UV-I 366 W/m 0,2 C 8,2 C 1,6 km/h (1 Bft) 94,44 %
23.03.2016 12:07 8,3 C 60 % 1006,0 hPa 0,0 l/m 1,2 km/h (1 Bft) N-NO 22 0 min 0,000 mm 1,7 UV-I 365 W/m 1,0 C 8,3 C 1,6 km/h (1 Bft) 100,00 %
23.03.2016 12:08 8,3 C 61 % 1006,0 hPa 0,0 l/m 2,4 km/h (1 Bft) N-NO 15 0 min 0,000 mm 1,7 UV-I 365 W/m 1,2 C 8,3 C 6,4 km/h (2 Bft) 96,55 %
23.03.2016 12:09 8,4 C 60 % 1006,0 hPa 0,0 l/m 3,2 km/h (1 Bft) N 351 0 min 0,000 mm 1,7 UV-I 367 W/m 1,1 C 8,4 C 4,8 km/h (1 Bft) 100,00 %
23.03.2016 12:10 8,4 C 60 % 1006,1 hPa 0,0 l/m 1,0 km/h (0 Bft) N-NW 346 0 min 0,000 mm 1,7 UV-I 372 W/m 1,1 C 8,4 C 1,6 km/h (1 Bft) 95,65 %
23.03.2016 12:11 8,4 C 59 % 1006,0 hPa 0,0 l/m 2,1 km/h (1 Bft) N-NW 345 0 min 0,000 mm 1,6 UV-I 365 W/m 0,9 C 8,4 C 3,2 km/h (1 Bft) 95,83 %
23.03.2016 12:12 8,3 C 59 % 1006,0 hPa 0,0 l/m 0,9 km/h (0 Bft) N-NW 345 0 min 0,000 mm 1,6 UV-I 360 W/m 0,8 C 8,3 C 1,6 km/h (1 Bft) 100,00 %
23.03.2016 12:13 8,3 C 57 % 1006,0 hPa 0,0 l/m 0,2 km/h (0 Bft) N-NW 345 0 min 0,000 mm 1,6 UV-I 360 W/m 0,3 C 8,3 C 1,6 km/h (1 Bft) 95,65 %
23.03.2016 12:14 8,3 C 59 % 1006,0 hPa 0,0 l/m 0,2 km/h (0 Bft) N-NW 345 0 min 0,000 mm 1,6 UV-I 365 W/m 0,8 C 8,3 C 1,6 km/h (1 Bft) 100,00 %
23.03.2016 12:15 8,3 C 58 % 1006,0 hPa 0,0 l/m 2,2 km/h (1 Bft) NO 46 0 min 0,000 mm 1,6 UV-I 366 W/m 0,5 C 8,3 C 4,8 km/h (1 Bft) 92,86 %
23.03.2016 12:16 8,2 C 56 % 1006,0 hPa 0,0 l/m 4,0 km/h (1 Bft) O 98 0 min 0,000 mm 1,5 UV-I 355 W/m -0,0 C 8,2 C 6,4 km/h (2 Bft) 100,00 %
23.03.2016 12:17 8,2 C 56 % 1006,0 hPa 0,0 l/m 2,0 km/h (1 Bft) O 98 0 min 0,000 mm 1,5 UV-I 345 W/m -0,0 C 8,2 C 3,2 km/h (1 Bft) 95,65 %
23.03.2016 12:18 8,2 C 57 % 1006,0 hPa 0,0 l/m 2,3 km/h (1 Bft) N-NW 348 0 min 0,000 mm 1,5 UV-I 334 W/m 0,2 C 8,2 C 3,2 km/h (1 Bft) 91,67 %
23.03.2016 12:19 8,2 C 59 % 1006,0 hPa 0,0 l/m 2,9 km/h (1 Bft) NW 311 0 min 0,000 mm 1,4 UV-I 322 W/m 0,7 C 8,2 C 4,8 km/h (1 Bft) 100,00 %
23.03.2016 12:20 8,2 C 58 % 1006,0 hPa 0,0 l/m 2,2 km/h (1 Bft) N-NW 337 0 min 0,000 mm 1,3 UV-I 306 W/m 0,4 C 8,2 C 3,2 km/h (1 Bft) 95,83 %
23.03.2016 12:21 8,2 C 59 % 1006,0 hPa 0,0 l/m 1,2 km/h (1 Bft) N-NW 342 0 min 0,000 mm 1,3 UV-I 293 W/m 0,7 C 8,2 C 1,6 km/h (1 Bft) 100,00 %
23.03.2016 12:22 8,2 C 60 % 1006,0 hPa 0,0 l/m 2,3 km/h (1 Bft) W-NW 294 0 min 0,000 mm 1,3 UV-I 279 W/m 0,9 C 8,2 C 6,4 km/h (2 Bft) 96,30 %
23.03.2016 12:23 8,2 C 60 % 1006,0 hPa 0,0 l/m 6,3 km/h (2 Bft) W-NW 302 0 min 0,000 mm 1,2 UV-I 270 W/m 0,9 C 8,2 C 12,9 km/h (3 Bft) 100,00 %
23.03.2016 12:24 8,2 C 59 % 1006,0 hPa 0,0 l/m 3,1 km/h (1 Bft) N-NW 327 0 min 0,000 mm 1,2 UV-I 259 W/m 0,7 C 8,2 C 4,8 km/h (1 Bft) 92,59 %
23.03.2016 12:25 8,2 C 61 % 1006,0 hPa 0,0 l/m 2,1 km/h (1 Bft) N 355 0 min 0,000 mm 1,2 UV-I 252 W/m 1,1 C 8,2 C 4,8 km/h (1 Bft) 100,00 %
23.03.2016 12:26 8,1 C 61 % 1006,0 hPa 0,0 l/m 3,6 km/h (1 Bft) NW 314 0 min 0,000 mm 1,1 UV-I 245 W/m 1,0 C 8,1 C 4,8 km/h (1 Bft) 96,55 %
23.03.2016 12:27 8,1 C 61 % 1006,0 hPa 0,0 l/m 1,0 km/h (0 Bft) N-NW 336 0 min 0,000 mm 1,1 UV-I 241 W/m 1,0 C 8,1 C 6,4 km/h (2 Bft) 100,00 %
23.03.2016 12:28 8,1 C 61 % 1006,0 hPa 0,0 l/m 1,9 km/h (1 Bft) N 5 0 min 0,000 mm 1,1 UV-I 241 W/m 1,0 C 8,1 C 4,8 km/h (1 Bft) 100,00 %
23.03.2016 12:29 8,1 C 64 % 1006,0 hPa 0,0 l/m 1,3 km/h (1 Bft) N-NW 331 0 min 0,000 mm 1,1 UV-I 242 W/m 1,7 C 8,1 C 3,2 km/h (1 Bft) 100,00 %
23.03.2016 12:30 8,2 C 65 % 1006,0 hPa 0,0 l/m 2,3 km/h (1 Bft) NW 315 0 min 0,000 mm 1,1 UV-I 248 W/m 2,0 C 8,2 C 4,8 km/h (1 Bft) 100,00 %
23.03.2016 12:31 8,2 C 60 % 1006,0 hPa 0,0 l/m 0,2 km/h (0 Bft) NW 315 0 min 0,000 mm 1,2 UV-I 255 W/m 0,9 C 8,2 C 1,6 km/h (1 Bft) 100,00 %
23.03.2016 12:32 8,2 C 60 % 1006,0 hPa 0,0 l/m 0,3 km/h (0 Bft) NW 315 0 min 0,000 mm 1,2 UV-I 258 W/m 0,9 C 8,2 C 1,6 km/h (1 Bft) 100,00 %
23.03.2016 12:33 8,3 C 61 % 1006,0 hPa 0,0 l/m 1,1 km/h (1 Bft) NW 315 0 min 0,000 mm 1,2 UV-I 258 W/m 1,2 C 8,3 C 1,6 km/h (1 Bft) 100,00 %
23.03.2016 12:34 8,3 C 60 % 1005,9 hPa 0,0 l/m 2,3 km/h (1 Bft) N-NW 340 0 min 0,000 mm 1,2 UV-I 258 W/m 1,0 C 8,3 C 8,0 km/h (2 Bft) 96,15 %
23.03.2016 12:35 8,3 C 61 % 1005,9 hPa 0,0 l/m 6,4 km/h (2 Bft) W-NW 303 0 min 0,000 mm 1,2 UV-I 260 W/m 1,2 C 8,3 C 8,0 km/h (2 Bft) 98,65 %
23.03.2016 12:36 8,2 C 59 % 1005,9 hPa 0,0 l/m 4,8 km/h (1 Bft) N-NW 348 0 min 0,000 mm 1,2 UV-I 261 W/m 0,7 C 8,2 C 8,0 km/h (2 Bft) 100,00 %
23.03.2016 12:37 8,2 C 60 % 1005,9 hPa 0,0 l/m 1,9 km/h (1 Bft) W-NW 284 0 min 0,000 mm 1,2 UV-I 262 W/m 0,9 C 8,2 C 4,8 km/h (1 Bft) 100,00 %
23.03.2016 12:38 8,2 C 60 % 1005,9 hPa 0,0 l/m 5,2 km/h (1 Bft) W-NW 298 0 min 0,000 mm 1,2 UV-I 262 W/m 0,9 C 8,2 C 6,4 km/h (2 Bft) 100,00 %
23.03.2016 12:39 8,2 C 60 % 1005,9 hPa 0,0 l/m 2,6 km/h (1 Bft) W 281 0 min 0,000 mm 1,2 UV-I 262 W/m 0,9 C 8,2 C 4,8 km/h (1 Bft) 100,00 %
23.03.2016 12:40 8,2 C 59 % 1005,8 hPa 0,0 l/m 1,4 km/h (1 Bft) W 281 0 min 0,000 mm 1,2 UV-I 261 W/m 0,7 C 8,2 C 3,2 km/h (1 Bft) 100,00 %
23.03.2016 12:41 8,2 C 60 % 1005,9 hPa 0,0 l/m 0,7 km/h (0 Bft) W-NW 302 0 min 0,000 mm 1,3 UV-I 261 W/m 0,9 C 8,2 C 3,2 km/h (1 Bft) 100,00 %
23.03.2016 12:42 8,2 C 61 % 1005,9 hPa 0,0 l/m 1,6 km/h (1 Bft) N-NW 347 0 min 0,000 mm 1,3 UV-I 262 W/m 1,1 C 8,2 C 3,2 km/h (1 Bft) 100,00 %
23.03.2016 12:43 8,2 C 63 % 1005,9 hPa 0,0 l/m 2,4 km/h (1 Bft) NW 319 0 min 0,000 mm 1,3 UV-I 263 W/m 1,6 C 8,2 C 4,8 km/h (1 Bft) 100,00 %
23.03.2016 12:44 8,3 C 64 % 1005,8 hPa 0,0 l/m 1,9 km/h (1 Bft) O-NO 71 0 min 0,000 mm 1,3 UV-I 267 W/m 1,9 C 8,3 C 3,2 km/h (1 Bft) 100,00 %
23.03.2016 12:45 8,3 C 64 % 1005,8 hPa 0,0 l/m 2,0 km/h (1 Bft) W-NW 294 0 min 0,000 mm 1,3 UV-I 271 W/m 1,9 C 8,3 C 6,4 km/h (2 Bft) 100,00 %
23.03.2016 12:46 8,3 C 62 % 1005,9 hPa 0,0 l/m 1,8 km/h (1 Bft) W-NW 286 0 min 0,000 mm 1,3 UV-I 272 W/m 1,5 C 8,3 C 3,2 km/h (1 Bft) 100,00 %
23.03.2016 12:47 8,3 C 60 % 1005,9 hPa 0,0 l/m 5,0 km/h (1 Bft) W-NW 303 0 min 0,000 mm 1,4 UV-I 276 W/m 1,0 C 8,3 C 9,7 km/h (2 Bft) 100,00 %
23.03.2016 12:48 8,3 C 60 % 1005,9 hPa 0,0 l/m 2,8 km/h (1 Bft) W-NW 286 0 min 0,000 mm 1,4 UV-I 284 W/m 1,0 C 8,3 C 9,7 km/h (2 Bft) 100,00 %
23.03.2016 12:49 8,3 C 58 % 1005,9 hPa 0,0 l/m 4,1 km/h (1 Bft) N 351 0 min 0,000 mm 1,4 UV-I 292 W/m 0,5 C 8,3 C 6,4 km/h (2 Bft) 100,00 %
23.03.2016 12:50 8,3 C 58 % 1005,8 hPa 0,0 l/m 5,9 km/h (2 Bft) W-NW 296 0 min 0,000 mm 1,5 UV-I 297 W/m 0,5 C 8,3 C 9,7 km/h (2 Bft) 100,00 %
23.03.2016 12:51 8,3 C 58 % 1005,8 hPa 0,0 l/m 4,4 km/h (1 Bft) W-NW 297 0 min 0,000 mm 1,5 UV-I 297 W/m 0,5 C 8,3 C 6,4 km/h (2 Bft) 100,00 %
23.03.2016 12:52 8,3 C 60 % 1005,8 hPa 0,0 l/m 3,0 km/h (1 Bft) NW 309 0 min 0,000 mm 1,5 UV-I 300 W/m 1,0 C 8,3 C 4,8 km/h (1 Bft) 96,30 %
23.03.2016 12:53 8,2 C 58 % 1005,8 hPa 0,0 l/m 1,0 km/h (0 Bft) NW 309 0 min 0,000 mm 1,5 UV-I 304 W/m 0,4 C 8,2 C 3,2 km/h (1 Bft) 100,00 %
23.03.2016 12:54 8,2 C 60 % 1005,8 hPa 0,0 l/m 2,1 km/h (1 Bft) NW 326 0 min 0,000 mm 1,5 UV-I 310 W/m 0,9 C 8,2 C 3,2 km/h (1 Bft) 100,00 %
23.03.2016 12:55 8,2 C 61 % 1005,8 hPa 0,0 l/m 1,9 km/h (1 Bft) N-NO 28 0 min 0,000 mm 1,5 UV-I 316 W/m 1,1 C 8,2 C 4,8 km/h (1 Bft) 100,00 %
23.03.2016 12:56 8,2 C 60 % 1005,8 hPa 0,0 l/m 1,1 km/h (1 Bft) N 351 0 min 0,000 mm 1,5 UV-I 321 W/m 0,9 C 8,2 C 3,2 km/h (1 Bft) 100,00 %
23.03.2016 12:57 8,2 C 61 % 1005,8 hPa 0,0 l/m 1,4 km/h (1 Bft) N 355 0 min 0,000 mm 1,5 UV-I 322 W/m 1,1 C 8,2 C 3,2 km/h (1 Bft) 96,55 %
23.03.2016 12:58 8,2 C 62 % 1005,8 hPa 0,0 l/m 2,1 km/h (1 Bft) NO 41 0 min 0,000 mm 1,5 UV-I 323 W/m 1,4 C 8,2 C 4,8 km/h (1 Bft) 100,00 %
23.03.2016 12:59 8,2 C 63 % 1005,7 hPa 0,0 l/m 3,1 km/h (1 Bft) N-NW 346 0 min 0,000 mm 1,5 UV-I 325 W/m 1,6 C 8,2 C 6,4 km/h (2 Bft) 100,00 %
23.03.2016 13:00 8,2 C 60 % 1005,8 hPa 0,0 l/m 4,4 km/h (1 Bft) NO 36 0 min 0,000 mm 1,5 UV-I 332 W/m 0,9 C 8,2 C 9,7 km/h (2 Bft) 100,00 %
23.03.2016 13:02 8,3 C 63 % 1005,7 hPa 0,0 l/m 8,3 km/h (2 Bft) N-NO 32 0 min 0,152 mm 1,6 UV-I 350 W/m 1,7 C 6,9 C 14,5 km/h (3 Bft) 100,00 %
23.03.2016 13:03 8,3 C 60 % 1005,8 hPa 0,0 l/m 5,9 km/h (2 Bft) NO 43 0 min 0,000 mm 1,6 UV-I 357 W/m 1,0 C 8,3 C 6,4 km/h (2 Bft) 96,15 %
23.03.2016 13:04 8,4 C 62 % 1005,7 hPa 0,0 l/m 3,8 km/h (1 Bft) N 10 0 min 0,000 mm 1,6 UV-I 365 W/m 1,6 C 8,4 C 6,4 km/h (2 Bft) 100,00 %
23.03.2016 13:05 8,4 C 63 % 1005,7 hPa 0,0 l/m 2,4 km/h (1 Bft) N-NO 15 1 min 0,000 mm 1,5 UV-I 368 W/m 1,8 C 8,4 C 3,2 km/h (1 Bft) 100,00 %
23.03.2016 13:06 8,4 C 63 % 1005,7 hPa 0,0 l/m 1,4 km/h (1 Bft) N-NW 333 0 min 0,000 mm 1,6 UV-I 362 W/m 1,8 C 8,4 C 3,2 km/h (1 Bft) 100,00 %
23.03.2016 13:07 8,4 C 62 % 1005,7 hPa 0,0 l/m 1,0 km/h (0 Bft) N-NW 333 0 min 0,000 mm 1,4 UV-I 338 W/m 1,6 C 8,4 C 3,2 km/h (1 Bft) 100,00 %
23.03.2016 13:08 8,3 C 59 % 1005,7 hPa 0,0 l/m 0,7 km/h (0 Bft) N-NW 333 0 min 0,000 mm 1,4 UV-I 327 W/m 0,8 C 8,3 C 3,2 km/h (1 Bft) 100,00 %
23.03.2016 13:09 8,2 C 59 % 1005,7 hPa 0,0 l/m 0,5 km/h (0 Bft) N-NW 333 0 min 0,000 mm 1,4 UV-I 320 W/m 0,7 C 8,2 C 1,6 km/h (1 Bft) 100,00 %
23.03.2016 13:10 8,2 C 58 % 1005,6 hPa 0,0 l/m 0,6 km/h (0 Bft) N-NW 333 0 min 0,000 mm 1,4 UV-I 310 W/m 0,4 C 8,2 C 3,2 km/h (1 Bft) 100,00 %
23.03.2016 13:11 8,2 C 59 % 1005,6 hPa 0,0 l/m 1,7 km/h (1 Bft) W-SW 238 0 min 0,000 mm 1,4 UV-I 300 W/m 0,7 C 8,2 C 3,2 km/h (1 Bft) 100,00 %
23.03.2016 13:12 8,2 C 61 % 1005,6 hPa 0,0 l/m 2,5 km/h (1 Bft) N 355 0 min 0,000 mm 1,4 UV-I 297 W/m 1,1 C 8,2 C 3,2 km/h (1 Bft) 100,00 %
23.03.2016 13:13 8,3 C 62 % 1005,6 hPa 0,0 l/m 5,6 km/h (1 Bft) NO 40 0 min 0,000 mm 1,4 UV-I 302 W/m 1,5 C 8,3 C 9,7 km/h (2 Bft) 100,00 %
23.03.2016 13:14 8,3 C 63 % 1005,6 hPa 0,0 l/m 6,5 km/h (2 Bft) NO 35 0 min 0,000 mm 1,4 UV-I 304 W/m 1,7 C 8,2 C 8,0 km/h (2 Bft) 100,00 %
23.03.2016 13:15 8,5 C 64 % 1005,6 hPa 0,0 l/m 3,2 km/h (1 Bft) N 355 0 min 0,000 mm 1,4 UV-I 300 W/m 2,1 C 8,5 C 4,8 km/h (1 Bft) 100,00 %
23.03.2016 13:16 8,6 C 64 % 1005,6 hPa 0,0 l/m 6,4 km/h (2 Bft) N-NO 17 0 min 0,000 mm 1,3 UV-I 292 W/m 2,2 C 8,6 C 14,5 km/h (3 Bft) 100,00 %
23.03.2016 13:17 8,5 C 62 % 1005,6 hPa 0,0 l/m 2,9 km/h (1 Bft) N 5 0 min 0,000 mm 1,3 UV-I 287 W/m 1,6 C 8,5 C 9,7 km/h (2 Bft) 100,00 %
23.03.2016 13:18 8,5 C 59 % 1005,5 hPa 0,0 l/m 8,4 km/h (2 Bft) O 84 0 min 0,000 mm 1,3 UV-I 292 W/m 1,0 C 7,0 C 14,5 km/h (3 Bft) 100,00 %
23.03.2016 13:19 8,5 C 62 % 1005,5 hPa 0,0 l/m 7,3 km/h (2 Bft) N 9 0 min 0,000 mm 1,3 UV-I 301 W/m 1,6 C 7,8 C 12,9 km/h (3 Bft) 100,00 %
23.03.2016 13:20 8,4 C 61 % 1005,5 hPa 0,0 l/m 8,6 km/h (2 Bft) N-NO 16 0 min 0,000 mm 1,3 UV-I 309 W/m 1,3 C 6,7 C 14,5 km/h (3 Bft) 100,00 %
23.03.2016 13:21 8,4 C 59 % 1005,5 hPa 0,0 l/m 6,2 km/h (2 Bft) NO 36 0 min 0,000 mm 1,3 UV-I 306 W/m 0,9 C 8,4 C 11,3 km/h (2 Bft) 100,00 %
23.03.2016 13:22 8,4 C 60 % 1005,5 hPa 0,0 l/m 8,3 km/h (2 Bft) N-NO 32 0 min 0,000 mm 1,2 UV-I 295 W/m 1,1 C 7,0 C 14,5 km/h (3 Bft) 100,00 %
23.03.2016 13:23 8,4 C 60 % 1005,5 hPa 0,0 l/m 5,5 km/h (1 Bft) N-NO 31 0 min 0,000 mm 1,2 UV-I 284 W/m 1,1 C 8,4 C 9,7 km/h (2 Bft) 100,00 %
23.03.2016 13:24 8,4 C 61 % 1005,5 hPa 0,0 l/m 7,9 km/h (2 Bft) N-NO 20 0 min 0,000 mm 1,1 UV-I 270 W/m 1,3 C 7,2 C 12,9 km/h (3 Bft) 100,00 %
23.03.2016 13:25 8,3 C 60 % 1005,5 hPa 0,0 l/m 6,4 km/h (2 Bft) N-NO 22 0 min 0,000 mm 1,1 UV-I 255 W/m 1,0 C 8,3 C 12,9 km/h (3 Bft) 100,00 %
23.03.2016 13:26 8,3 C 61 % 1005,5 hPa 0,0 l/m 1,9 km/h (1 Bft) NW 325 0 min 0,000 mm 1,0 UV-I 240 W/m 1,2 C 8,3 C 4,8 km/h (1 Bft) 100,00 %
23.03.2016 13:27 8,2 C 60 % 1005,5 hPa 0,0 l/m 1,4 km/h (1 Bft) N 9 0 min 0,000 mm 1,0 UV-I 227 W/m 0,9 C 8,2 C 1,6 km/h (1 Bft) 100,00 %
23.03.2016 13:28 8,2 C 60 % 1005,5 hPa 0,0 l/m 1,3 km/h (1 Bft) NW 317 0 min 0,000 mm 0,9 UV-I 216 W/m 0,9 C 8,2 C 1,6 km/h (1 Bft) 100,00 %
23.03.2016 13:29 8,1 C 62 % 1005,5 hPa 0,0 l/m 1,7 km/h (1 Bft) N 355 0 min 0,000 mm 0,9 UV-I 207 W/m 1,3 C 8,1 C 3,2 km/h (1 Bft) 100,00 %
23.03.2016 13:30 8,1 C 64 % 1005,5 hPa 0,0 l/m 3,1 km/h (1 Bft) N 11 0 min 0,000 mm 0,9 UV-I 201 W/m 1,7 C 8,1 C 4,8 km/h (1 Bft) 100,00 %
23.03.2016 13:31 8,1 C 64 % 1005,5 hPa 0,0 l/m 4,0 km/h (1 Bft) N-NO 20 0 min 0,000 mm 0,8 UV-I 193 W/m 1,7 C 8,1 C 8,0 km/h (2 Bft) 100,00 %
23.03.2016 13:32 8,0 C 62 % 1005,5 hPa 0,0 l/m 1,0 km/h (0 Bft) NO 34 0 min 0,000 mm 0,8 UV-I 188 W/m 1,2 C 8,0 C 3,2 km/h (1 Bft) 100,00 %
23.03.2016 13:33 7,9 C 62 % 1005,5 hPa 0,0 l/m 0,6 km/h (0 Bft) NO 41 0 min 0,000 mm 0,8 UV-I 185 W/m 1,1 C 7,9 C 1,6 km/h (1 Bft) 100,00 %
23.03.2016 13:34 7,9 C 61 % 1005,6 hPa 0,0 l/m 0,3 km/h (0 Bft) NO 40 0 min 0,000 mm 0,8 UV-I 181 W/m 0,9 C 7,9 C 3,2 km/h (1 Bft) 100,00 %
23.03.2016 13:35 7,9 C 63 % 1005,6 hPa 0,0 l/m 1,7 km/h (1 Bft) W-SW 257 0 min 0,000 mm 0,8 UV-I 177 W/m 1,3 C 7,9 C 3,2 km/h (1 Bft) 100,00 %
23.03.2016 13:36 7,9 C 65 % 1005,6 hPa 0,0 l/m 7,9 km/h (2 Bft) NW 306 0 min 0,000 mm 0,7 UV-I 173 W/m 1,7 C 6,7 C 16,1 km/h (3 Bft) 100,00 %
23.03.2016 13:37 7,8 C 65 % 1005,6 hPa 0,0 l/m 10,2 km/h (2 Bft) W-NW 302 0 min 0,000 mm 0,7 UV-I 171 W/m 1,6 C 5,0 C 12,9 km/h (3 Bft) 100,00 %
23.03.2016 13:38 7,8 C 64 % 1005,7 hPa 0,0 l/m 5,5 km/h (1 Bft) W 275 0 min 0,000 mm 0,7 UV-I 168 W/m 1,4 C 7,8 C 8,0 km/h (2 Bft) 93,33 %
23.03.2016 13:39 7,6 C 62 % 1005,6 hPa 0,0 l/m 3,2 km/h (1 Bft) W-NW 293 0 min 0,000 mm 0,7 UV-I 164 W/m 0,8 C 7,6 C 6,4 km/h (2 Bft) 100,00 %
23.03.2016 13:40 7,5 C 61 % 1005,6 hPa 0,0 l/m 3,1 km/h (1 Bft) W-NW 291 0 min 0,000 mm 0,7 UV-I 160 W/m 0,5 C 7,5 C 6,4 km/h (2 Bft) 100,00 %
23.03.2016 13:41 7,4 C 66 % 1005,6 hPa 0,0 l/m 2,7 km/h (1 Bft) NW 319 0 min 0,000 mm 0,7 UV-I 154 W/m 1,5 C 7,4 C 4,8 km/h (1 Bft) 100,00 %
23.03.2016 13:42 7,4 C 65 % 1005,6 hPa 0,0 l/m 1,9 km/h (1 Bft) NW 308 0 min 0,000 mm 0,6 UV-I 149 W/m 1,3 C 7,4 C 3,2 km/h (1 Bft) 100,00 %
23.03.2016 13:43 7,3 C 67 % 1005,6 hPa 0,0 l/m 4,6 km/h (1 Bft) W-SW 257 0 min 0,000 mm 0,6 UV-I 141 W/m 1,6 C 7,3 C 9,7 km/h (2 Bft) 100,00 %
23.03.2016 13:44 7,3 C 64 % 1005,6 hPa 0,0 l/m 3,1 km/h (1 Bft) W-NW 292 0 min 0,000 mm 0,5 UV-I 132 W/m 1,0 C 7,3 C 4,8 km/h (1 Bft) 96,30 %
23.03.2016 13:45 7,2 C 65 % 1005,6 hPa 0,0 l/m 4,4 km/h (1 Bft) SW 236 0 min 0,000 mm 0,5 UV-I 124 W/m 1,1 C 7,2 C 8,0 km/h (2 Bft) 100,00 %
23.03.2016 13:46 7,2 C 65 % 1005,6 hPa 0,0 l/m 3,4 km/h (1 Bft) SW 234 0 min 0,000 mm 0,5 UV-I 117 W/m 1,1 C 7,2 C 4,8 km/h (1 Bft) 100,00 %
23.03.2016 13:47 7,2 C 65 % 1005,6 hPa 0,0 l/m 2,5 km/h (1 Bft) S 180 0 min 0,000 mm 0,3 UV-I 110 W/m 1,1 C 7,2 C 4,8 km/h (1 Bft) 100,00 %
23.03.2016 13:48 7,2 C 66 % 1005,6 hPa 0,0 l/m 4,5 km/h (1 Bft) SW 216 0 min 0,000 mm 0,0 UV-I 102 W/m 1,3 C 7,2 C 4,8 km/h (1 Bft) 100,00 %
23.03.2016 13:49 7,2 C 68 % 1005,6 hPa 0,0 l/m 4,6 km/h (1 Bft) SW 217 0 min 0,000 mm 0,0 UV-I 97 W/m 1,7 C 7,2 C 6,4 km/h (2 Bft) 100,00 %
23.03.2016 13:50 7,2 C 66 % 1005,7 hPa 0,0 l/m 3,1 km/h (1 Bft) SW 224 0 min 0,000 mm 0,0 UV-I 92 W/m 1,3 C 7,2 C 6,4 km/h (2 Bft) 93,33 %
23.03.2016 13:51 7,2 C 67 % 1005,6 hPa 0,0 l/m 2,3 km/h (1 Bft) W-SW 239 0 min 0,000 mm 0,0 UV-I 88 W/m 1,5 C 7,2 C 3,2 km/h (1 Bft) 100,00 %
23.03.2016 13:52 7,2 C 67 % 1005,6 hPa 0,0 l/m 1,4 km/h (1 Bft) W-SW 239 0 min 0,000 mm 0,0 UV-I 85 W/m 1,5 C 7,2 C 3,2 km/h (1 Bft) 91,30 %
23.03.2016 13:53 7,2 C 67 % 1005,7 hPa 0,0 l/m 0,2 km/h (0 Bft) W-SW 239 0 min 0,000 mm 0,0 UV-I 83 W/m 1,5 C 7,2 C 1,6 km/h (1 Bft) 100,00 %
23.03.2016 13:54 7,2 C 64 % 1005,7 hPa 0,0 l/m 1,1 km/h (1 Bft) W-SW 239 0 min 0,000 mm 0,0 UV-I 82 W/m 0,9 C 7,2 C 1,6 km/h (1 Bft) 96,15 %
23.03.2016 13:55 7,2 C 64 % 1005,7 hPa 0,0 l/m 2,1 km/h (1 Bft) W-SW 239 0 min 0,000 mm 0,0 UV-I 79 W/m 0,9 C 7,2 C 3,2 km/h (1 Bft) 100,00 %
23.03.2016 13:56 7,2 C 66 % 1005,7 hPa 0,0 l/m 1,3 km/h (1 Bft) W-SW 239 0 min 0,000 mm 0,0 UV-I 77 W/m 1,3 C 7,2 C 1,6 km/h (1 Bft) 96,15 %
23.03.2016 13:57 7,2 C 68 % 1005,7 hPa 0,0 l/m 0,7 km/h (0 Bft) W-SW 239 0 min 0,000 mm 0,0 UV-I 75 W/m 1,7 C 7,2 C 1,6 km/h (1 Bft) 95,83 %
23.03.2016 13:58 7,2 C 67 % 1005,7 hPa 0,0 l/m 0,3 km/h (0 Bft) W-SW 239 0 min 0,000 mm 0,0 UV-I 74 W/m 1,5 C 7,2 C 1,6 km/h (1 Bft) 95,65 %
23.03.2016 13:59 7,2 C 64 % 1005,7 hPa 0,0 l/m 1,3 km/h (1 Bft) W-SW 239 0 min 0,000 mm 0,0 UV-I 74 W/m 0,9 C 7,2 C 1,6 km/h (1 Bft) 96,30 %
23.03.2016 14:00 7,2 C 68 % 1005,7 hPa 0,0 l/m 0,6 km/h (0 Bft) NW 315 0 min 0,000 mm 0,0 UV-I 72 W/m 1,7 C 7,2 C 1,6 km/h (1 Bft) 100,00 %
23.03.2016 14:02 7,2 C 63 % 1005,7 hPa 0,0 l/m 2,3 km/h (1 Bft) N-NO 15 0 min 0,102 mm 0,0 UV-I 73 W/m 0,6 C 7,2 C 4,8 km/h (1 Bft) 97,56 %
23.03.2016 14:03 7,1 C 65 % 1005,7 hPa 0,0 l/m 3,5 km/h (1 Bft) N-NO 18 0 min 0,000 mm 0,0 UV-I 76 W/m 1,0 C 7,1 C 4,8 km/h (1 Bft) 95,83 %
23.03.2016 14:04 7,1 C 60 % 1005,7 hPa 0,0 l/m 4,3 km/h (1 Bft) NO 51 0 min 0,000 mm 0,0 UV-I 77 W/m -0,1 C 7,1 C 4,8 km/h (1 Bft) 92,31 %
23.03.2016 14:05 7,0 C 63 % 1005,7 hPa 0,0 l/m 9,2 km/h (2 Bft) NO 53 0 min 0,000 mm 0,0 UV-I 78 W/m 0,4 C 4,8 C 17,7 km/h (3 Bft) 100,00 %
23.03.2016 14:06 7,0 C 66 % 1005,6 hPa 0,0 l/m 8,7 km/h (2 Bft) NO 40 0 min 0,000 mm 0,0 UV-I 79 W/m 1,1 C 5,2 C 16,1 km/h (3 Bft) 96,15 %
23.03.2016 14:07 6,9 C 68 % 1005,6 hPa 0,0 l/m 12,7 km/h (3 Bft) NO 35 0 min 0,000 mm 0,0 UV-I 79 W/m 1,4 C 2,6 C 17,7 km/h (3 Bft) 95,83 %
23.03.2016 14:08 6,9 C 69 % 1005,7 hPa 0,0 l/m 14,5 km/h (3 Bft) NO 47 0 min 0,000 mm 0,0 UV-I 79 W/m 1,6 C 1,6 C 17,7 km/h (3 Bft) 91,67 %
23.03.2016 14:09 6,9 C 70 % 1005,6 hPa 0,0 l/m 10,7 km/h (2 Bft) O-NO 57 0 min 0,000 mm 0,0 UV-I 78 W/m 1,8 C 3,7 C 14,5 km/h (3 Bft) 100,00 %
23.03.2016 14:10 6,8 C 68 % 1005,7 hPa 0,0 l/m 13,3 km/h (3 Bft) NO 49 0 min 0,000 mm 0,0 UV-I 76 W/m 1,3 C 2,1 C 16,1 km/h (3 Bft) 96,30 %
23.03.2016 14:11 6,8 C 70 % 1005,6 hPa 0,0 l/m 19,0 km/h (3 Bft) NO 42 0 min 0,000 mm 0,0 UV-I 76 W/m 1,7 C -0,5 C 25,7 km/h (4 Bft) 96,15 %
23.03.2016 14:12 6,7 C 70 % 1005,7 hPa 0,0 l/m 14,1 km/h (3 Bft) O-NO 61 0 min 0,000 mm 0,0 UV-I 74 W/m 1,6 C 1,6 C 19,3 km/h (3 Bft) 100,00 %
23.03.2016 14:13 6,7 C 69 % 1005,7 hPa 0,0 l/m 15,6 km/h (3 Bft) O-NO 59 0 min 0,000 mm 0,0 UV-I 72 W/m 1,4 C 0,9 C 17,7 km/h (3 Bft) 96,55 %
23.03.2016 14:14 6,6 C 68 % 1005,7 hPa 0,0 l/m 12,9 km/h (3 Bft) NO 53 0 min 0,000 mm 0,0 UV-I 72 W/m 1,1 C 2,1 C 16,1 km/h (3 Bft) 100,00 %
23.03.2016 14:15 6,6 C 69 % 1005,7 hPa 0,0 l/m 13,9 km/h (3 Bft) O 82 0 min 0,000 mm 0,0 UV-I 73 W/m 1,3 C 1,6 C 16,1 km/h (3 Bft) 92,31 %
23.03.2016 14:16 6,5 C 71 % 1005,7 hPa 0,0 l/m 11,5 km/h (2 Bft) O-NO 77 0 min 0,000 mm 0,0 UV-I 75 W/m 1,6 C 2,8 C 16,1 km/h (3 Bft) 100,00 %
23.03.2016 14:17 6,4 C 72 % 1005,7 hPa 0,0 l/m 13,5 km/h (3 Bft) O-NO 61 0 min 0,000 mm 0,0 UV-I 76 W/m 1,7 C 1,5 C 16,1 km/h (3 Bft) 95,65 %
23.03.2016 14:18 6,4 C 72 % 1005,6 hPa 0,0 l/m 14,1 km/h (3 Bft) O-NO 63 0 min 0,000 mm 0,0 UV-I 76 W/m 1,7 C 1,2 C 17,7 km/h (3 Bft) 100,00 %
23.03.2016 14:19 6,3 C 72 % 1005,6 hPa 0,0 l/m 17,9 km/h (3 Bft) O-NO 75 0 min 0,000 mm 0,0 UV-I 77 W/m 1,6 C -0,7 C 19,3 km/h (3 Bft) 96,15 %
23.03.2016 14:20 6,3 C 72 % 1005,6 hPa 0,0 l/m 15,3 km/h (3 Bft) O-SO 116 0 min 0,000 mm 0,0 UV-I 79 W/m 1,6 C 0,5 C 19,3 km/h (3 Bft) 95,83 %
23.03.2016 14:21 6,3 C 68 % 1005,6 hPa 0,0 l/m 15,3 km/h (3 Bft) O-SO 107 0 min 0,000 mm 0,0 UV-I 79 W/m 0,8 C 0,5 C 19,3 km/h (3 Bft) 100,00 %
23.03.2016 14:22 6,3 C 67 % 1005,6 hPa 0,0 l/m 13,8 km/h (3 Bft) SO 133 0 min 0,000 mm 0,0 UV-I 80 W/m 0,6 C 1,3 C 16,1 km/h (3 Bft) 95,83 %
23.03.2016 14:23 6,4 C 66 % 1005,5 hPa 0,0 l/m 12,2 km/h (2 Bft) O-SO 117 0 min 0,000 mm 0,0 UV-I 84 W/m 0,5 C 2,3 C 16,1 km/h (3 Bft) 100,00 %
23.03.2016 14:24 6,4 C 67 % 1005,5 hPa 0,0 l/m 11,1 km/h (2 Bft) SO 142 0 min 0,000 mm 0,0 UV-I 88 W/m 0,7 C 2,9 C 16,1 km/h (3 Bft) 96,30 %
23.03.2016 14:25 6,5 C 64 % 1005,5 hPa 0,0 l/m 11,6 km/h (2 Bft) S-SW 206 0 min 0,000 mm 0,0 UV-I 91 W/m 0,2 C 2,7 C 16,1 km/h (3 Bft) 93,33 %
23.03.2016 14:26 6,5 C 64 % 1005,5 hPa 0,0 l/m 6,0 km/h (2 Bft) S-SO 148 0 min 0,000 mm 0,0 UV-I 98 W/m 0,2 C 6,5 C 9,7 km/h (2 Bft) 100,00 %
23.03.2016 14:27 6,6 C 64 % 1005,5 hPa 0,0 l/m 3,9 km/h (1 Bft) S-SO 157 0 min 0,000 mm 0,0 UV-I 101 W/m 0,3 C 6,6 C 8,0 km/h (2 Bft) 100,00 %
23.03.2016 14:28 6,6 C 66 % 1005,4 hPa 0,0 l/m 7,4 km/h (2 Bft) S 170 0 min 0,000 mm 0,0 UV-I 107 W/m 0,7 C 5,8 C 12,9 km/h (3 Bft) 100,00 %
23.03.2016 14:29 6,6 C 64 % 1005,4 hPa 0,0 l/m 6,8 km/h (2 Bft) SO 141 0 min 0,000 mm 0,0 UV-I 111 W/m 0,3 C 6,3 C 9,7 km/h (2 Bft) 100,00 %
23.03.2016 14:30 6,6 C 64 % 1005,4 hPa 0,0 l/m 9,0 km/h (2 Bft) S-SW 193 0 min 0,000 mm 0,0 UV-I 111 W/m 0,3 C 4,5 C 12,9 km/h (3 Bft) 100,00 %
23.03.2016 14:31 6,6 C 66 % 1005,4 hPa 0,0 l/m 8,0 km/h (2 Bft) S 175 0 min 0,000 mm 0,0 UV-I 108 W/m 0,7 C 5,3 C 11,3 km/h (2 Bft) 95,83 %
23.03.2016 14:32 6,5 C 69 % 1005,4 hPa 0,0 l/m 7,7 km/h (2 Bft) S 170 0 min 0,000 mm 0,0 UV-I 104 W/m 1,2 C 5,4 C 12,9 km/h (3 Bft) 100,00 %
23.03.2016 14:33 6,4 C 69 % 1005,4 hPa 0,0 l/m 6,0 km/h (2 Bft) S-SO 147 0 min 0,000 mm 0,0 UV-I 100 W/m 1,1 C 6,4 C 11,3 km/h (2 Bft) 100,00 %
23.03.2016 14:34 6,3 C 68 % 1005,4 hPa 0,0 l/m 6,0 km/h (2 Bft) SO 129 0 min 0,000 mm 0,0 UV-I 95 W/m 0,8 C 6,3 C 11,3 km/h (2 Bft) 96,15 %
23.03.2016 14:35 6,3 C 69 % 1005,4 hPa 0,0 l/m 5,1 km/h (1 Bft) S 173 0 min 0,000 mm 0,0 UV-I 91 W/m 1,0 C 6,3 C 11,3 km/h (2 Bft) 100,00 %
23.03.2016 14:36 6,3 C 70 % 1005,4 hPa 0,0 l/m 5,6 km/h (1 Bft) S-SO 162 0 min 0,000 mm 0,0 UV-I 86 W/m 1,2 C 6,3 C 8,0 km/h (2 Bft) 90,91 %
23.03.2016 14:37 6,3 C 69 % 1005,4 hPa 0,0 l/m 4,7 km/h (1 Bft) S-SO 163 0 min 0,000 mm 0,0 UV-I 82 W/m 1,0 C 6,3 C 8,0 km/h (2 Bft) 100,00 %
23.03.2016 14:38 6,3 C 68 % 1005,4 hPa 0,0 l/m 7,6 km/h (2 Bft) S-SO 167 0 min 0,000 mm 0,0 UV-I 78 W/m 0,8 C 5,3 C 16,1 km/h (3 Bft) 100,00 %
23.03.2016 14:39 6,3 C 68 % 1005,4 hPa 0,0 l/m 6,1 km/h (2 Bft) S-SO 153 0 min 0,000 mm 0,0 UV-I 73 W/m 0,8 C 6,3 C 8,0 km/h (2 Bft) 100,00 %
23.03.2016 14:40 6,2 C 69 % 1005,3 hPa 0,0 l/m 6,3 km/h (2 Bft) S 172 0 min 0,000 mm 0,0 UV-I 66 W/m 0,9 C 6,2 C 12,9 km/h (3 Bft) 100,00 %
23.03.2016 14:41 6,2 C 68 % 1005,3 hPa 0,0 l/m 6,3 km/h (2 Bft) S-SO 158 0 min 0,000 mm 0,0 UV-I 61 W/m 0,7 C 6,2 C 9,7 km/h (2 Bft) 100,00 %
23.03.2016 14:42 6,2 C 68 % 1005,4 hPa 0,0 l/m 5,3 km/h (1 Bft) S-SO 155 0 min 0,000 mm 0,0 UV-I 54 W/m 0,7 C 6,2 C 8,0 km/h (2 Bft) 100,00 %
23.03.2016 14:43 6,1 C 68 % 1005,4 hPa 0,0 l/m 3,8 km/h (1 Bft) S-SO 153 0 min 0,000 mm 0,0 UV-I 50 W/m 0,6 C 6,1 C 6,4 km/h (2 Bft) 100,00 %
23.03.2016 14:44 6,1 C 69 % 1005,4 hPa 0,0 l/m 4,1 km/h (1 Bft) SO 134 0 min 0,000 mm 0,0 UV-I 44 W/m 0,8 C 6,1 C 6,4 km/h (2 Bft) 100,00 %
23.03.2016 14:45 6,1 C 71 % 1005,4 hPa 0,0 l/m 6,0 km/h (2 Bft) S-SO 148 0 min 0,000 mm 0,0 UV-I 41 W/m 1,2 C 6,1 C 8,0 km/h (2 Bft) 100,00 %
23.03.2016 14:46 6,1 C 71 % 1005,4 hPa 0,0 l/m 2,7 km/h (1 Bft) SO 132 0 min 0,000 mm 0,0 UV-I 39 W/m 1,2 C 6,1 C 4,8 km/h (1 Bft) 95,65 %
23.03.2016 14:47 6,1 C 70 % 1005,5 hPa 0,0 l/m 6,0 km/h (2 Bft) SO 128 0 min 0,000 mm 0,0 UV-I 37 W/m 1,0 C 6,1 C 8,0 km/h (2 Bft) 100,00 %
23.03.2016 14:48 6,1 C 70 % 1005,4 hPa 0,0 l/m 5,6 km/h (1 Bft) S-SO 163 0 min 0,000 mm 0,0 UV-I 35 W/m 1,0 C 6,1 C 8,0 km/h (2 Bft) 93,33 %
23.03.2016 14:49 6,1 C 69 % 1005,4 hPa 0,0 l/m 2,1 km/h (1 Bft) S-SO 157 0 min 0,000 mm 0,0 UV-I 33 W/m 0,8 C 6,1 C 4,8 km/h (1 Bft) 100,00 %
23.03.2016 14:50 6,1 C 70 % 1005,4 hPa 0,0 l/m 3,2 km/h (1 Bft) S-SO 163 0 min 0,000 mm 0,0 UV-I 32 W/m 1,0 C 6,1 C 6,4 km/h (2 Bft) 100,00 %
23.03.2016 14:51 6,1 C 69 % 1005,4 hPa 0,0 l/m 2,7 km/h (1 Bft) S-SO 155 0 min 0,000 mm 0,0 UV-I 31 W/m 0,8 C 6,1 C 4,8 km/h (1 Bft) 96,15 %
23.03.2016 14:52 6,1 C 71 % 1005,4 hPa 0,0 l/m 1,3 km/h (1 Bft) S-SO 155 0 min 0,000 mm 0,0 UV-I 30 W/m 1,2 C 6,1 C 3,2 km/h (1 Bft) 100,00 %
23.03.2016 14:53 6,1 C 70 % 1005,4 hPa 0,0 l/m 2,0 km/h (1 Bft) S-SO 155 0 min 0,000 mm 0,0 UV-I 28 W/m 1,0 C 6,1 C 3,2 km/h (1 Bft) 100,00 %
23.03.2016 14:54 6,1 C 72 % 1005,5 hPa 0,0 l/m 1,3 km/h (1 Bft) S-SO 155 0 min 0,000 mm 0,0 UV-I 26 W/m 1,4 C 6,1 C 1,6 km/h (1 Bft) 100,00 %
23.03.2016 14:55 6,1 C 71 % 1005,5 hPa 0,0 l/m 1,3 km/h (1 Bft) S-SO 155 0 min 0,000 mm 0,0 UV-I 25 W/m 1,2 C 6,1 C 1,6 km/h (1 Bft) 100,00 %
23.03.2016 14:56 6,1 C 71 % 1005,5 hPa 0,0 l/m 1,5 km/h (1 Bft) S-SO 155 0 min 0,000 mm 0,0 UV-I 24 W/m 1,2 C 6,1 C 3,2 km/h (1 Bft) 100,00 %
23.03.2016 14:57 6,1 C 70 % 1005,5 hPa 0,0 l/m 1,9 km/h (1 Bft) S-SO 155 0 min 0,000 mm 0,0 UV-I 23 W/m 1,0 C 6,1 C 3,2 km/h (1 Bft) 100,00 %
23.03.2016 14:58 6,0 C 69 % 1005,6 hPa 0,0 l/m 1,3 km/h (1 Bft) S-SO 155 0 min 0,000 mm 0,0 UV-I 22 W/m 0,8 C 6,0 C 1,6 km/h (1 Bft) 100,00 %
23.03.2016 14:59 6,0 C 69 % 1005,7 hPa 0,0 l/m 0,1 km/h (0 Bft) S-SO 155 0 min 0,000 mm 0,0 UV-I 21 W/m 0,8 C 6,0 C 1,6 km/h (1 Bft) 100,00 %
23.03.2016 15:00 5,9 C 69 % 1005,7 hPa 0,0 l/m 0,0 km/h (0 Bft) S-SO 155 0 min 0,000 mm 0,0 UV-I 23 W/m 0,7 C 5,9 C 0,0 km/h (0 Bft) 100,00 %
23.03.2016 15:02 5,9 C 68 % 1005,7 hPa 0,2 l/m 1,6 km/h (1 Bft) S 186 0 min 0,051 mm 0,0 UV-I 23 W/m 0,5 C 5,9 C 3,2 km/h (1 Bft) 100,00 %
23.03.2016 15:03 5,8 C 71 % 1005,7 hPa 0,0 l/m 3,1 km/h (1 Bft) S-SW 204 0 min 0,000 mm 0,0 UV-I 24 W/m 1,0 C 5,8 C 4,8 km/h (1 Bft) 100,00 %
23.03.2016 15:04 5,8 C 69 % 1005,7 hPa 0,0 l/m 3,7 km/h (1 Bft) S-SW 204 0 min 0,000 mm 0,0 UV-I 25 W/m 0,6 C 5,8 C 4,8 km/h (1 Bft) 100,00 %
23.03.2016 15:05 5,7 C 69 % 1005,7 hPa 0,0 l/m 3,4 km/h (1 Bft) S-SW 205 0 min 0,000 mm 0,0 UV-I 26 W/m 0,5 C 5,7 C 4,8 km/h (1 Bft) 100,00 %
23.03.2016 15:06 5,6 C 70 % 1005,7 hPa 0,0 l/m 3,6 km/h (1 Bft) S-SW 205 0 min 0,000 mm 0,0 UV-I 28 W/m 0,6 C 5,6 C 4,8 km/h (1 Bft) 100,00 %
23.03.2016 15:07 5,6 C 69 % 1005,7 hPa 0,0 l/m 3,8 km/h (1 Bft) S-SW 195 0 min 0,000 mm 0,0 UV-I 30 W/m 0,4 C 5,6 C 6,4 km/h (2 Bft) 100,00 %
23.03.2016 15:08 5,6 C 69 % 1005,7 hPa 0,0 l/m 5,8 km/h (2 Bft) S-SW 194 0 min 0,000 mm 0,0 UV-I 31 W/m 0,4 C 5,6 C 8,0 km/h (2 Bft) 100,00 %
23.03.2016 15:09 5,5 C 71 % 1005,7 hPa 0,0 l/m 4,4 km/h (1 Bft) S 190 0 min 0,000 mm 0,0 UV-I 33 W/m 0,7 C 5,5 C 6,4 km/h (2 Bft) 100,00 %
23.03.2016 15:10 5,4 C 74 % 1005,7 hPa 0,0 l/m 3,6 km/h (1 Bft) O-SO 121 0 min 0,000 mm 0,0 UV-I 34 W/m 1,1 C 5,4 C 8,0 km/h (2 Bft) 96,15 %
23.03.2016 15:11 5,4 C 76 % 1005,7 hPa 0,0 l/m 6,5 km/h (2 Bft) SO 126 0 min 0,000 mm 0,0 UV-I 35 W/m 1,5 C 5,3 C 8,0 km/h (2 Bft) 98,72 %
23.03.2016 15:12 5,3 C 76 % 1005,7 hPa 0,2 l/m 5,6 km/h (1 Bft) O 83 0 min 0,000 mm 0,0 UV-I 38 W/m 1,4 C 5,3 C 6,4 km/h (2 Bft) 97,87 %
23.03.2016 15:13 5,2 C 79 % 1005,7 hPa 0,0 l/m 6,4 km/h (2 Bft) O 86 0 min 0,000 mm 0,0 UV-I 39 W/m 1,9 C 5,2 C 6,4 km/h (2 Bft) 100,00 %
23.03.2016 15:14 5,1 C 78 % 1005,7 hPa 0,0 l/m 7,0 km/h (2 Bft) O-NO 76 0 min 0,000 mm 0,0 UV-I 39 W/m 1,6 C 4,6 C 8,0 km/h (2 Bft) 100,00 %
23.03.2016 15:15 5,1 C 77 % 1005,7 hPa 0,0 l/m 6,4 km/h (2 Bft) O 83 0 min 0,000 mm 0,0 UV-I 39 W/m 1,4 C 5,1 C 8,0 km/h (2 Bft) 100,00 %
23.03.2016 15:16 5,1 C 77 % 1005,7 hPa 0,0 l/m 5,2 km/h (1 Bft) O-NO 72 0 min 0,000 mm 0,0 UV-I 39 W/m 1,4 C 5,1 C 6,4 km/h (2 Bft) 100,00 %
23.03.2016 15:17 5,1 C 76 % 1005,8 hPa 0,0 l/m 6,0 km/h (2 Bft) O-NO 69 0 min 0,000 mm 0,0 UV-I 37 W/m 1,2 C 5,1 C 8,0 km/h (2 Bft) 100,00 %
23.03.2016 15:18 5,1 C 75 % 1005,8 hPa 0,2 l/m 6,6 km/h (2 Bft) O-NO 67 0 min 0,000 mm 0,0 UV-I 35 W/m 1,0 C 4,9 C 8,0 km/h (2 Bft) 100,00 %
23.03.2016 15:19 5,1 C 74 % 1005,8 hPa 0,0 l/m 8,0 km/h (2 Bft) NO 54 0 min 0,000 mm 0,0 UV-I 34 W/m 0,9 C 3,7 C 11,3 km/h (2 Bft) 100,00 %
23.03.2016 15:20 5,2 C 74 % 1005,8 hPa 0,0 l/m 8,4 km/h (2 Bft) NO 49 0 min 0,000 mm 0,0 UV-I 33 W/m 1,0 C 3,5 C 11,3 km/h (2 Bft) 100,00 %
23.03.2016 15:21 5,2 C 75 % 1005,8 hPa 0,0 l/m 9,0 km/h (2 Bft) NO 46 0 min 0,000 mm 0,0 UV-I 33 W/m 1,1 C 3,0 C 11,3 km/h (2 Bft) 96,30 %
23.03.2016 15:22 5,2 C 77 % 1005,8 hPa 0,0 l/m 9,5 km/h (2 Bft) NO 46 0 min 0,000 mm 0,0 UV-I 35 W/m 1,5 C 2,7 C 12,9 km/h (3 Bft) 100,00 %
23.03.2016 15:23 5,3 C 78 % 1005,8 hPa 0,2 l/m 10,5 km/h (2 Bft) NO 44 0 min 0,000 mm 0,0 UV-I 37 W/m 1,8 C 2,1 C 17,7 km/h (3 Bft) 96,30 %
23.03.2016 15:24 5,2 C 79 % 1005,8 hPa 0,0 l/m 12,8 km/h (3 Bft) O-NO 59 0 min 0,000 mm 0,0 UV-I 40 W/m 1,9 C 0,5 C 16,1 km/h (3 Bft) 100,00 %
23.03.2016 15:25 5,3 C 78 % 1005,7 hPa 0,0 l/m 11,9 km/h (2 Bft) NO 54 0 min 0,000 mm 0,0 UV-I 43 W/m 1,8 C 1,2 C 16,1 km/h (3 Bft) 100,00 %
23.03.2016 15:26 5,2 C 77 % 1005,8 hPa 0,0 l/m 9,9 km/h (2 Bft) O-NO 57 0 min 0,000 mm 0,0 UV-I 47 W/m 1,5 C 2,4 C 14,5 km/h (3 Bft) 100,00 %
23.03.2016 15:27 5,2 C 78 % 1005,7 hPa 0,0 l/m 17,8 km/h (3 Bft) O-NO 71 0 min 0,000 mm 0,0 UV-I 52 W/m 1,7 C -2,0 C 22,5 km/h (4 Bft) 96,30 %
23.03.2016 15:28 5,2 C 77 % 1005,7 hPa 0,0 l/m 13,9 km/h (3 Bft) O 82 0 min 0,000 mm 0,0 UV-I 54 W/m 1,5 C -0,1 C 17,7 km/h (3 Bft) 100,00 %
23.03.2016 15:29 5,3 C 79 % 1005,7 hPa 0,0 l/m 12,5 km/h (3 Bft) O 86 0 min 0,000 mm 0,0 UV-I 56 W/m 2,0 C 0,8 C 14,5 km/h (3 Bft) 100,00 %
23.03.2016 15:30 5,2 C 80 % 1005,7 hPa 0,2 l/m 8,5 km/h (2 Bft) SO 130 0 min 0,000 mm 0,0 UV-I 58 W/m 2,0 C 3,4 C 14,5 km/h (3 Bft) 100,00 %
23.03.2016 15:31 5,2 C 81 % 1005,7 hPa 0,0 l/m 10,1 km/h (2 Bft) O 84 0 min 0,000 mm 0,0 UV-I 59 W/m 2,2 C 2,2 C 14,5 km/h (3 Bft) 100,00 %
23.03.2016 15:32 5,1 C 81 % 1005,6 hPa 0,0 l/m 12,3 km/h (3 Bft) O-SO 116 0 min 0,000 mm 0,0 UV-I 58 W/m 2,1 C 0,7 C 17,7 km/h (3 Bft) 100,00 %
23.03.2016 15:33 5,1 C 82 % 1005,6 hPa 0,0 l/m 12,0 km/h (2 Bft) O-NO 65 0 min 0,000 mm 0,0 UV-I 58 W/m 2,3 C 0,9 C 16,1 km/h (3 Bft) 100,00 %
23.03.2016 15:34 5,1 C 81 % 1005,6 hPa 0,0 l/m 13,3 km/h (3 Bft) O 80 0 min 0,000 mm 0,0 UV-I 56 W/m 2,1 C 0,1 C 19,3 km/h (3 Bft) 100,00 %
23.03.2016 15:35 5,0 C 82 % 1005,6 hPa 0,0 l/m 14,5 km/h (3 Bft) O 97 0 min 0,000 mm 0,0 UV-I 56 W/m 2,2 C -0,7 C 20,9 km/h (4 Bft) 100,00 %
23.03.2016 15:36 5,0 C 81 % 1005,5 hPa 0,0 l/m 15,4 km/h (3 Bft) O-SO 102 0 min 0,000 mm 0,0 UV-I 55 W/m 2,0 C -1,1 C 19,3 km/h (3 Bft) 100,00 %
23.03.2016 15:37 4,9 C 81 % 1005,6 hPa 0,2 l/m 15,1 km/h (3 Bft) O 92 0 min 0,000 mm 0,0 UV-I 55 W/m 1,9 C -1,1 C 19,3 km/h (3 Bft) 100,00 %
23.03.2016 15:38 4,9 C 82 % 1005,5 hPa 0,0 l/m 16,2 km/h (3 Bft) O-SO 103 0 min 0,000 mm 0,0 UV-I 56 W/m 2,1 C -1,6 C 20,9 km/h (4 Bft) 100,00 %
23.03.2016 15:39 4,8 C 82 % 1005,5 hPa 0,0 l/m 16,9 km/h (3 Bft) O-SO 108 0 min 0,000 mm 0,0 UV-I 56 W/m 2,0 C -2,1 C 22,5 km/h (4 Bft) 97,56 %
23.03.2016 15:40 4,8 C 82 % 1005,5 hPa 0,0 l/m 14,2 km/h (3 Bft) O 93 0 min 0,000 mm 0,0 UV-I 58 W/m 2,0 C -0,7 C 20,9 km/h (4 Bft) 100,00 %
23.03.2016 15:41 4,8 C 82 % 1005,5 hPa 0,0 l/m 15,8 km/h (3 Bft) O-SO 111 0 min 0,000 mm 0,0 UV-I 60 W/m 2,0 C -1,6 C 19,3 km/h (3 Bft) 100,00 %
23.03.2016 15:42 4,8 C 82 % 1005,5 hPa 0,0 l/m 13,6 km/h (3 Bft) O-SO 113 0 min 0,000 mm 0,0 UV-I 62 W/m 2,0 C -0,4 C 17,7 km/h (3 Bft) 100,00 %
23.03.2016 15:43 4,7 C 82 % 1005,5 hPa 0,0 l/m 16,2 km/h (3 Bft) O-SO 106 0 min 0,000 mm 0,0 UV-I 62 W/m 1,9 C -1,9 C 19,3 km/h (3 Bft) 100,00 %
23.03.2016 15:44 4,7 C 83 % 1005,5 hPa 0,0 l/m 16,7 km/h (3 Bft) SO 128 0 min 0,000 mm 0,0 UV-I 63 W/m 2,1 C -2,1 C 20,9 km/h (4 Bft) 100,00 %
23.03.2016 15:45 4,7 C 82 % 1005,4 hPa 0,0 l/m 14,7 km/h (3 Bft) O-SO 123 0 min 0,000 mm 0,0 UV-I 64 W/m 1,9 C -1,1 C 19,3 km/h (3 Bft) 93,33 %
23.03.2016 15:46 4,7 C 82 % 1005,4 hPa 0,0 l/m 13,8 km/h (3 Bft) SO 126 0 min 0,000 mm 0,0 UV-I 65 W/m 1,9 C -0,6 C 16,1 km/h (3 Bft) 100,00 %
23.03.2016 15:47 4,7 C 82 % 1005,5 hPa 0,0 l/m 10,5 km/h (2 Bft) O-SO 119 0 min 0,000 mm 0,0 UV-I 67 W/m 1,9 C 1,4 C 14,5 km/h (3 Bft) 100,00 %
23.03.2016 15:48 4,7 C 82 % 1005,5 hPa 0,0 l/m 9,4 km/h (2 Bft) S-SO 153 0 min 0,000 mm 0,0 UV-I 68 W/m 1,9 C 2,2 C 14,5 km/h (3 Bft) 100,00 %
23.03.2016 15:49 4,7 C 83 % 1005,5 hPa 0,0 l/m 11,7 km/h (2 Bft) O 94 0 min 0,000 mm 0,0 UV-I 69 W/m 2,1 C 0,6 C 16,1 km/h (3 Bft) 95,83 %
23.03.2016 15:50 4,7 C 83 % 1005,5 hPa 0,0 l/m 18,8 km/h (3 Bft) O-SO 120 0 min 0,000 mm 0,0 UV-I 70 W/m 2,1 C -3,1 C 24,1 km/h (4 Bft) 96,15 %
23.03.2016 15:51 4,7 C 82 % 1005,5 hPa 0,0 l/m 14,2 km/h (3 Bft) O-SO 107 0 min 0,000 mm 0,0 UV-I 76 W/m 1,9 C -0,9 C 19,3 km/h (3 Bft) 100,00 %
23.03.2016 15:52 4,7 C 83 % 1005,5 hPa 0,0 l/m 12,6 km/h (3 Bft) O-SO 105 0 min 0,000 mm 0,0 UV-I 79 W/m 2,1 C 0,0 C 17,7 km/h (3 Bft) 96,15 %
23.03.2016 15:53 4,7 C 84 % 1005,5 hPa 0,0 l/m 13,0 km/h (3 Bft) O-SO 110 0 min 0,000 mm 0,0 UV-I 81 W/m 2,2 C -0,2 C 14,5 km/h (3 Bft) 100,00 %
23.03.2016 15:54 4,7 C 84 % 1005,5 hPa 0,0 l/m 10,9 km/h (2 Bft) O-SO 123 0 min 0,000 mm 0,0 UV-I 83 W/m 2,2 C 1,1 C 12,9 km/h (3 Bft) 96,15 %
23.03.2016 15:55 4,7 C 84 % 1005,5 hPa 0,0 l/m 12,5 km/h (3 Bft) SO 132 0 min 0,000 mm 0,0 UV-I 85 W/m 2,2 C 0,1 C 16,1 km/h (3 Bft) 100,00 %
23.03.2016 15:56 4,7 C 83 % 1005,5 hPa 0,0 l/m 9,9 km/h (2 Bft) SO 140 0 min 0,000 mm 0,0 UV-I 86 W/m 2,1 C 1,8 C 12,9 km/h (3 Bft) 96,15 %
23.03.2016 15:57 4,7 C 83 % 1005,5 hPa 0,0 l/m 10,4 km/h (2 Bft) O-SO 107 0 min 0,000 mm 0,0 UV-I 88 W/m 2,1 C 1,5 C 14,5 km/h (3 Bft) 96,30 %
23.03.2016 15:58 4,7 C 84 % 1005,5 hPa 0,0 l/m 6,1 km/h (2 Bft) S-SO 159 0 min 0,000 mm 0,0 UV-I 88 W/m 2,2 C 4,7 C 11,3 km/h (2 Bft) 100,00 %
23.03.2016 15:59 4,7 C 84 % 1005,5 hPa 0,0 l/m 12,5 km/h (3 Bft) O-SO 121 0 min 0,000 mm 0,0 UV-I 88 W/m 2,2 C 0,1 C 14,5 km/h (3 Bft) 92,59 %
23.03.2016 16:00 4,8 C 83 % 1005,5 hPa 0,0 l/m 5,9 km/h (2 Bft) S-SO 159 0 min 0,050 mm 0,0 UV-I 90 W/m 2,2 C 4,8 C 11,3 km/h (2 Bft) 100,00 %
23.03.2016 16:02 4,8 C 83 % 1005,6 hPa 0,0 l/m 8,6 km/h (2 Bft) S-SO 151 0 min 0,000 mm 0,0 UV-I 91 W/m 2,2 C 2,9 C 14,5 km/h (3 Bft) 98,21 %
23.03.2016 16:03 4,8 C 84 % 1005,6 hPa 0,0 l/m 8,0 km/h (2 Bft) SO 126 0 min 0,000 mm 0,0 UV-I 95 W/m 2,3 C 3,4 C 12,9 km/h (3 Bft) 95,83 %
23.03.2016 16:04 4,9 C 82 % 1005,6 hPa 0,0 l/m 9,1 km/h (2 Bft) O-SO 119 0 min 0,000 mm 0,0 UV-I 98 W/m 2,1 C 2,6 C 12,9 km/h (3 Bft) 100,00 %
23.03.2016 16:05 4,9 C 83 % 1005,6 hPa 0,0 l/m 5,6 km/h (1 Bft) O-SO 117 0 min 0,000 mm 0,0 UV-I 100 W/m 2,3 C 4,9 C 11,3 km/h (2 Bft) 96,15 %
23.03.2016 16:06 4,9 C 83 % 1005,6 hPa 0,0 l/m 4,5 km/h (1 Bft) S-SO 154 0 min 0,000 mm 0,0 UV-I 103 W/m 2,3 C 4,9 C 8,0 km/h (2 Bft) 95,83 %
23.03.2016 16:07 4,9 C 83 % 1005,6 hPa 0,0 l/m 5,7 km/h (1 Bft) S-SO 159 0 min 0,000 mm 0,0 UV-I 105 W/m 2,3 C 4,9 C 8,0 km/h (2 Bft) 100,00 %
23.03.2016 16:08 5,0 C 83 % 1005,6 hPa 0,0 l/m 5,1 km/h (1 Bft) S-SO 155 0 min 0,000 mm 0,0 UV-I 105 W/m 2,4 C 5,0 C 8,0 km/h (2 Bft) 92,31 %
23.03.2016 16:09 5,1 C 83 % 1005,6 hPa 0,0 l/m 5,9 km/h (2 Bft) SO 128 0 min 0,000 mm 0,0 UV-I 107 W/m 2,5 C 5,1 C 12,9 km/h (3 Bft) 100,00 %
23.03.2016 16:10 5,1 C 82 % 1005,6 hPa 0,0 l/m 7,6 km/h (2 Bft) SO 141 0 min 0,000 mm 0,0 UV-I 109 W/m 2,3 C 4,0 C 11,3 km/h (2 Bft) 96,30 %
23.03.2016 16:11 5,1 C 82 % 1005,6 hPa 0,0 l/m 5,4 km/h (1 Bft) S 169 0 min 0,000 mm 0,0 UV-I 108 W/m 2,3 C 5,1 C 8,0 km/h (2 Bft) 100,00 %
23.03.2016 16:12 5,1 C 83 % 1005,6 hPa 0,0 l/m 4,2 km/h (1 Bft) S-SO 161 0 min 0,000 mm 0,0 UV-I 106 W/m 2,5 C 5,1 C 6,4 km/h (2 Bft) 96,30 %
23.03.2016 16:13 5,2 C 83 % 1005,6 hPa 0,0 l/m 3,1 km/h (1 Bft) S-SO 152 0 min 0,000 mm 0,0 UV-I 103 W/m 2,6 C 5,2 C 6,4 km/h (2 Bft) 95,65 %
23.03.2016 16:14 5,2 C 82 % 1005,6 hPa 0,0 l/m 4,6 km/h (1 Bft) SO 142 0 min 0,000 mm 0,0 UV-I 100 W/m 2,4 C 5,2 C 6,4 km/h (2 Bft) 100,00 %
23.03.2016 16:15 5,2 C 82 % 1005,6 hPa 0,0 l/m 3,3 km/h (1 Bft) S-SO 164 0 min 0,000 mm 0,0 UV-I 97 W/m 2,4 C 5,2 C 6,4 km/h (2 Bft) 96,15 %
23.03.2016 16:16 5,2 C 83 % 1005,6 hPa 0,0 l/m 3,9 km/h (1 Bft) S-SO 149 0 min 0,000 mm 0,0 UV-I 92 W/m 2,6 C 5,2 C 6,4 km/h (2 Bft) 100,00 %
23.03.2016 16:17 5,2 C 83 % 1005,6 hPa 0,0 l/m 1,9 km/h (1 Bft) S-SO 159 0 min 0,000 mm 0,0 UV-I 88 W/m 2,6 C 5,2 C 3,2 km/h (1 Bft) 96,15 %
23.03.2016 16:18 5,2 C 83 % 1005,6 hPa 0,0 l/m 1,8 km/h (1 Bft) S 175 0 min 0,000 mm 0,0 UV-I 83 W/m 2,6 C 5,2 C 4,8 km/h (1 Bft) 100,00 %
23.03.2016 16:19 5,3 C 82 % 1005,7 hPa 0,0 l/m 1,7 km/h (1 Bft) SO 139 0 min 0,000 mm 0,0 UV-I 79 W/m 2,5 C 5,3 C 3,2 km/h (1 Bft) 96,15 %
23.03.2016 16:20 5,3 C 81 % 1005,6 hPa 0,0 l/m 1,4 km/h (1 Bft) S-SO 159 0 min 0,000 mm 0,0 UV-I 74 W/m 2,3 C 5,3 C 3,2 km/h (1 Bft) 100,00 %
23.03.2016 16:21 5,3 C 82 % 1005,7 hPa 0,0 l/m 2,8 km/h (1 Bft) S-SO 165 0 min 0,000 mm 0,0 UV-I 70 W/m 2,5 C 5,3 C 6,4 km/h (2 Bft) 100,00 %
23.03.2016 16:22 5,3 C 83 % 1005,7 hPa 0,0 l/m 1,5 km/h (1 Bft) S-SO 165 0 min 0,000 mm 0,0 UV-I 64 W/m 2,7 C 5,3 C 3,2 km/h (1 Bft) 100,00 %
23.03.2016 16:23 5,3 C 82 % 1005,7 hPa 0,0 l/m 2,4 km/h (1 Bft) S-SO 166 0 min 0,000 mm 0,0 UV-I 61 W/m 2,5 C 5,3 C 6,4 km/h (2 Bft) 100,00 %
23.03.2016 16:24 5,3 C 82 % 1005,6 hPa 0,0 l/m 4,6 km/h (1 Bft) S-SO 166 0 min 0,000 mm 0,0 UV-I 57 W/m 2,5 C 5,3 C 6,4 km/h (2 Bft) 100,00 %
23.03.2016 16:25 5,3 C 83 % 1005,7 hPa 0,0 l/m 4,9 km/h (1 Bft) S 180 0 min 0,000 mm 0,0 UV-I 55 W/m 2,7 C 5,3 C 6,4 km/h (2 Bft) 100,00 %
23.03.2016 16:26 5,3 C 84 % 1005,7 hPa 0,0 l/m 6,1 km/h (2 Bft) S 176 0 min 0,000 mm 0,0 UV-I 53 W/m 2,8 C 5,3 C 6,4 km/h (2 Bft) 100,00 %
23.03.2016 16:27 5,3 C 84 % 1005,7 hPa 0,0 l/m 3,9 km/h (1 Bft) S 185 0 min 0,000 mm 0,0 UV-I 49 W/m 2,8 C 5,3 C 8,0 km/h (2 Bft) 100,00 %
23.03.2016 16:28 5,3 C 83 % 1005,8 hPa 0,0 l/m 4,7 km/h (1 Bft) S-SW 211 0 min 0,000 mm 0,0 UV-I 49 W/m 2,7 C 5,3 C 6,4 km/h (2 Bft) 95,83 %
23.03.2016 16:29 5,3 C 83 % 1005,7 hPa 0,0 l/m 7,0 km/h (2 Bft) S 191 0 min 0,000 mm 0,0 UV-I 47 W/m 2,7 C 4,8 C 9,7 km/h (2 Bft) 100,00 %
23.03.2016 16:30 5,3 C 83 % 1005,7 hPa 0,0 l/m 6,4 km/h (2 Bft) S-SW 201 0 min 0,000 mm 0,0 UV-I 47 W/m 2,7 C 5,3 C 8,0 km/h (2 Bft) 100,00 %
23.03.2016 16:31 5,3 C 83 % 1005,8 hPa 0,0 l/m 5,3 km/h (1 Bft) S 186 0 min 0,000 mm 0,0 UV-I 45 W/m 2,7 C 5,3 C 6,4 km/h (2 Bft) 100,00 %
23.03.2016 16:32 5,3 C 83 % 1005,7 hPa 0,0 l/m 6,0 km/h (2 Bft) S-SW 194 0 min 0,000 mm 0,0 UV-I 44 W/m 2,7 C 5,3 C 8,0 km/h (2 Bft) 100,00 %
23.03.2016 16:33 5,3 C 83 % 1005,7 hPa 0,0 l/m 7,7 km/h (2 Bft) S-SW 196 0 min 0,000 mm 0,0 UV-I 42 W/m 2,7 C 4,2 C 9,7 km/h (2 Bft) 100,00 %
23.03.2016 16:34 5,3 C 83 % 1005,8 hPa 0,0 l/m 7,1 km/h (2 Bft) S-SW 201 0 min 0,000 mm 0,0 UV-I 42 W/m 2,7 C 4,7 C 8,0 km/h (2 Bft) 100,00 %
23.03.2016 16:35 5,3 C 83 % 1005,7 hPa 0,0 l/m 5,3 km/h (1 Bft) S-SW 204 0 min 0,000 mm 0,0 UV-I 40 W/m 2,7 C 5,3 C 6,4 km/h (2 Bft) 100,00 %
23.03.2016 16:36 5,4 C 83 % 1005,8 hPa 0,0 l/m 5,3 km/h (1 Bft) W-SW 240 0 min 0,000 mm 0,0 UV-I 40 W/m 2,7 C 5,4 C 6,4 km/h (2 Bft) 100,00 %
23.03.2016 16:37 5,3 C 83 % 1005,7 hPa 0,0 l/m 6,0 km/h (2 Bft) S-SW 192 0 min 0,000 mm 0,0 UV-I 38 W/m 2,7 C 5,3 C 8,0 km/h (2 Bft) 100,00 %
23.03.2016 16:38 5,3 C 83 % 1005,8 hPa 0,0 l/m 5,1 km/h (1 Bft) S-SW 207 0 min 0,000 mm 0,0 UV-I 36 W/m 2,7 C 5,3 C 8,0 km/h (2 Bft) 100,00 %
23.03.2016 16:39 5,3 C 83 % 1005,8 hPa 0,0 l/m 4,6 km/h (1 Bft) S 190 0 min 0,000 mm 0,0 UV-I 35 W/m 2,7 C 5,3 C 8,0 km/h (2 Bft) 100,00 %
23.03.2016 16:40 5,3 C 83 % 1005,8 hPa 0,0 l/m 8,6 km/h (2 Bft) S-SW 194 0 min 0,000 mm 0,0 UV-I 35 W/m 2,7 C 3,4 C 9,7 km/h (2 Bft) 100,00 %
23.03.2016 16:41 5,3 C 82 % 1005,7 hPa 0,0 l/m 5,3 km/h (1 Bft) S-SW 206 0 min 0,000 mm 0,0 UV-I 37 W/m 2,5 C 5,3 C 9,7 km/h (2 Bft) 100,00 %
23.03.2016 16:42 5,3 C 82 % 1005,8 hPa 0,0 l/m 5,0 km/h (1 Bft) S 186 0 min 0,000 mm 0,0 UV-I 37 W/m 2,5 C 5,3 C 6,4 km/h (2 Bft) 100,00 %
23.03.2016 16:43 5,4 C 82 % 1005,8 hPa 0,0 l/m 6,8 km/h (2 Bft) S-SW 200 0 min 0,000 mm 0,0 UV-I 37 W/m 2,6 C 5,1 C 9,7 km/h (2 Bft) 100,00 %
23.03.2016 16:44 5,4 C 82 % 1005,8 hPa 0,0 l/m 7,6 km/h (2 Bft) S 188 0 min 0,000 mm 0,0 UV-I 39 W/m 2,6 C 4,4 C 9,7 km/h (2 Bft) 100,00 %
23.03.2016 16:45 5,4 C 82 % 1005,8 hPa 0,0 l/m 7,1 km/h (2 Bft) S-SW 196 0 min 0,000 mm 0,0 UV-I 39 W/m 2,6 C 4,8 C 9,7 km/h (2 Bft) 100,00 %
23.03.2016 16:46 5,4 C 82 % 1005,8 hPa 0,0 l/m 4,8 km/h (1 Bft) S-SW 207 0 min 0,000 mm 0,0 UV-I 40 W/m 2,6 C 5,4 C 6,4 km/h (2 Bft) 100,00 %
23.03.2016 16:47 5,4 C 82 % 1005,8 hPa 0,0 l/m 5,2 km/h (1 Bft) S 184 0 min 0,000 mm 0,0 UV-I 42 W/m 2,6 C 5,4 C 8,0 km/h (2 Bft) 100,00 %
23.03.2016 16:48 5,4 C 83 % 1005,8 hPa 0,0 l/m 6,2 km/h (2 Bft) S 188 0 min 0,000 mm 0,0 UV-I 42 W/m 2,7 C 5,4 C 8,0 km/h (2 Bft) 100,00 %
23.03.2016 16:49 5,4 C 83 % 1005,8 hPa 0,0 l/m 8,5 km/h (2 Bft) S-SW 196 0 min 0,000 mm 0,0 UV-I 44 W/m 2,7 C 3,6 C 11,3 km/h (2 Bft) 100,00 %
23.03.2016 16:50 5,4 C 82 % 1005,8 hPa 0,0 l/m 6,8 km/h (2 Bft) S-SW 194 0 min 0,000 mm 0,0 UV-I 44 W/m 2,6 C 5,1 C 9,7 km/h (2 Bft) 100,00 %
23.03.2016 16:51 5,4 C 81 % 1005,8 hPa 0,0 l/m 6,7 km/h (2 Bft) S-SO 167 0 min 0,000 mm 0,0 UV-I 44 W/m 2,4 C 5,2 C 9,7 km/h (2 Bft) 96,15 %
23.03.2016 16:52 5,5 C 81 % 1005,8 hPa 0,0 l/m 4,0 km/h (1 Bft) S 186 0 min 0,000 mm 0,0 UV-I 44 W/m 2,5 C 5,5 C 6,4 km/h (2 Bft) 100,00 %
23.03.2016 16:53 5,5 C 81 % 1005,8 hPa 0,0 l/m 5,6 km/h (1 Bft) SO 146 0 min 0,000 mm 0,0 UV-I 44 W/m 2,5 C 5,5 C 6,4 km/h (2 Bft) 100,00 %
23.03.2016 16:54 5,5 C 81 % 1005,8 hPa 0,0 l/m 4,7 km/h (1 Bft) S 187 0 min 0,000 mm 0,0 UV-I 43 W/m 2,5 C 5,5 C 8,0 km/h (2 Bft) 100,00 %
23.03.2016 16:55 5,6 C 80 % 1005,8 hPa 0,0 l/m 5,4 km/h (1 Bft) S 186 0 min 0,000 mm 0,0 UV-I 42 W/m 2,4 C 5,6 C 9,7 km/h (2 Bft) 100,00 %
23.03.2016 16:56 5,6 C 80 % 1005,7 hPa 0,0 l/m 11,1 km/h (2 Bft) S-SW 211 0 min 0,000 mm 0,0 UV-I 42 W/m 2,4 C 2,0 C 16,1 km/h (3 Bft) 100,00 %
23.03.2016 16:57 5,6 C 79 % 1005,7 hPa 0,0 l/m 7,2 km/h (2 Bft) S 190 0 min 0,000 mm 0,0 UV-I 42 W/m 2,3 C 4,9 C 11,3 km/h (2 Bft) 100,00 %
23.03.2016 16:58 5,6 C 80 % 1005,8 hPa 0,0 l/m 8,0 km/h (2 Bft) S-SW 193 0 min 0,000 mm 0,0 UV-I 42 W/m 2,4 C 4,2 C 9,7 km/h (2 Bft) 100,00 %
23.03.2016 16:59 5,6 C 79 % 1005,8 hPa 0,0 l/m 7,6 km/h (2 Bft) S-SW 204 0 min 0,000 mm 0,0 UV-I 41 W/m 2,3 C 4,6 C 11,3 km/h (2 Bft) 100,00 %
23.03.2016 17:00 5,6 C 79 % 1005,8 hPa 0,0 l/m 7,0 km/h (2 Bft) SW 218 0 min 0,000 mm 0,0 UV-I 40 W/m 2,3 C 5,1 C 11,3 km/h (2 Bft) 100,00 %
23.03.2016 17:02 5,7 C 79 % 1005,8 hPa 0,0 l/m 9,0 km/h (2 Bft) S-SW 209 0 min 0,026 mm 0,0 UV-I 39 W/m 2,3 C 3,6 C 14,5 km/h (3 Bft) 97,37 %
23.03.2016 17:03 5,7 C 79 % 1005,8 hPa 0,0 l/m 8,9 km/h (2 Bft) SW 219 0 min 0,000 mm 0,0 UV-I 39 W/m 2,3 C 3,6 C 20,9 km/h (4 Bft) 100,00 %
23.03.2016 17:04 5,7 C 79 % 1005,8 hPa 0,0 l/m 12,2 km/h (2 Bft) S-SO 161 0 min 0,000 mm 0,0 UV-I 37 W/m 2,3 C 1,4 C 16,1 km/h (3 Bft) 100,00 %
23.03.2016 17:05 5,7 C 79 % 1005,8 hPa 0,0 l/m 8,6 km/h (2 Bft) S 189 0 min 0,000 mm 0,0 UV-I 35 W/m 2,3 C 3,9 C 12,9 km/h (3 Bft) 100,00 %
23.03.2016 17:06 5,6 C 80 % 1005,9 hPa 0,0 l/m 7,2 km/h (2 Bft) SW 215 0 min 0,000 mm 0,0 UV-I 34 W/m 2,4 C 4,9 C 9,7 km/h (2 Bft) 95,65 %
23.03.2016 17:07 5,6 C 80 % 1005,9 hPa 0,0 l/m 4,0 km/h (1 Bft) SW 225 0 min 0,000 mm 0,0 UV-I 32 W/m 2,4 C 5,6 C 4,8 km/h (1 Bft) 100,00 %
23.03.2016 17:08 5,6 C 80 % 1005,9 hPa 0,0 l/m 7,3 km/h (2 Bft) SW 225 0 min 0,000 mm 0,0 UV-I 32 W/m 2,4 C 4,8 C 8,0 km/h (2 Bft) 92,31 %
23.03.2016 17:09 5,7 C 80 % 1005,9 hPa 0,0 l/m 5,2 km/h (1 Bft) S 183 0 min 0,000 mm 0,0 UV-I 30 W/m 2,5 C 5,7 C 8,0 km/h (2 Bft) 100,00 %
23.03.2016 17:10 5,6 C 80 % 1005,9 hPa 0,0 l/m 4,1 km/h (1 Bft) S 182 0 min 0,000 mm 0,0 UV-I 29 W/m 2,4 C 5,6 C 8,0 km/h (2 Bft) 100,00 %
23.03.2016 17:11 5,6 C 81 % 1005,9 hPa 0,0 l/m 4,8 km/h (1 Bft) S 186 0 min 0,000 mm 0,0 UV-I 28 W/m 2,6 C 5,6 C 8,0 km/h (2 Bft) 100,00 %
23.03.2016 17:12 5,6 C 80 % 1005,9 hPa 0,0 l/m 7,1 km/h (2 Bft) S-SW 194 0 min 0,000 mm 0,0 UV-I 27 W/m 2,4 C 5,0 C 9,7 km/h (2 Bft) 100,00 %
23.03.2016 17:13 5,6 C 80 % 1005,9 hPa 0,0 l/m 7,8 km/h (2 Bft) W-SW 244 0 min 0,000 mm 0,0 UV-I 26 W/m 2,4 C 4,4 C 11,3 km/h (2 Bft) 100,00 %
23.03.2016 17:14 5,6 C 80 % 1005,9 hPa 0,0 l/m 8,4 km/h (2 Bft) S-SW 200 0 min 0,000 mm 0,0 UV-I 25 W/m 2,4 C 3,9 C 11,3 km/h (2 Bft) 100,00 %
23.03.2016 17:15 5,6 C 80 % 1006,0 hPa 0,0 l/m 4,8 km/h (1 Bft) S 182 0 min 0,000 mm 0,0 UV-I 25 W/m 2,4 C 5,6 C 8,0 km/h (2 Bft) 100,00 %
23.03.2016 17:16 5,6 C 80 % 1006,0 hPa 0,0 l/m 4,8 km/h (1 Bft) S 187 0 min 0,000 mm 0,0 UV-I 24 W/m 2,4 C 5,6 C 6,4 km/h (2 Bft) 100,00 %
23.03.2016 17:17 5,6 C 81 % 1006,0 hPa 0,0 l/m 7,6 km/h (2 Bft) SW 225 0 min 0,000 mm 0,0 UV-I 23 W/m 2,6 C 4,6 C 11,3 km/h (2 Bft) 100,00 %
23.03.2016 17:18 5,6 C 80 % 1006,0 hPa 0,0 l/m 7,8 km/h (2 Bft) S 180 0 min 0,000 mm 0,0 UV-I 22 W/m 2,4 C 4,4 C 11,3 km/h (2 Bft) 100,00 %
23.03.2016 17:19 5,6 C 80 % 1005,9 hPa 0,0 l/m 5,4 km/h (1 Bft) S-SW 210 0 min 0,000 mm 0,0 UV-I 21 W/m 2,4 C 5,6 C 9,7 km/h (2 Bft) 100,00 %
23.03.2016 17:20 5,6 C 80 % 1006,0 hPa 0,0 l/m 4,1 km/h (1 Bft) S-SW 202 0 min 0,000 mm 0,0 UV-I 21 W/m 2,4 C 5,6 C 6,4 km/h (2 Bft) 100,00 %
23.03.2016 17:21 5,6 C 80 % 1006,0 hPa 0,0 l/m 7,5 km/h (2 Bft) S-SW 211 0 min 0,000 mm 0,0 UV-I 19 W/m 2,4 C 4,6 C 9,7 km/h (2 Bft) 100,00 %
23.03.2016 17:22 5,6 C 80 % 1006,0 hPa 0,0 l/m 5,9 km/h (2 Bft) S-SW 208 0 min 0,000 mm 0,0 UV-I 19 W/m 2,4 C 5,6 C 8,0 km/h (2 Bft) 96,15 %
23.03.2016 17:23 5,6 C 80 % 1006,0 hPa 0,0 l/m 5,2 km/h (1 Bft) S-SW 205 0 min 0,000 mm 0,0 UV-I 18 W/m 2,4 C 5,6 C 8,0 km/h (2 Bft) 100,00 %
23.03.2016 17:24 5,6 C 80 % 1006,0 hPa 0,0 l/m 3,3 km/h (1 Bft) S-SW 212 0 min 0,000 mm 0,0 UV-I 18 W/m 2,4 C 5,6 C 4,8 km/h (1 Bft) 100,00 %
23.03.2016 17:25 5,6 C 81 % 1006,0 hPa 0,0 l/m 4,9 km/h (1 Bft) S 179 0 min 0,000 mm 0,0 UV-I 18 W/m 2,6 C 5,6 C 6,4 km/h (2 Bft) 100,00 %
23.03.2016 17:26 5,6 C 80 % 1006,0 hPa 0,0 l/m 4,1 km/h (1 Bft) SW 224 0 min 0,000 mm 0,0 UV-I 16 W/m 2,4 C 5,6 C 4,8 km/h (1 Bft) 100,00 %
23.03.2016 17:27 5,6 C 80 % 1006,1 hPa 0,0 l/m 4,6 km/h (1 Bft) SW 231 0 min 0,000 mm 0,0 UV-I 16 W/m 2,4 C 5,6 C 6,4 km/h (2 Bft) 100,00 %
23.03.2016 17:28 5,5 C 81 % 1006,1 hPa 0,0 l/m 5,9 km/h (2 Bft) SW 232 0 min 0,000 mm 0,0 UV-I 16 W/m 2,5 C 5,5 C 8,0 km/h (2 Bft) 100,00 %
23.03.2016 17:29 5,6 C 82 % 1006,1 hPa 0,0 l/m 5,4 km/h (1 Bft) W-SW 256 0 min 0,000 mm 0,0 UV-I 15 W/m 2,8 C 5,6 C 6,4 km/h (2 Bft) 100,00 %
23.03.2016 17:30 5,5 C 81 % 1006,1 hPa 0,0 l/m 5,2 km/h (1 Bft) W-SW 252 0 min 0,000 mm 0,0 UV-I 14 W/m 2,5 C 5,5 C 8,0 km/h (2 Bft) 100,00 %
23.03.2016 17:31 5,5 C 81 % 1006,1 hPa 0,0 l/m 7,2 km/h (2 Bft) S-SW 196 0 min 0,000 mm 0,0 UV-I 14 W/m 2,5 C 4,8 C 8,0 km/h (2 Bft) 100,00 %
23.03.2016 17:32 5,5 C 81 % 1006,1 hPa 0,0 l/m 7,4 km/h (2 Bft) S-SW 202 0 min 0,000 mm 0,0 UV-I 14 W/m 2,5 C 4,6 C 9,7 km/h (2 Bft) 100,00 %
23.03.2016 17:33 5,4 C 80 % 1006,1 hPa 0,0 l/m 7,7 km/h (2 Bft) S-SW 207 0 min 0,000 mm 0,0 UV-I 14 W/m 2,2 C 4,3 C 11,3 km/h (2 Bft) 100,00 %
23.03.2016 17:34 5,5 C 80 % 1006,1 hPa 0,0 l/m 6,4 km/h (2 Bft) SW 217 0 min 0,000 mm 0,0 UV-I 12 W/m 2,3 C 5,5 C 9,7 km/h (2 Bft) 100,00 %
23.03.2016 17:35 5,5 C 80 % 1006,1 hPa 0,0 l/m 7,9 km/h (2 Bft) S-SW 211 0 min 0,000 mm 0,0 UV-I 12 W/m 2,3 C 4,2 C 11,3 km/h (2 Bft) 100,00 %
23.03.2016 17:36 5,5 C 81 % 1006,2 hPa 0,0 l/m 7,6 km/h (2 Bft) S-SW 211 0 min 0,000 mm 0,0 UV-I 12 W/m 2,5 C 4,5 C 12,9 km/h (3 Bft) 100,00 %
23.03.2016 17:37 5,5 C 81 % 1006,2 hPa 0,0 l/m 6,4 km/h (2 Bft) SW 227 0 min 0,000 mm 0,0 UV-I 12 W/m 2,5 C 5,5 C 8,0 km/h (2 Bft) 96,15 %
23.03.2016 17:38 5,5 C 82 % 1006,2 hPa 0,0 l/m 5,2 km/h (1 Bft) S-SW 206 0 min 0,000 mm 0,0 UV-I 12 W/m 2,7 C 5,5 C 8,0 km/h (2 Bft) 100,00 %
23.03.2016 17:39 5,4 C 82 % 1006,2 hPa 0,0 l/m 6,4 km/h (2 Bft) S 180 0 min 0,000 mm 0,0 UV-I 12 W/m 2,6 C 5,4 C 11,3 km/h (2 Bft) 100,00 %
23.03.2016 17:40 5,4 C 81 % 1006,2 hPa 0,0 l/m 7,7 km/h (2 Bft) S-SW 213 0 min 0,000 mm 0,0 UV-I 11 W/m 2,4 C 4,3 C 11,3 km/h (2 Bft) 100,00 %
23.03.2016 17:41 5,4 C 81 % 1006,2 hPa 0,0 l/m 8,6 km/h (2 Bft) S 169 0 min 0,000 mm 0,0 UV-I 11 W/m 2,4 C 3,5 C 14,5 km/h (3 Bft) 96,15 %
23.03.2016 17:42 5,4 C 81 % 1006,2 hPa 0,0 l/m 6,8 km/h (2 Bft) S 184 0 min 0,000 mm 0,0 UV-I 11 W/m 2,4 C 5,1 C 11,3 km/h (2 Bft) 100,00 %
23.03.2016 17:43 5,4 C 80 % 1006,2 hPa 0,0 l/m 7,5 km/h (2 Bft) SW 235 0 min 0,000 mm 0,0 UV-I 11 W/m 2,2 C 4,4 C 11,3 km/h (2 Bft) 100,00 %
23.03.2016 17:44 5,4 C 81 % 1006,2 hPa 0,0 l/m 7,0 km/h (2 Bft) S-SW 194 0 min 0,000 mm 0,0 UV-I 11 W/m 2,4 C 4,9 C 9,7 km/h (2 Bft) 96,67 %
23.03.2016 17:45 5,4 C 81 % 1006,2 hPa 0,0 l/m 9,4 km/h (2 Bft) SW 217 0 min 0,000 mm 0,0 UV-I 11 W/m 2,4 C 2,9 C 9,7 km/h (2 Bft) 94,44 %
23.03.2016 17:46 5,4 C 80 % 1006,2 hPa 0,0 l/m 8,2 km/h (2 Bft) W 259 0 min 0,000 mm 0,0 UV-I 11 W/m 2,2 C 3,9 C 11,3 km/h (2 Bft) 100,00 %
23.03.2016 17:47 5,4 C 81 % 1006,3 hPa 0,0 l/m 6,7 km/h (2 Bft) S-SW 198 0 min 0,000 mm 0,0 UV-I 11 W/m 2,4 C 5,2 C 12,9 km/h (3 Bft) 100,00 %
23.03.2016 17:48 5,4 C 80 % 1006,2 hPa 0,0 l/m 6,4 km/h (2 Bft) S-SW 207 0 min 0,000 mm 0,0 UV-I 10 W/m 2,2 C 5,4 C 9,7 km/h (2 Bft) 100,00 %
23.03.2016 17:49 5,4 C 80 % 1006,2 hPa 0,0 l/m 10,1 km/h (2 Bft) S 191 0 min 0,000 mm 0,0 UV-I 9 W/m 2,2 C 2,4 C 12,9 km/h (3 Bft) 100,00 %
23.03.2016 17:50 5,4 C 80 % 1006,2 hPa 0,0 l/m 9,3 km/h (2 Bft) W 274 0 min 0,000 mm 0,0 UV-I 9 W/m 2,2 C 3,0 C 14,5 km/h (3 Bft) 96,15 %
23.03.2016 17:51 5,4 C 80 % 1006,2 hPa 0,0 l/m 9,8 km/h (2 Bft) S-SW 207 0 min 0,000 mm 0,0 UV-I 9 W/m 2,2 C 2,7 C 14,5 km/h (3 Bft) 100,00 %
23.03.2016 17:52 5,3 C 80 % 1006,3 hPa 0,0 l/m 7,3 km/h (2 Bft) W-SW 239 0 min 0,000 mm 0,0 UV-I 9 W/m 2,1 C 4,5 C 11,3 km/h (2 Bft) 91,30 %
23.03.2016 17:53 5,3 C 80 % 1006,3 hPa 0,0 l/m 6,9 km/h (2 Bft) SW 234 0 min 0,000 mm 0,0 UV-I 9 W/m 2,1 C 4,9 C 11,3 km/h (2 Bft) 100,00 %
23.03.2016 17:54 5,3 C 80 % 1006,3 hPa 0,0 l/m 7,3 km/h (2 Bft) SW 231 0 min 0,000 mm 0,0 UV-I 9 W/m 2,1 C 4,5 C 11,3 km/h (2 Bft) 95,65 %
23.03.2016 17:55 5,3 C 80 % 1006,3 hPa 0,0 l/m 9,2 km/h (2 Bft) S-SW 201 0 min 0,000 mm 0,0 UV-I 9 W/m 2,1 C 3,0 C 12,9 km/h (3 Bft) 96,67 %
23.03.2016 17:56 5,3 C 80 % 1006,3 hPa 0,0 l/m 7,9 km/h (2 Bft) SW 234 0 min 0,000 mm 0,0 UV-I 9 W/m 2,1 C 4,0 C 11,3 km/h (2 Bft) 100,00 %
23.03.2016 17:57 5,3 C 80 % 1006,3 hPa 0,0 l/m 8,2 km/h (2 Bft) SW 218 0 min 0,000 mm 0,0 UV-I 8 W/m 2,1 C 3,8 C 14,5 km/h (3 Bft) 100,00 %
23.03.2016 17:58 5,3 C 81 % 1006,3 hPa 0,0 l/m 5,9 km/h (2 Bft) S-SW 205 0 min 0,000 mm 0,0 UV-I 7 W/m 2,3 C 5,3 C 9,7 km/h (2 Bft) 95,65 %
23.03.2016 17:59 5,3 C 81 % 1006,3 hPa 0,0 l/m 5,3 km/h (1 Bft) SW 217 0 min 0,000 mm 0,0 UV-I 7 W/m 2,3 C 5,3 C 6,4 km/h (2 Bft) 96,30 %
23.03.2016 18:00 5,3 C 81 % 1006,3 hPa 0,0 l/m 5,7 km/h (1 Bft) SW 229 0 min 0,000 mm 0,0 UV-I 7 W/m 2,3 C 5,3 C 8,0 km/h (2 Bft) 96,15 %
23.03.2016 18:02 5,3 C 81 % 1006,3 hPa 0,0 l/m 4,6 km/h (1 Bft) SW 230 0 min 0,025 mm 0,0 UV-I 7 W/m 2,3 C 5,3 C 8,0 km/h (2 Bft) 97,62 %
23.03.2016 18:03 5,3 C 81 % 1006,3 hPa 0,0 l/m 7,0 km/h (2 Bft) SW 220 0 min 0,000 mm 0,0 UV-I 7 W/m 2,3 C 4,8 C 9,7 km/h (2 Bft) 95,65 %
23.03.2016 18:04 5,3 C 82 % 1006,3 hPa 0,0 l/m 5,3 km/h (1 Bft) W-SW 257 0 min 0,000 mm 0,0 UV-I 7 W/m 2,5 C 5,3 C 11,3 km/h (2 Bft) 100,00 %
23.03.2016 18:05 5,3 C 82 % 1006,3 hPa 0,0 l/m 8,4 km/h (2 Bft) W-SW 239 0 min 0,000 mm 0,0 UV-I 7 W/m 2,5 C 3,6 C 12,9 km/h (3 Bft) 96,15 %
23.03.2016 18:06 5,3 C 82 % 1006,4 hPa 0,0 l/m 8,0 km/h (2 Bft) SW 228 0 min 0,000 mm 0,0 UV-I 7 W/m 2,5 C 3,9 C 12,9 km/h (3 Bft) 96,15 %
23.03.2016 18:07 5,3 C 82 % 1006,3 hPa 0,0 l/m 8,7 km/h (2 Bft) W-SW 238 0 min 0,000 mm 0,0 UV-I 5 W/m 2,5 C 3,4 C 12,9 km/h (3 Bft) 100,00 %
23.03.2016 18:08 5,3 C 82 % 1006,4 hPa 0,0 l/m 9,4 km/h (2 Bft) SW 224 0 min 0,000 mm 0,0 UV-I 5 W/m 2,5 C 2,8 C 12,9 km/h (3 Bft) 96,67 %
23.03.2016 18:09 5,2 C 82 % 1006,4 hPa 0,0 l/m 9,7 km/h (2 Bft) S 188 0 min 0,000 mm 0,0 UV-I 5 W/m 2,4 C 2,5 C 16,1 km/h (3 Bft) 100,00 %
23.03.2016 18:10 5,2 C 83 % 1006,4 hPa 0,0 l/m 8,0 km/h (2 Bft) S-SW 200 0 min 0,000 mm 0,0 UV-I 5 W/m 2,6 C 3,8 C 11,3 km/h (2 Bft) 96,30 %
23.03.2016 18:11 5,2 C 83 % 1006,4 hPa 0,0 l/m 8,8 km/h (2 Bft) SW 224 0 min 0,000 mm 0,0 UV-I 5 W/m 2,6 C 3,2 C 12,9 km/h (3 Bft) 100,00 %
23.03.2016 18:12 5,2 C 83 % 1006,4 hPa 0,0 l/m 8,1 km/h (2 Bft) S-SW 210 0 min 0,000 mm 0,0 UV-I 5 W/m 2,6 C 3,7 C 11,3 km/h (2 Bft) 93,33 %
23.03.2016 18:13 5,2 C 83 % 1006,4 hPa 0,0 l/m 8,7 km/h (2 Bft) SW 225 0 min 0,000 mm 0,0 UV-I 5 W/m 2,6 C 3,3 C 12,9 km/h (3 Bft) 91,30 %
23.03.2016 18:14 5,2 C 83 % 1006,4 hPa 0,0 l/m 9,3 km/h (2 Bft) S 191 0 min 0,000 mm 0,0 UV-I 5 W/m 2,6 C 2,8 C 14,5 km/h (3 Bft) 95,83 %
23.03.2016 18:15 5,2 C 83 % 1006,4 hPa 0,0 l/m 8,6 km/h (2 Bft) S 188 0 min 0,000 mm 0,0 UV-I 5 W/m 2,6 C 3,3 C 11,3 km/h (2 Bft) 92,31 %
23.03.2016 18:16 5,2 C 82 % 1006,4 hPa 0,0 l/m 8,9 km/h (2 Bft) S-SW 209 0 min 0,000 mm 0,0 UV-I 2 W/m 2,4 C 3,1 C 12,9 km/h (3 Bft) 100,00 %
23.03.2016 18:17 5,2 C 82 % 1006,4 hPa 0,0 l/m 11,8 km/h (2 Bft) SW 221 0 min 0,000 mm 0,0 UV-I 0 W/m 2,4 C 1,1 C 17,7 km/h (3 Bft) 96,15 %
23.03.2016 18:18 5,2 C 82 % 1006,4 hPa 0,0 l/m 7,6 km/h (2 Bft) S-SW 207 0 min 0,000 mm 0,0 UV-I 0 W/m 2,4 C 4,1 C 9,7 km/h (2 Bft) 100,00 %
23.03.2016 18:19 5,2 C 82 % 1006,4 hPa 0,0 l/m 8,9 km/h (2 Bft) S-SW 194 0 min 0,000 mm 0,0 UV-I 0 W/m 2,4 C 3,1 C 12,9 km/h (3 Bft) 96,15 %
23.03.2016 18:20 5,1 C 82 % 1006,5 hPa 0,0 l/m 7,6 km/h (2 Bft) S-SW 195 0 min 0,000 mm 0,0 UV-I 0 W/m 2,3 C 4,0 C 11,3 km/h (2 Bft) 96,30 %
23.03.2016 18:21 5,1 C 82 % 1006,4 hPa 0,0 l/m 8,9 km/h (2 Bft) SW 216 0 min 0,000 mm 0,0 UV-I 0 W/m 2,3 C 3,0 C 14,5 km/h (3 Bft) 94,44 %
23.03.2016 18:22 5,1 C 81 % 1006,5 hPa 0,0 l/m 9,0 km/h (2 Bft) S-SW 192 0 min 0,000 mm 0,0 UV-I 0 W/m 2,1 C 2,9 C 14,5 km/h (3 Bft) 100,00 %
23.03.2016 18:23 5,1 C 81 % 1006,5 hPa 0,0 l/m 10,7 km/h (2 Bft) S 180 0 min 0,000 mm 0,0 UV-I 0 W/m 2,1 C 1,7 C 17,7 km/h (3 Bft) 95,83 %
23.03.2016 18:24 5,1 C 81 % 1006,5 hPa 0,0 l/m 6,5 km/h (2 Bft) S-SW 196 0 min 0,000 mm 0,0 UV-I 0 W/m 2,1 C 5,0 C 8,0 km/h (2 Bft) 96,55 %
23.03.2016 18:25 5,1 C 81 % 1006,5 hPa 0,0 l/m 8,9 km/h (2 Bft) S-SW 195 0 min 0,000 mm 0,0 UV-I 0 W/m 2,1 C 3,0 C 11,3 km/h (2 Bft) 100,00 %
23.03.2016 18:26 5,1 C 81 % 1006,4 hPa 0,0 l/m 10,5 km/h (2 Bft) S-SW 212 0 min 0,000 mm 0,0 UV-I 0 W/m 2,1 C 1,8 C 14,5 km/h (3 Bft) 95,83 %
23.03.2016 18:27 5,1 C 81 % 1006,5 hPa 0,0 l/m 6,0 km/h (2 Bft) S-SW 201 0 min 0,000 mm 0,0 UV-I 0 W/m 2,1 C 5,1 C 9,7 km/h (2 Bft) 100,00 %
23.03.2016 18:28 5,1 C 81 % 1006,5 hPa 0,0 l/m 5,7 km/h (1 Bft) S-SW 212 0 min 0,000 mm 0,0 UV-I 0 W/m 2,1 C 5,1 C 9,7 km/h (2 Bft) 100,00 %
23.03.2016 18:29 5,1 C 81 % 1006,5 hPa 0,0 l/m 9,1 km/h (2 Bft) S-SW 207 0 min 0,000 mm 0,0 UV-I 0 W/m 2,1 C 2,8 C 12,9 km/h (3 Bft) 100,00 %
23.03.2016 18:30 5,1 C 81 % 1006,5 hPa 0,0 l/m 10,1 km/h (2 Bft) S-SW 212 0 min 0,000 mm 0,0 UV-I 0 W/m 2,1 C 2,1 C 16,1 km/h (3 Bft) 100,00 %
23.03.2016 18:31 5,1 C 80 % 1006,4 hPa 0,0 l/m 10,2 km/h (2 Bft) S 171 0 min 0,000 mm 0,0 UV-I 0 W/m 1,9 C 2,0 C 14,5 km/h (3 Bft) 100,00 %
23.03.2016 18:32 5,1 C 81 % 1006,5 hPa 0,0 l/m 9,1 km/h (2 Bft) S 188 0 min 0,000 mm 0,0 UV-I 0 W/m 2,1 C 2,8 C 12,9 km/h (3 Bft) 96,15 %
23.03.2016 18:33 5,1 C 81 % 1006,5 hPa 0,0 l/m 8,0 km/h (2 Bft) S-SW 208 0 min 0,000 mm 0,0 UV-I 0 W/m 2,1 C 3,7 C 11,3 km/h (2 Bft) 96,30 %
23.03.2016 18:34 5,1 C 80 % 1006,5 hPa 0,0 l/m 6,4 km/h (2 Bft) W-SW 243 0 min 0,000 mm 0,0 UV-I 0 W/m 1,9 C 5,1 C 9,7 km/h (2 Bft) 96,15 %
23.03.2016 18:35 5,0 C 80 % 1006,5 hPa 0,0 l/m 8,7 km/h (2 Bft) SW 223 0 min 0,000 mm 0,0 UV-I 0 W/m 1,8 C 3,0 C 14,5 km/h (3 Bft) 100,00 %
23.03.2016 18:36 5,0 C 81 % 1006,6 hPa 0,0 l/m 8,3 km/h (2 Bft) SW 229 0 min 0,000 mm 0,0 UV-I 0 W/m 2,0 C 3,4 C 12,9 km/h (3 Bft) 100,00 %
23.03.2016 18:37 5,0 C 80 % 1006,6 hPa 0,0 l/m 11,0 km/h (2 Bft) SW 233 0 min 0,000 mm 0,0 UV-I 0 W/m 1,8 C 1,4 C 14,5 km/h (3 Bft) 100,00 %
23.03.2016 18:38 5,0 C 80 % 1006,6 hPa 0,0 l/m 9,7 km/h (2 Bft) S-SW 199 0 min 0,000 mm 0,0 UV-I 0 W/m 1,8 C 2,3 C 14,5 km/h (3 Bft) 100,00 %
23.03.2016 18:39 5,0 C 80 % 1006,6 hPa 0,0 l/m 9,7 km/h (2 Bft) S 191 0 min 0,000 mm 0,0 UV-I 0 W/m 1,8 C 2,3 C 17,7 km/h (3 Bft) 100,00 %
23.03.2016 18:40 5,0 C 80 % 1006,6 hPa 0,0 l/m 9,0 km/h (2 Bft) S-SW 204 0 min 0,000 mm 0,0 UV-I 0 W/m 1,8 C 2,8 C 11,3 km/h (2 Bft) 100,00 %
23.03.2016 18:41 5,0 C 80 % 1006,6 hPa 0,0 l/m 10,5 km/h (2 Bft) S 179 0 min 0,000 mm 0,0 UV-I 0 W/m 1,8 C 1,7 C 14,5 km/h (3 Bft) 100,00 %
23.03.2016 18:42 5,0 C 80 % 1006,6 hPa 0,0 l/m 9,8 km/h (2 Bft) S-SW 206 0 min 0,000 mm 0,0 UV-I 0 W/m 1,8 C 2,2 C 12,9 km/h (3 Bft) 100,00 %
23.03.2016 18:43 5,0 C 80 % 1006,6 hPa 0,0 l/m 7,8 km/h (2 Bft) SW 222 0 min 0,000 mm 0,0 UV-I 0 W/m 1,8 C 3,8 C 12,9 km/h (3 Bft) 100,00 %
23.03.2016 18:44 4,9 C 80 % 1006,6 hPa 0,0 l/m 8,0 km/h (2 Bft) W-SW 240 0 min 0,000 mm 0,0 UV-I 0 W/m 1,7 C 3,5 C 9,7 km/h (2 Bft) 100,00 %
23.03.2016 18:45 4,9 C 80 % 1006,6 hPa 0,0 l/m 7,8 km/h (2 Bft) SW 223 0 min 0,000 mm 0,0 UV-I 0 W/m 1,7 C 3,7 C 11,3 km/h (2 Bft) 100,00 %
23.03.2016 18:46 4,9 C 80 % 1006,6 hPa 0,0 l/m 9,1 km/h (2 Bft) S-SW 196 0 min 0,000 mm 0,0 UV-I 0 W/m 1,7 C 2,6 C 14,5 km/h (3 Bft) 100,00 %
23.03.2016 18:47 4,9 C 80 % 1006,7 hPa 0,0 l/m 7,9 km/h (2 Bft) S-SW 207 0 min 0,000 mm 0,0 UV-I 0 W/m 1,7 C 3,6 C 11,3 km/h (2 Bft) 100,00 %
23.03.2016 18:48 4,9 C 80 % 1006,6 hPa 0,0 l/m 11,4 km/h (2 Bft) S-SW 202 0 min 0,000 mm 0,0 UV-I 0 W/m 1,7 C 1,0 C 16,1 km/h (3 Bft) 100,00 %
23.03.2016 18:49 4,9 C 80 % 1006,6 hPa 0,0 l/m 7,5 km/h (2 Bft) SW 214 0 min 0,000 mm 0,0 UV-I 0 W/m 1,7 C 3,9 C 9,7 km/h (2 Bft) 100,00 %
23.03.2016 18:50 4,9 C 80 % 1006,7 hPa 0,0 l/m 7,8 km/h (2 Bft) SW 234 0 min 0,000 mm 0,0 UV-I 0 W/m 1,7 C 3,7 C 11,3 km/h (2 Bft) 100,00 %
23.03.2016 18:51 4,9 C 81 % 1006,7 hPa 0,0 l/m 8,3 km/h (2 Bft) S-SW 202 0 min 0,000 mm 0,0 UV-I 0 W/m 1,9 C 3,3 C 12,9 km/h (3 Bft) 100,00 %
23.03.2016 18:52 4,8 C 80 % 1006,7 hPa 0,0 l/m 7,1 km/h (2 Bft) W-SW 238 0 min 0,000 mm 0,0 UV-I 0 W/m 1,6 C 4,2 C 9,7 km/h (2 Bft) 100,00 %
23.03.2016 18:53 4,9 C 81 % 1006,7 hPa 0,0 l/m 8,4 km/h (2 Bft) SW 236 0 min 0,000 mm 0,0 UV-I 0 W/m 1,9 C 3,2 C 16,1 km/h (3 Bft) 100,00 %
23.03.2016 18:54 4,8 C 81 % 1006,7 hPa 0,0 l/m 8,6 km/h (2 Bft) S-SW 211 0 min 0,000 mm 0,0 UV-I 0 W/m 1,8 C 2,9 C 14,5 km/h (3 Bft) 100,00 %
23.03.2016 18:55 4,8 C 81 % 1006,7 hPa 0,0 l/m 6,7 km/h (2 Bft) SW 236 0 min 0,000 mm 0,0 UV-I 0 W/m 1,8 C 4,6 C 11,3 km/h (2 Bft) 100,00 %
23.03.2016 18:56 4,8 C 81 % 1006,7 hPa 0,0 l/m 8,5 km/h (2 Bft) SW 225 0 min 0,000 mm 0,0 UV-I 0 W/m 1,8 C 3,0 C 14,5 km/h (3 Bft) 100,00 %
23.03.2016 18:57 4,8 C 81 % 1006,7 hPa 0,0 l/m 10,0 km/h (2 Bft) SW 232 0 min 0,000 mm 0,0 UV-I 0 W/m 1,8 C 1,9 C 16,1 km/h (3 Bft) 100,00 %
23.03.2016 18:58 4,8 C 81 % 1006,7 hPa 0,0 l/m 10,5 km/h (2 Bft) SW 235 0 min 0,000 mm 0,0 UV-I 0 W/m 1,8 C 1,5 C 16,1 km/h (3 Bft) 100,00 %
23.03.2016 18:59 4,8 C 81 % 1006,7 hPa 0,0 l/m 8,9 km/h (2 Bft) SW 236 0 min 0,000 mm 0,0 UV-I 0 W/m 1,8 C 2,7 C 12,9 km/h (3 Bft) 95,65 %
23.03.2016 19:00 4,8 C 81 % 1006,7 hPa 0,0 l/m 7,7 km/h (2 Bft) SW 233 0 min 0,000 mm 0,0 UV-I 0 W/m 1,8 C 3,6 C 11,3 km/h (2 Bft) 93,33 %
23.03.2016 19:01 4,8 C 81 % 1006,7 hPa 0,0 l/m 10,2 km/h (2 Bft) SW 215 0 min 0,026 mm 0,0 UV-I 0 W/m 1,8 C 1,7 C 17,7 km/h (3 Bft) 100,00 %
23.03.2016 19:02 4,8 C 81 % 1006,7 hPa 0,0 l/m 10,4 km/h (2 Bft) SW 236 0 min 0,000 mm 0,0 UV-I 0 W/m 1,8 C 1,6 C 14,5 km/h (3 Bft) 100,00 %
23.03.2016 19:03 4,8 C 82 % 1006,7 hPa 0,0 l/m 10,4 km/h (2 Bft) S-SW 207 0 min 0,000 mm 0,0 UV-I 0 W/m 2,0 C 1,6 C 16,1 km/h (3 Bft) 100,00 %
23.03.2016 19:04 4,7 C 82 % 1006,7 hPa 0,0 l/m 11,7 km/h (2 Bft) SW 226 0 min 0,000 mm 0,0 UV-I 0 W/m 1,9 C 0,6 C 19,3 km/h (3 Bft) 100,00 %
23.03.2016 19:05 4,7 C 82 % 1006,7 hPa 0,0 l/m 9,5 km/h (2 Bft) S-SW 213 0 min 0,000 mm 0,0 UV-I 0 W/m 1,9 C 2,1 C 16,1 km/h (3 Bft) 96,30 %
23.03.2016 19:06 4,7 C 82 % 1006,7 hPa 0,0 l/m 7,5 km/h (2 Bft) S-SW 196 0 min 0,000 mm 0,0 UV-I 0 W/m 1,9 C 3,7 C 11,3 km/h (2 Bft) 95,65 %
23.03.2016 19:07 4,7 C 82 % 1006,7 hPa 0,0 l/m 8,0 km/h (2 Bft) S-SW 197 0 min 0,000 mm 0,0 UV-I 0 W/m 1,9 C 3,3 C 12,9 km/h (3 Bft) 100,00 %
23.03.2016 19:08 4,7 C 82 % 1006,8 hPa 0,0 l/m 6,9 km/h (2 Bft) W-SW 241 0 min 0,000 mm 0,0 UV-I 0 W/m 1,9 C 4,3 C 9,7 km/h (2 Bft) 100,00 %
23.03.2016 19:09 4,7 C 82 % 1006,7 hPa 0,0 l/m 8,2 km/h (2 Bft) S-SW 202 0 min 0,000 mm 0,0 UV-I 0 W/m 1,9 C 3,1 C 12,9 km/h (3 Bft) 100,00 %
23.03.2016 19:10 4,7 C 82 % 1006,7 hPa 0,0 l/m 9,4 km/h (2 Bft) SW 223 0 min 0,000 mm 0,0 UV-I 0 W/m 1,9 C 2,2 C 16,1 km/h (3 Bft) 100,00 %
23.03.2016 19:11 4,7 C 82 % 1006,8 hPa 0,0 l/m 8,1 km/h (2 Bft) SW 232 0 min 0,000 mm 0,0 UV-I 0 W/m 1,9 C 3,2 C 12,9 km/h (3 Bft) 100,00 %
23.03.2016 19:12 4,7 C 82 % 1006,8 hPa 0,0 l/m 6,9 km/h (2 Bft) SW 217 0 min 0,000 mm 0,0 UV-I 0 W/m 1,9 C 4,3 C 9,7 km/h (2 Bft) 100,00 %
23.03.2016 19:13 4,7 C 82 % 1006,8 hPa 0,0 l/m 7,3 km/h (2 Bft) SW 223 0 min 0,000 mm 0,0 UV-I 0 W/m 1,9 C 3,9 C 11,3 km/h (2 Bft) 100,00 %
23.03.2016 19:14 4,7 C 82 % 1006,7 hPa 0,0 l/m 6,8 km/h (2 Bft) SW 223 0 min 0,000 mm 0,0 UV-I 0 W/m 1,9 C 4,4 C 11,3 km/h (2 Bft) 100,00 %
23.03.2016 19:15 4,7 C 82 % 1006,8 hPa 0,0 l/m 8,2 km/h (2 Bft) S-SW 213 0 min 0,000 mm 0,0 UV-I 0 W/m 1,9 C 3,1 C 12,9 km/h (3 Bft) 100,00 %
23.03.2016 19:16 4,7 C 82 % 1006,8 hPa 0,0 l/m 8,6 km/h (2 Bft) SW 223 0 min 0,000 mm 0,0 UV-I 0 W/m 1,9 C 2,8 C 12,9 km/h (3 Bft) 100,00 %
23.03.2016 19:17 4,7 C 82 % 1006,8 hPa 0,0 l/m 11,5 km/h (2 Bft) SW 227 0 min 0,000 mm 0,0 UV-I 0 W/m 1,9 C 0,7 C 17,7 km/h (3 Bft) 98,74 %
23.03.2016 19:18 4,7 C 82 % 1006,8 hPa 0,0 l/m 9,4 km/h (2 Bft) W 263 0 min 0,000 mm 0,0 UV-I 0 W/m 1,9 C 2,2 C 12,9 km/h (3 Bft) 100,00 %
23.03.2016 19:19 4,7 C 83 % 1006,7 hPa 0,0 l/m 6,6 km/h (2 Bft) SW 236 0 min 0,000 mm 0,0 UV-I 0 W/m 2,1 C 4,5 C 12,9 km/h (3 Bft) 100,00 %
23.03.2016 19:20 4,7 C 82 % 1006,8 hPa 0,0 l/m 10,9 km/h (2 Bft) S-SW 202 0 min 0,000 mm 0,0 UV-I 0 W/m 1,9 C 1,1 C 16,1 km/h (3 Bft) 100,00 %
23.03.2016 19:21 4,7 C 83 % 1006,7 hPa 0,0 l/m 9,7 km/h (2 Bft) S 186 0 min 0,000 mm 0,0 UV-I 0 W/m 2,1 C 2,0 C 16,1 km/h (3 Bft) 100,00 %
23.03.2016 19:22 4,7 C 83 % 1006,8 hPa 0,0 l/m 7,8 km/h (2 Bft) S-SW 192 0 min 0,000 mm 0,0 UV-I 0 W/m 2,1 C 3,5 C 14,5 km/h (3 Bft) 100,00 %
23.03.2016 19:23 4,7 C 83 % 1006,8 hPa 0,0 l/m 9,9 km/h (2 Bft) SW 219 0 min 0,000 mm 0,0 UV-I 0 W/m 2,1 C 1,8 C 12,9 km/h (3 Bft) 100,00 %
23.03.2016 19:24 4,7 C 83 % 1006,8 hPa 0,0 l/m 8,8 km/h (2 Bft) SW 221 0 min 0,000 mm 0,0 UV-I 0 W/m 2,1 C 2,6 C 14,5 km/h (3 Bft) 100,00 %
23.03.2016 19:25 4,7 C 83 % 1006,9 hPa 0,0 l/m 6,7 km/h (2 Bft) SW 225 0 min 0,000 mm 0,0 UV-I 0 W/m 2,1 C 4,4 C 11,3 km/h (2 Bft) 100,00 %
23.03.2016 19:26 4,7 C 83 % 1006,9 hPa 0,0 l/m 12,0 km/h (2 Bft) SW 232 0 min 0,000 mm 0,0 UV-I 0 W/m 2,1 C 0,4 C 16,1 km/h (3 Bft) 100,00 %
23.03.2016 19:27 4,7 C 83 % 1006,9 hPa 0,0 l/m 9,5 km/h (2 Bft) SW 232 0 min 0,000 mm 0,0 UV-I 0 W/m 2,1 C 2,1 C 17,7 km/h (3 Bft) 100,00 %
23.03.2016 19:28 4,7 C 83 % 1006,9 hPa 0,0 l/m 12,4 km/h (3 Bft) W-SW 245 0 min 0,000 mm 0,0 UV-I 0 W/m 2,1 C 0,2 C 16,1 km/h (3 Bft) 100,00 %
23.03.2016 19:29 4,7 C 83 % 1006,9 hPa 0,0 l/m 10,5 km/h (2 Bft) SW 229 0 min 0,000 mm 0,0 UV-I 0 W/m 2,1 C 1,4 C 14,5 km/h (3 Bft) 100,00 %
23.03.2016 19:30 4,7 C 83 % 1006,9 hPa 0,0 l/m 11,3 km/h (2 Bft) S-SW 207 0 min 0,000 mm 0,0 UV-I 0 W/m 2,1 C 0,9 C 14,5 km/h (3 Bft) 100,00 %
23.03.2016 19:31 4,7 C 84 % 1007,0 hPa 0,0 l/m 7,6 km/h (2 Bft) SW 227 0 min 0,000 mm 0,0 UV-I 0 W/m 2,2 C 3,6 C 12,9 km/h (3 Bft) 100,00 %
23.03.2016 19:32 4,7 C 84 % 1007,0 hPa 0,0 l/m 10,2 km/h (2 Bft) W-SW 250 0 min 0,000 mm 0,0 UV-I 0 W/m 2,2 C 1,6 C 16,1 km/h (3 Bft) 100,00 %
23.03.2016 19:33 4,6 C 84 % 1007,0 hPa 0,0 l/m 10,6 km/h (2 Bft) SW 221 0 min 0,000 mm 0,0 UV-I 0 W/m 2,1 C 1,2 C 16,1 km/h (3 Bft) 100,00 %
23.03.2016 19:34 4,6 C 84 % 1007,0 hPa 0,0 l/m 13,4 km/h (3 Bft) SW 224 0 min 0,000 mm 0,0 UV-I 0 W/m 2,1 C -0,5 C 20,9 km/h (4 Bft) 100,00 %
23.03.2016 19:35 4,6 C 84 % 1007,0 hPa 0,0 l/m 12,1 km/h (2 Bft) SW 225 0 min 0,000 mm 0,0 UV-I 0 W/m 2,1 C 0,2 C 16,1 km/h (3 Bft) 100,00 %
23.03.2016 19:36 4,6 C 84 % 1007,0 hPa 0,0 l/m 14,4 km/h (3 Bft) S-SW 210 0 min 0,000 mm 0,0 UV-I 0 W/m 2,1 C -1,1 C 17,7 km/h (3 Bft) 100,00 %
23.03.2016 19:37 4,6 C 84 % 1007,0 hPa 0,0 l/m 12,0 km/h (2 Bft) SW 232 0 min 0,000 mm 0,0 UV-I 0 W/m 2,1 C 0,3 C 16,1 km/h (3 Bft) 100,00 %
23.03.2016 19:38 4,7 C 84 % 1007,0 hPa 0,0 l/m 10,4 km/h (2 Bft) SW 235 0 min 0,000 mm 0,0 UV-I 0 W/m 2,2 C 1,5 C 20,9 km/h (4 Bft) 100,00 %
23.03.2016 19:39 4,7 C 84 % 1007,0 hPa 0,0 l/m 13,4 km/h (3 Bft) S-SW 208 0 min 0,000 mm 0,0 UV-I 0 W/m 2,2 C -0,4 C 19,3 km/h (3 Bft) 100,00 %
23.03.2016 19:40 4,6 C 84 % 1007,0 hPa 0,0 l/m 9,0 km/h (2 Bft) W-SW 247 0 min 0,000 mm 0,0 UV-I 0 W/m 2,1 C 2,4 C 12,9 km/h (3 Bft) 100,00 %
23.03.2016 19:41 4,7 C 84 % 1007,0 hPa 0,0 l/m 9,0 km/h (2 Bft) SW 222 0 min 0,000 mm 0,0 UV-I 0 W/m 2,2 C 2,5 C 17,7 km/h (3 Bft) 100,00 %
23.03.2016 19:42 4,7 C 84 % 1006,9 hPa 0,0 l/m 8,4 km/h (2 Bft) W-SW 238 0 min 0,000 mm 0,0 UV-I 0 W/m 2,2 C 3,0 C 16,1 km/h (3 Bft) 100,00 %
23.03.2016 19:43 4,7 C 84 % 1007,0 hPa 0,0 l/m 10,7 km/h (2 Bft) S-SW 205 0 min 0,000 mm 0,0 UV-I 0 W/m 2,2 C 1,3 C 14,5 km/h (3 Bft) 96,15 %
23.03.2016 19:44 4,7 C 84 % 1006,9 hPa 0,0 l/m 9,6 km/h (2 Bft) SW 215 0 min 0,000 mm 0,0 UV-I 0 W/m 2,2 C 2,0 C 12,9 km/h (3 Bft) 100,00 %
23.03.2016 19:45 4,7 C 84 % 1006,9 hPa 0,0 l/m 9,7 km/h (2 Bft) W-SW 242 0 min 0,000 mm 0,0 UV-I 0 W/m 2,2 C 2,0 C 16,1 km/h (3 Bft) 100,00 %
23.03.2016 19:46 4,7 C 84 % 1006,9 hPa 0,0 l/m 9,5 km/h (2 Bft) SW 227 0 min 0,000 mm 0,0 UV-I 0 W/m 2,2 C 2,1 C 12,9 km/h (3 Bft) 98,77 %
23.03.2016 19:47 4,7 C 84 % 1006,9 hPa 0,0 l/m 8,9 km/h (2 Bft) SW 214 0 min 0,000 mm 0,0 UV-I 0 W/m 2,2 C 2,6 C 12,9 km/h (3 Bft) 100,00 %
23.03.2016 19:48 4,7 C 84 % 1006,9 hPa 0,0 l/m 8,9 km/h (2 Bft) W-SW 243 0 min 0,000 mm 0,0 UV-I 0 W/m 2,2 C 2,6 C 12,9 km/h (3 Bft) 96,15 %
23.03.2016 19:49 4,7 C 84 % 1006,9 hPa 0,0 l/m 8,5 km/h (2 Bft) W-SW 247 0 min 0,000 mm 0,0 UV-I 0 W/m 2,2 C 2,9 C 16,1 km/h (3 Bft) 100,00 %
23.03.2016 19:50 4,7 C 84 % 1006,9 hPa 0,0 l/m 10,5 km/h (2 Bft) S-SW 211 0 min 0,000 mm 0,0 UV-I 0 W/m 2,2 C 1,4 C 16,1 km/h (3 Bft) 100,00 %
23.03.2016 19:51 4,7 C 84 % 1006,9 hPa 0,0 l/m 9,9 km/h (2 Bft) S-SW 211 0 min 0,000 mm 0,0 UV-I 0 W/m 2,2 C 1,8 C 14,5 km/h (3 Bft) 100,00 %
23.03.2016 19:52 4,7 C 84 % 1006,9 hPa 0,0 l/m 9,8 km/h (2 Bft) S-SW 194 0 min 0,000 mm 0,0 UV-I 0 W/m 2,2 C 1,9 C 14,5 km/h (3 Bft) 100,00 %
23.03.2016 19:53 4,7 C 84 % 1006,9 hPa 0,0 l/m 11,3 km/h (2 Bft) W-SW 258 0 min 0,000 mm 0,0 UV-I 0 W/m 2,2 C 0,9 C 14,5 km/h (3 Bft) 100,00 %
23.03.2016 19:54 4,7 C 84 % 1006,9 hPa 0,0 l/m 8,7 km/h (2 Bft) SW 230 0 min 0,000 mm 0,0 UV-I 0 W/m 2,2 C 2,7 C 11,3 km/h (2 Bft) 100,00 %
23.03.2016 19:55 4,7 C 84 % 1006,9 hPa 0,0 l/m 9,9 km/h (2 Bft) SW 219 0 min 0,000 mm 0,0 UV-I 0 W/m 2,2 C 1,8 C 14,5 km/h (3 Bft) 100,00 %
23.03.2016 19:56 4,7 C 84 % 1007,0 hPa 0,0 l/m 8,3 km/h (2 Bft) SW 225 0 min 0,000 mm 0,0 UV-I 0 W/m 2,2 C 3,0 C 12,9 km/h (3 Bft) 94,12 %
23.03.2016 19:57 4,7 C 84 % 1006,9 hPa 0,0 l/m 11,2 km/h (2 Bft) SW 215 0 min 0,000 mm 0,0 UV-I 0 W/m 2,2 C 0,9 C 17,7 km/h (3 Bft) 100,00 %
23.03.2016 19:58 4,7 C 83 % 1006,9 hPa 0,0 l/m 10,3 km/h (2 Bft) S 190 0 min 0,000 mm 0,0 UV-I 0 W/m 2,1 C 1,5 C 16,1 km/h (3 Bft) 96,55 %
23.03.2016 19:59 4,7 C 83 % 1006,9 hPa 0,0 l/m 11,7 km/h (2 Bft) S-SW 213 0 min 0,000 mm 0,0 UV-I 0 W/m 2,1 C 0,6 C 14,5 km/h (3 Bft) 96,30 %
23.03.2016 20:00 4,7 C 83 % 1006,9 hPa 0,0 l/m 10,9 km/h (2 Bft) W-SW 242 0 min 0,000 mm 0,0 UV-I 0 W/m 2,1 C 1,1 C 14,5 km/h (3 Bft) 100,00 %
23.03.2016 20:01 4,7 C 83 % 1006,9 hPa 0,0 l/m 9,1 km/h (2 Bft) SW 226 0 min 0,025 mm 0,0 UV-I 0 W/m 2,1 C 2,4 C 12,9 km/h (3 Bft) 96,55 %
23.03.2016 20:02 4,7 C 83 % 1006,9 hPa 0,0 l/m 10,8 km/h (2 Bft) SW 220 0 min 0,000 mm 0,0 UV-I 0 W/m 2,1 C 1,2 C 12,9 km/h (3 Bft) 100,00 %
23.03.2016 20:03 4,7 C 83 % 1007,0 hPa 0,0 l/m 14,6 km/h (3 Bft) W-SW 239 0 min 0,000 mm 0,0 UV-I 0 W/m 2,1 C -1,1 C 17,7 km/h (3 Bft) 93,33 %
23.03.2016 20:04 4,7 C 84 % 1007,1 hPa 0,0 l/m 9,7 km/h (2 Bft) W-SW 253 0 min 0,000 mm 0,0 UV-I 0 W/m 2,2 C 2,0 C 17,7 km/h (3 Bft) 100,00 %
23.03.2016 20:05 4,7 C 84 % 1007,1 hPa 0,0 l/m 12,8 km/h (3 Bft) SW 227 0 min 0,000 mm 0,0 UV-I 0 W/m 2,2 C -0,1 C 17,7 km/h (3 Bft) 92,31 %
23.03.2016 20:06 4,6 C 84 % 1007,2 hPa 0,0 l/m 16,3 km/h (3 Bft) W 263 0 min 0,000 mm 0,0 UV-I 0 W/m 2,1 C -2,1 C 20,9 km/h (4 Bft) 100,00 %
23.03.2016 20:07 4,6 C 84 % 1007,2 hPa 0,0 l/m 14,3 km/h (3 Bft) W-SW 256 0 min 0,000 mm 0,0 UV-I 0 W/m 2,1 C -1,0 C 20,9 km/h (4 Bft) 96,15 %
23.03.2016 20:08 4,6 C 84 % 1007,2 hPa 0,0 l/m 13,4 km/h (3 Bft) W 266 0 min 0,000 mm 0,0 UV-I 0 W/m 2,1 C -0,5 C 17,7 km/h (3 Bft) 100,00 %
23.03.2016 20:09 4,6 C 85 % 1007,3 hPa 0,0 l/m 15,0 km/h (3 Bft) W-SW 244 0 min 0,000 mm 0,0 UV-I 0 W/m 2,3 C -1,4 C 19,3 km/h (3 Bft) 96,15 %
23.03.2016 20:10 4,6 C 85 % 1007,2 hPa 0,0 l/m 14,9 km/h (3 Bft) W 262 0 min 0,000 mm 0,0 UV-I 0 W/m 2,3 C -1,4 C 19,3 km/h (3 Bft) 96,67 %
23.03.2016 20:11 4,6 C 85 % 1007,2 hPa 0,0 l/m 10,5 km/h (2 Bft) W 271 0 min 0,000 mm 0,0 UV-I 0 W/m 2,3 C 1,3 C 16,1 km/h (3 Bft) 100,00 %
23.03.2016 20:12 4,6 C 85 % 1007,2 hPa 0,0 l/m 13,4 km/h (3 Bft) W 260 0 min 0,000 mm 0,0 UV-I 0 W/m 2,3 C -0,5 C 16,1 km/h (3 Bft) 96,67 %
23.03.2016 20:13 4,5 C 85 % 1007,1 hPa 0,0 l/m 13,9 km/h (3 Bft) SW 235 0 min 0,000 mm 0,0 UV-I 0 W/m 2,2 C -0,9 C 17,7 km/h (3 Bft) 100,00 %
23.03.2016 20:14 4,5 C 86 % 1007,1 hPa 0,0 l/m 11,0 km/h (2 Bft) SW 232 0 min 0,000 mm 0,0 UV-I 0 W/m 2,4 C 0,8 C 14,5 km/h (3 Bft) 93,33 %
23.03.2016 20:15 4,5 C 86 % 1007,1 hPa 0,0 l/m 12,2 km/h (2 Bft) S 181 0 min 0,000 mm 0,0 UV-I 0 W/m 2,4 C 0,1 C 17,7 km/h (3 Bft) 100,00 %
23.03.2016 20:16 4,4 C 86 % 1007,1 hPa 0,0 l/m 14,5 km/h (3 Bft) W-SW 244 0 min 0,000 mm 0,0 UV-I 0 W/m 2,3 C -1,4 C 19,3 km/h (3 Bft) 97,56 %
23.03.2016 20:17 4,4 C 86 % 1007,1 hPa 0,0 l/m 14,8 km/h (3 Bft) SW 232 0 min 0,000 mm 0,0 UV-I 0 W/m 2,3 C -1,5 C 19,3 km/h (3 Bft) 96,15 %
23.03.2016 20:18 4,4 C 86 % 1007,1 hPa 0,0 l/m 16,3 km/h (3 Bft) W-SW 254 0 min 0,000 mm 0,0 UV-I 0 W/m 2,3 C -2,3 C 22,5 km/h (4 Bft) 98,74 %
23.03.2016 20:19 4,4 C 86 % 1007,2 hPa 0,0 l/m 14,1 km/h (3 Bft) W-SW 248 0 min 0,000 mm 0,0 UV-I 0 W/m 2,3 C -1,2 C 19,3 km/h (3 Bft) 97,73 %
23.03.2016 20:20 4,4 C 85 % 1007,1 hPa 0,0 l/m 13,1 km/h (3 Bft) W-SW 246 0 min 0,000 mm 0,0 UV-I 0 W/m 2,1 C -0,6 C 17,7 km/h (3 Bft) 96,30 %
23.03.2016 20:21 4,4 C 85 % 1007,1 hPa 0,0 l/m 12,5 km/h (3 Bft) W 269 0 min 0,000 mm 0,0 UV-I 0 W/m 2,1 C -0,2 C 17,7 km/h (3 Bft) 93,33 %
23.03.2016 20:22 4,3 C 85 % 1007,1 hPa 0,0 l/m 10,6 km/h (2 Bft) SW 226 0 min 0,000 mm 0,0 UV-I 0 W/m 2,0 C 0,9 C 14,5 km/h (3 Bft) 100,00 %
23.03.2016 20:23 4,3 C 85 % 1007,1 hPa 0,0 l/m 8,9 km/h (2 Bft) W-SW 237 0 min 0,000 mm 0,0 UV-I 0 W/m 2,0 C 2,1 C 11,3 km/h (2 Bft) 96,15 %
23.03.2016 20:24 4,3 C 85 % 1007,1 hPa 0,0 l/m 12,4 km/h (3 Bft) W-SW 239 0 min 0,000 mm 0,0 UV-I 0 W/m 2,0 C -0,3 C 16,1 km/h (3 Bft) 95,83 %
23.03.2016 20:25 4,3 C 85 % 1007,1 hPa 0,0 l/m 12,2 km/h (2 Bft) W-SW 238 0 min 0,000 mm 0,0 UV-I 0 W/m 2,0 C -0,2 C 16,1 km/h (3 Bft) 100,00 %
23.03.2016 20:26 4,3 C 85 % 1007,1 hPa 0,0 l/m 9,3 km/h (2 Bft) SW 218 0 min 0,000 mm 0,0 UV-I 0 W/m 2,0 C 1,8 C 12,9 km/h (3 Bft) 95,83 %
23.03.2016 20:27 4,3 C 85 % 1007,2 hPa 0,0 l/m 11,9 km/h (2 Bft) W-SW 240 0 min 0,000 mm 0,0 UV-I 0 W/m 2,0 C 0,0 C 14,5 km/h (3 Bft) 100,00 %
23.03.2016 20:28 4,3 C 85 % 1007,1 hPa 0,0 l/m 9,5 km/h (2 Bft) W-SW 241 0 min 0,000 mm 0,0 UV-I 0 W/m 2,0 C 1,7 C 14,5 km/h (3 Bft) 93,33 %
23.03.2016 20:29 4,3 C 85 % 1007,1 hPa 0,0 l/m 11,0 km/h (2 Bft) SW 227 0 min 0,000 mm 0,0 UV-I 0 W/m 2,0 C 0,6 C 16,1 km/h (3 Bft) 100,00 %
23.03.2016 20:30 4,3 C 85 % 1007,2 hPa 0,0 l/m 8,4 km/h (2 Bft) S 172 0 min 0,000 mm 0,0 UV-I 0 W/m 2,0 C 2,5 C 14,5 km/h (3 Bft) 95,65 %
23.03.2016 20:31 4,3 C 85 % 1007,2 hPa 0,0 l/m 10,2 km/h (2 Bft) S 189 0 min 0,000 mm 0,0 UV-I 0 W/m 2,0 C 1,2 C 12,9 km/h (3 Bft) 100,00 %
23.03.2016 20:32 4,3 C 85 % 1007,2 hPa 0,0 l/m 9,7 km/h (2 Bft) W-SW 243 0 min 0,000 mm 0,0 UV-I 0 W/m 2,0 C 1,5 C 14,5 km/h (3 Bft) 100,00 %
23.03.2016 20:33 4,3 C 85 % 1007,2 hPa 0,0 l/m 10,0 km/h (2 Bft) SW 236 0 min 0,000 mm 0,0 UV-I 0 W/m 2,0 C 1,3 C 16,1 km/h (3 Bft) 100,00 %
23.03.2016 20:34 4,3 C 85 % 1007,2 hPa 0,0 l/m 9,2 km/h (2 Bft) SW 222 0 min 0,000 mm 0,0 UV-I 0 W/m 2,0 C 1,9 C 16,1 km/h (3 Bft) 96,55 %
23.03.2016 20:35 4,3 C 85 % 1007,2 hPa 0,0 l/m 6,9 km/h (2 Bft) S 184 0 min 0,000 mm 0,0 UV-I 0 W/m 2,0 C 3,9 C 11,3 km/h (2 Bft) 100,00 %
23.03.2016 20:36 4,3 C 86 % 1007,2 hPa 0,0 l/m 4,8 km/h (1 Bft) SW 232 0 min 0,000 mm 0,0 UV-I 0 W/m 2,2 C 4,3 C 6,4 km/h (2 Bft) 100,00 %
23.03.2016 20:37 4,3 C 86 % 1007,2 hPa 0,0 l/m 7,4 km/h (2 Bft) S-SO 165 0 min 0,000 mm 0,0 UV-I 0 W/m 2,2 C 3,4 C 11,3 km/h (2 Bft) 100,00 %
23.03.2016 20:38 4,3 C 86 % 1007,2 hPa 0,0 l/m 6,7 km/h (2 Bft) S-SO 165 0 min 0,000 mm 0,0 UV-I 0 W/m 2,2 C 4,0 C 9,7 km/h (2 Bft) 100,00 %
23.03.2016 20:39 4,3 C 85 % 1007,2 hPa 0,0 l/m 6,7 km/h (2 Bft) S-SW 202 0 min 0,000 mm 0,0 UV-I 0 W/m 2,0 C 4,0 C 9,7 km/h (2 Bft) 95,83 %
23.03.2016 20:40 4,3 C 85 % 1007,2 hPa 0,0 l/m 8,4 km/h (2 Bft) SW 219 0 min 0,000 mm 0,0 UV-I 0 W/m 2,0 C 2,5 C 12,9 km/h (3 Bft) 100,00 %
23.03.2016 20:41 4,3 C 85 % 1007,1 hPa 0,0 l/m 9,3 km/h (2 Bft) S-SW 209 0 min 0,000 mm 0,0 UV-I 0 W/m 2,0 C 1,8 C 16,1 km/h (3 Bft) 100,00 %
23.03.2016 20:42 4,3 C 85 % 1007,1 hPa 0,0 l/m 10,3 km/h (2 Bft) S-SW 210 0 min 0,000 mm 0,0 UV-I 0 W/m 2,0 C 1,1 C 14,5 km/h (3 Bft) 100,00 %
23.03.2016 20:43 4,3 C 85 % 1007,1 hPa 0,0 l/m 11,1 km/h (2 Bft) S-SW 196 0 min 0,000 mm 0,0 UV-I 0 W/m 2,0 C 0,5 C 16,1 km/h (3 Bft) 100,00 %
23.03.2016 20:44 4,3 C 85 % 1007,2 hPa 0,0 l/m 11,0 km/h (2 Bft) S 191 0 min 0,000 mm 0,0 UV-I 0 W/m 2,0 C 0,6 C 16,1 km/h (3 Bft) 100,00 %
23.03.2016 20:45 4,4 C 85 % 1007,1 hPa 0,0 l/m 12,1 km/h (2 Bft) SW 233 0 min 0,000 mm 0,0 UV-I 0 W/m 2,1 C 0,0 C 16,1 km/h (3 Bft) 100,00 %
23.03.2016 20:46 4,4 C 85 % 1007,1 hPa 0,0 l/m 10,3 km/h (2 Bft) W-SW 242 0 min 0,000 mm 0,0 UV-I 0 W/m 2,1 C 1,2 C 14,5 km/h (3 Bft) 100,00 %
23.03.2016 20:47 4,4 C 85 % 1007,2 hPa 0,0 l/m 9,6 km/h (2 Bft) W-SW 238 0 min 0,000 mm 0,0 UV-I 0 W/m 2,1 C 1,7 C 14,5 km/h (3 Bft) 89,66 %
23.03.2016 20:48 4,4 C 85 % 1007,1 hPa 0,0 l/m 9,3 km/h (2 Bft) S 183 0 min 0,000 mm 0,0 UV-I 0 W/m 2,1 C 1,9 C 12,9 km/h (3 Bft) 98,73 %
23.03.2016 20:49 4,4 C 85 % 1007,2 hPa 0,0 l/m 12,1 km/h (2 Bft) S-SW 198 0 min 0,000 mm 0,0 UV-I 0 W/m 2,1 C 0,0 C 16,1 km/h (3 Bft) 97,56 %
23.03.2016 20:50 4,4 C 85 % 1007,1 hPa 0,0 l/m 13,0 km/h (3 Bft) S 190 0 min 0,000 mm 0,0 UV-I 0 W/m 2,1 C -0,5 C 17,7 km/h (3 Bft) 96,30 %
23.03.2016 20:51 4,4 C 85 % 1007,1 hPa 0,0 l/m 10,1 km/h (2 Bft) W-SW 247 0 min 0,000 mm 0,0 UV-I 0 W/m 2,1 C 1,3 C 17,7 km/h (3 Bft) 100,00 %
23.03.2016 20:52 4,5 C 85 % 1007,1 hPa 0,0 l/m 13,6 km/h (3 Bft) S-SW 209 0 min 0,000 mm 0,0 UV-I 0 W/m 2,2 C -0,8 C 20,9 km/h (4 Bft) 100,00 %
23.03.2016 20:53 4,5 C 85 % 1007,1 hPa 0,0 l/m 11,5 km/h (2 Bft) W-SW 238 0 min 0,000 mm 0,0 UV-I 0 W/m 2,2 C 0,5 C 16,1 km/h (3 Bft) 96,15 %
23.03.2016 20:54 4,5 C 85 % 1007,1 hPa 0,0 l/m 9,1 km/h (2 Bft) W-SW 238 0 min 0,000 mm 0,0 UV-I 0 W/m 2,2 C 2,2 C 14,5 km/h (3 Bft) 100,00 %
23.03.2016 20:55 4,6 C 85 % 1007,1 hPa 0,0 l/m 8,0 km/h (2 Bft) SW 223 0 min 0,000 mm 0,0 UV-I 0 W/m 2,3 C 3,2 C 11,3 km/h (2 Bft) 100,00 %
23.03.2016 20:56 4,5 C 85 % 1007,0 hPa 0,0 l/m 10,7 km/h (2 Bft) S-SW 201 0 min 0,000 mm 0,0 UV-I 0 W/m 2,2 C 1,0 C 16,1 km/h (3 Bft) 100,00 %
23.03.2016 20:57 4,6 C 85 % 1007,1 hPa 0,0 l/m 11,4 km/h (2 Bft) S-SW 208 0 min 0,000 mm 0,0 UV-I 0 W/m 2,3 C 0,7 C 16,1 km/h (3 Bft) 100,00 %
23.03.2016 20:58 4,6 C 85 % 1007,1 hPa 0,0 l/m 10,3 km/h (2 Bft) S 178 0 min 0,000 mm 0,0 UV-I 0 W/m 2,3 C 1,4 C 16,1 km/h (3 Bft) 100,00 %
23.03.2016 20:59 4,6 C 85 % 1007,1 hPa 0,0 l/m 11,1 km/h (2 Bft) SW 229 0 min 0,000 mm 0,0 UV-I 0 W/m 2,3 C 0,9 C 16,1 km/h (3 Bft) 100,00 %
23.03.2016 21:00 4,6 C 85 % 1007,1 hPa 0,0 l/m 9,6 km/h (2 Bft) S-SW 208 0 min 0,000 mm 0,0 UV-I 0 W/m 2,3 C 1,9 C 14,5 km/h (3 Bft) 100,00 %
23.03.2016 21:02 4,6 C 86 % 1007,1 hPa 0,0 l/m 9,5 km/h (2 Bft) S 185 0 min 0,025 mm 0,0 UV-I 0 W/m 2,5 C 2,0 C 16,1 km/h (3 Bft) 98,00 %
23.03.2016 21:03 4,6 C 85 % 1007,1 hPa 0,0 l/m 12,2 km/h (2 Bft) SW 229 0 min 0,000 mm 0,0 UV-I 0 W/m 2,3 C 0,2 C 16,1 km/h (3 Bft) 100,00 %
23.03.2016 21:04 4,6 C 86 % 1007,1 hPa 0,0 l/m 8,9 km/h (2 Bft) S-SW 202 0 min 0,000 mm 0,0 UV-I 0 W/m 2,5 C 2,5 C 16,1 km/h (3 Bft) 100,00 %
23.03.2016 21:05 4,6 C 86 % 1007,1 hPa 0,0 l/m 13,7 km/h (3 Bft) S 184 0 min 0,000 mm 0,0 UV-I 0 W/m 2,5 C -0,7 C 17,7 km/h (3 Bft) 100,00 %
23.03.2016 21:06 4,6 C 85 % 1007,1 hPa 0,0 l/m 11,9 km/h (2 Bft) S 188 0 min 0,000 mm 0,0 UV-I 0 W/m 2,3 C 0,4 C 17,7 km/h (3 Bft) 100,00 %
23.03.2016 21:07 4,6 C 85 % 1007,1 hPa 0,0 l/m 13,6 km/h (3 Bft) S-SW 198 0 min 0,000 mm 0,0 UV-I 0 W/m 2,3 C -0,7 C 19,3 km/h (3 Bft) 100,00 %
23.03.2016 21:08 4,6 C 85 % 1007,1 hPa 0,0 l/m 15,4 km/h (3 Bft) S 191 0 min 0,000 mm 0,0 UV-I 0 W/m 2,3 C -1,6 C 20,9 km/h (4 Bft) 100,00 %
23.03.2016 21:09 4,6 C 85 % 1007,1 hPa 0,0 l/m 14,8 km/h (3 Bft) S-SW 192 0 min 0,000 mm 0,0 UV-I 0 W/m 2,3 C -1,3 C 20,9 km/h (4 Bft) 100,00 %
23.03.2016 21:10 4,6 C 85 % 1007,1 hPa 0,0 l/m 15,0 km/h (3 Bft) S 186 0 min 0,000 mm 0,0 UV-I 0 W/m 2,3 C -1,4 C 20,9 km/h (4 Bft) 100,00 %
23.03.2016 21:11 4,6 C 85 % 1007,1 hPa 0,0 l/m 12,9 km/h (3 Bft) S-SW 194 0 min 0,000 mm 0,0 UV-I 0 W/m 2,3 C -0,2 C 17,7 km/h (3 Bft) 100,00 %
23.03.2016 21:12 4,6 C 85 % 1007,1 hPa 0,0 l/m 10,3 km/h (2 Bft) S-SW 193 0 min 0,000 mm 0,0 UV-I 0 W/m 2,3 C 1,4 C 12,9 km/h (3 Bft) 100,00 %
23.03.2016 21:13 4,6 C 85 % 1007,1 hPa 0,0 l/m 10,3 km/h (2 Bft) SW 220 0 min 0,000 mm 0,0 UV-I 0 W/m 2,3 C 1,4 C 16,1 km/h (3 Bft) 100,00 %
23.03.2016 21:14 4,6 C 85 % 1007,0 hPa 0,0 l/m 13,8 km/h (3 Bft) SW 233 0 min 0,000 mm 0,0 UV-I 0 W/m 2,3 C -0,8 C 19,3 km/h (3 Bft) 100,00 %
23.03.2016 21:15 4,6 C 85 % 1007,1 hPa 0,0 l/m 8,9 km/h (2 Bft) SW 223 0 min 0,000 mm 0,0 UV-I 0 W/m 2,3 C 2,5 C 14,5 km/h (3 Bft) 100,00 %
23.03.2016 21:16 4,6 C 85 % 1007,1 hPa 0,0 l/m 8,5 km/h (2 Bft) S-SW 208 0 min 0,000 mm 0,0 UV-I 0 W/m 2,3 C 2,8 C 12,9 km/h (3 Bft) 96,15 %
23.03.2016 21:17 4,6 C 85 % 1007,1 hPa 0,0 l/m 14,2 km/h (3 Bft) SW 232 0 min 0,000 mm 0,0 UV-I 0 W/m 2,3 C -1,0 C 20,9 km/h (4 Bft) 100,00 %
23.03.2016 21:18 4,6 C 85 % 1007,0 hPa 0,0 l/m 11,3 km/h (2 Bft) W-SW 251 0 min 0,000 mm 0,0 UV-I 0 W/m 2,3 C 0,7 C 17,7 km/h (3 Bft) 96,15 %
23.03.2016 21:19 4,6 C 85 % 1007,1 hPa 0,0 l/m 12,3 km/h (3 Bft) SW 217 0 min 0,000 mm 0,0 UV-I 0 W/m 2,3 C 0,1 C 19,3 km/h (3 Bft) 96,67 %
23.03.2016 21:20 4,6 C 85 % 1007,1 hPa 0,0 l/m 14,7 km/h (3 Bft) W-SW 238 0 min 0,000 mm 0,0 UV-I 0 W/m 2,3 C -1,3 C 17,7 km/h (3 Bft) 100,00 %
23.03.2016 21:21 4,6 C 85 % 1007,1 hPa 0,0 l/m 11,8 km/h (2 Bft) SW 230 0 min 0,000 mm 0,0 UV-I 0 W/m 2,3 C 0,4 C 19,3 km/h (3 Bft) 100,00 %
23.03.2016 21:22 4,5 C 86 % 1007,1 hPa 0,0 l/m 16,9 km/h (3 Bft) SW 215 0 min 0,000 mm 0,0 UV-I 0 W/m 2,4 C -2,5 C 20,9 km/h (4 Bft) 100,00 %
23.03.2016 21:23 4,5 C 86 % 1007,1 hPa 0,0 l/m 14,3 km/h (3 Bft) W-SW 248 0 min 0,000 mm 0,0 UV-I 0 W/m 2,4 C -1,2 C 20,9 km/h (4 Bft) 92,31 %
23.03.2016 21:24 4,5 C 86 % 1007,1 hPa 0,0 l/m 12,2 km/h (2 Bft) SW 217 0 min 0,000 mm 0,0 UV-I 0 W/m 2,4 C 0,1 C 14,5 km/h (3 Bft) 100,00 %
23.03.2016 21:25 4,5 C 86 % 1007,1 hPa 0,0 l/m 16,3 km/h (3 Bft) SW 224 0 min 0,000 mm 0,0 UV-I 0 W/m 2,4 C -2,2 C 22,5 km/h (4 Bft) 95,83 %
23.03.2016 21:26 4,5 C 86 % 1007,1 hPa 0,0 l/m 15,9 km/h (3 Bft) W-SW 241 0 min 0,000 mm 0,0 UV-I 0 W/m 2,4 C -2,0 C 20,9 km/h (4 Bft) 100,00 %
23.03.2016 21:27 4,5 C 86 % 1007,1 hPa 0,0 l/m 13,9 km/h (3 Bft) W-SW 239 0 min 0,000 mm 0,0 UV-I 0 W/m 2,4 C -0,9 C 20,9 km/h (4 Bft) 100,00 %
23.03.2016 21:28 4,5 C 86 % 1007,1 hPa 0,0 l/m 13,1 km/h (3 Bft) W-SW 237 0 min 0,000 mm 0,0 UV-I 0 W/m 2,4 C -0,5 C 19,3 km/h (3 Bft) 100,00 %
23.03.2016 21:29 4,5 C 86 % 1007,1 hPa 0,0 l/m 12,1 km/h (2 Bft) S-SW 209 0 min 0,000 mm 0,0 UV-I 0 W/m 2,4 C 0,1 C 16,1 km/h (3 Bft) 100,00 %
23.03.2016 21:30 4,5 C 86 % 1007,1 hPa 0,0 l/m 14,4 km/h (3 Bft) W-SW 238 0 min 0,000 mm 0,0 UV-I 0 W/m 2,4 C -1,2 C 17,7 km/h (3 Bft) 100,00 %
23.03.2016 21:31 4,4 C 86 % 1007,1 hPa 0,0 l/m 12,9 km/h (3 Bft) W-SW 247 0 min 0,000 mm 0,0 UV-I 0 W/m 2,3 C -0,5 C 17,7 km/h (3 Bft) 100,00 %
23.03.2016 21:32 4,4 C 86 % 1007,1 hPa 0,0 l/m 11,2 km/h (2 Bft) SW 230 0 min 0,000 mm 0,0 UV-I 0 W/m 2,3 C 0,6 C 17,7 km/h (3 Bft) 100,00 %
23.03.2016 21:33 4,4 C 86 % 1007,1 hPa 0,0 l/m 13,3 km/h (3 Bft) SW 229 0 min 0,000 mm 0,0 UV-I 0 W/m 2,3 C -0,7 C 17,7 km/h (3 Bft) 100,00 %
23.03.2016 21:34 4,4 C 86 % 1007,1 hPa 0,0 l/m 14,1 km/h (3 Bft) SW 227 0 min 0,000 mm 0,0 UV-I 0 W/m 2,3 C -1,2 C 20,9 km/h (4 Bft) 100,00 %
23.03.2016 21:35 4,4 C 86 % 1007,1 hPa 0,0 l/m 14,5 km/h (3 Bft) W-SW 244 0 min 0,000 mm 0,0 UV-I 0 W/m 2,3 C -1,4 C 20,9 km/h (4 Bft) 100,00 %
23.03.2016 21:36 4,4 C 86 % 1007,2 hPa 0,0 l/m 10,5 km/h (2 Bft) SW 233 0 min 0,000 mm 0,0 UV-I 0 W/m 2,3 C 1,1 C 16,1 km/h (3 Bft) 100,00 %
23.03.2016 21:37 4,4 C 86 % 1007,1 hPa 0,0 l/m 13,0 km/h (3 Bft) W-SW 238 0 min 0,000 mm 0,0 UV-I 0 W/m 2,3 C -0,5 C 17,7 km/h (3 Bft) 100,00 %
23.03.2016 21:38 4,4 C 86 % 1007,1 hPa 0,0 l/m 12,3 km/h (3 Bft) SW 229 0 min 0,000 mm 0,0 UV-I 0 W/m 2,3 C -0,1 C 16,1 km/h (3 Bft) 93,33 %
23.03.2016 21:39 4,4 C 86 % 1007,1 hPa 0,0 l/m 14,7 km/h (3 Bft) SW 225 0 min 0,000 mm 0,0 UV-I 0 W/m 2,3 C -1,5 C 22,5 km/h (4 Bft) 100,00 %
23.03.2016 21:40 4,4 C 86 % 1007,2 hPa 0,0 l/m 13,6 km/h (3 Bft) S-SW 192 0 min 0,000 mm 0,0 UV-I 0 W/m 2,3 C -0,9 C 17,7 km/h (3 Bft) 100,00 %
23.03.2016 21:41 4,4 C 86 % 1007,1 hPa 0,0 l/m 19,1 km/h (3 Bft) W-SW 244 0 min 0,000 mm 0,0 UV-I 0 W/m 2,3 C -3,6 C 24,1 km/h (4 Bft) 100,00 %
23.03.2016 21:42 4,4 C 86 % 1007,1 hPa 0,0 l/m 10,8 km/h (2 Bft) SW 217 0 min 0,000 mm 0,0 UV-I 0 W/m 2,3 C 0,8 C 14,5 km/h (3 Bft) 100,00 %
23.03.2016 21:43 4,4 C 86 % 1007,2 hPa 0,0 l/m 12,0 km/h (2 Bft) SW 234 0 min 0,000 mm 0,0 UV-I 0 W/m 2,3 C 0,1 C 14,5 km/h (3 Bft) 100,00 %
23.03.2016 21:44 4,4 C 86 % 1007,1 hPa 0,0 l/m 10,8 km/h (2 Bft) SW 224 0 min 0,000 mm 0,0 UV-I 0 W/m 2,3 C 0,8 C 14,5 km/h (3 Bft) 100,00 %
23.03.2016 21:45 4,4 C 86 % 1007,1 hPa 0,0 l/m 9,3 km/h (2 Bft) W-SW 246 0 min 0,000 mm 0,0 UV-I 0 W/m 2,3 C 1,9 C 12,9 km/h (3 Bft) 100,00 %
23.03.2016 21:46 4,4 C 86 % 1007,1 hPa 0,0 l/m 10,6 km/h (2 Bft) SW 227 0 min 0,000 mm 0,0 UV-I 0 W/m 2,3 C 1,0 C 14,5 km/h (3 Bft) 100,00 %
23.03.2016 21:47 4,4 C 86 % 1007,1 hPa 0,0 l/m 12,1 km/h (2 Bft) S-SW 202 0 min 0,000 mm 0,0 UV-I 0 W/m 2,3 C 0,0 C 16,1 km/h (3 Bft) 100,00 %
23.03.2016 21:48 4,4 C 86 % 1007,1 hPa 0,0 l/m 13,4 km/h (3 Bft) W-SW 246 0 min 0,000 mm 0,0 UV-I 0 W/m 2,3 C -0,8 C 19,3 km/h (3 Bft) 100,00 %
23.03.2016 21:49 4,4 C 86 % 1007,1 hPa 0,0 l/m 14,3 km/h (3 Bft) W-SW 257 0 min 0,000 mm 0,0 UV-I 0 W/m 2,3 C -1,3 C 22,5 km/h (4 Bft) 96,30 %
23.03.2016 21:50 4,4 C 86 % 1007,1 hPa 0,0 l/m 11,2 km/h (2 Bft) W-SW 239 0 min 0,000 mm 0,0 UV-I 0 W/m 2,3 C 0,6 C 20,9 km/h (4 Bft) 98,75 %
23.03.2016 21:51 4,4 C 86 % 1007,1 hPa 0,0 l/m 15,3 km/h (3 Bft) SW 230 0 min 0,000 mm 0,0 UV-I 0 W/m 2,3 C -1,8 C 22,5 km/h (4 Bft) 100,00 %
23.03.2016 21:52 4,4 C 86 % 1007,1 hPa 0,0 l/m 12,2 km/h (2 Bft) SW 231 0 min 0,000 mm 0,0 UV-I 0 W/m 2,3 C -0,1 C 16,1 km/h (3 Bft) 100,00 %
23.03.2016 21:53 4,4 C 86 % 1007,1 hPa 0,0 l/m 11,4 km/h (2 Bft) W-SW 245 0 min 0,000 mm 0,0 UV-I 0 W/m 2,3 C 0,4 C 16,1 km/h (3 Bft) 100,00 %
23.03.2016 21:54 4,4 C 86 % 1007,2 hPa 0,0 l/m 13,5 km/h (3 Bft) SW 219 0 min 0,000 mm 0,0 UV-I 0 W/m 2,3 C -0,8 C 19,3 km/h (3 Bft) 100,00 %
23.03.2016 21:55 4,4 C 86 % 1007,2 hPa 0,0 l/m 13,7 km/h (3 Bft) W-SW 247 0 min 0,000 mm 0,0 UV-I 0 W/m 2,3 C -0,9 C 17,7 km/h (3 Bft) 100,00 %
23.03.2016 21:56 4,4 C 86 % 1007,1 hPa 0,0 l/m 12,8 km/h (3 Bft) W-SW 238 0 min 0,000 mm 0,0 UV-I 0 W/m 2,3 C -0,4 C 16,1 km/h (3 Bft) 100,00 %
23.03.2016 21:57 4,4 C 86 % 1007,1 hPa 0,0 l/m 11,6 km/h (2 Bft) W 260 0 min 0,000 mm 0,0 UV-I 0 W/m 2,3 C 0,3 C 16,1 km/h (3 Bft) 100,00 %
23.03.2016 21:58 4,4 C 86 % 1007,1 hPa 0,0 l/m 11,3 km/h (2 Bft) W 259 0 min 0,000 mm 0,0 UV-I 0 W/m 2,3 C 0,5 C 14,5 km/h (3 Bft) 98,76 %
23.03.2016 21:59 4,4 C 86 % 1007,1 hPa 0,0 l/m 12,9 km/h (3 Bft) W-SW 244 0 min 0,000 mm 0,0 UV-I 0 W/m 2,3 C -0,5 C 17,7 km/h (3 Bft) 100,00 %
23.03.2016 22:00 4,4 C 86 % 1007,2 hPa 0,0 l/m 11,0 km/h (2 Bft) W-SW 252 0 min 0,000 mm 0,0 UV-I 0 W/m 2,3 C 0,7 C 19,3 km/h (3 Bft) 95,83 %
23.03.2016 22:02 4,4 C 86 % 1007,2 hPa 0,0 l/m 14,0 km/h (3 Bft) W-SW 249 0 min 0,026 mm 0,0 UV-I 0 W/m 2,3 C -1,1 C 19,3 km/h (3 Bft) 98,08 %
23.03.2016 22:03 4,4 C 86 % 1007,2 hPa 0,0 l/m 11,7 km/h (2 Bft) W-SW 255 0 min 0,000 mm 0,0 UV-I 0 W/m 2,3 C 0,3 C 19,3 km/h (3 Bft) 93,33 %
23.03.2016 22:04 4,4 C 86 % 1007,2 hPa 0,0 l/m 11,2 km/h (2 Bft) W-SW 257 0 min 0,000 mm 0,0 UV-I 0 W/m 2,3 C 0,6 C 14,5 km/h (3 Bft) 100,00 %
23.03.2016 22:05 4,4 C 86 % 1007,2 hPa 0,0 l/m 10,1 km/h (2 Bft) SW 226 0 min 0,000 mm 0,0 UV-I 0 W/m 2,3 C 1,3 C 14,5 km/h (3 Bft) 93,10 %
23.03.2016 22:06 4,4 C 86 % 1007,2 hPa 0,0 l/m 12,7 km/h (3 Bft) W 261 0 min 0,000 mm 0,0 UV-I 0 W/m 2,3 C -0,4 C 19,3 km/h (3 Bft) 100,00 %
23.03.2016 22:07 4,4 C 86 % 1007,2 hPa 0,0 l/m 14,3 km/h (3 Bft) W-SW 250 0 min 0,000 mm 0,0 UV-I 0 W/m 2,3 C -1,3 C 22,5 km/h (4 Bft) 95,65 %
23.03.2016 22:08 4,4 C 86 % 1007,3 hPa 0,0 l/m 14,8 km/h (3 Bft) SW 217 0 min 0,000 mm 0,0 UV-I 0 W/m 2,3 C -1,5 C 20,9 km/h (4 Bft) 100,00 %
23.03.2016 22:09 4,4 C 86 % 1007,2 hPa 0,0 l/m 17,2 km/h (3 Bft) SW 218 0 min 0,000 mm 0,0 UV-I 0 W/m 2,3 C -2,7 C 22,5 km/h (4 Bft) 92,31 %
23.03.2016 22:10 4,4 C 85 % 1007,2 hPa 0,0 l/m 15,3 km/h (3 Bft) SW 235 0 min 0,000 mm 0,0 UV-I 0 W/m 2,1 C -1,8 C 19,3 km/h (3 Bft) 100,00 %
23.03.2016 22:11 4,4 C 85 % 1007,3 hPa 0,0 l/m 13,9 km/h (3 Bft) W 261 0 min 0,000 mm 0,0 UV-I 0 W/m 2,1 C -1,1 C 17,7 km/h (3 Bft) 96,55 %
23.03.2016 22:12 4,4 C 85 % 1007,2 hPa 0,0 l/m 15,1 km/h (3 Bft) W-SW 237 0 min 0,000 mm 0,0 UV-I 0 W/m 2,1 C -1,7 C 22,5 km/h (4 Bft) 96,30 %
23.03.2016 22:13 4,4 C 85 % 1007,2 hPa 0,0 l/m 10,1 km/h (2 Bft) SW 232 0 min 0,000 mm 0,0 UV-I 0 W/m 2,1 C 1,3 C 14,5 km/h (3 Bft) 100,00 %
23.03.2016 22:14 4,4 C 85 % 1007,2 hPa 0,0 l/m 14,2 km/h (3 Bft) W-SW 244 0 min 0,000 mm 0,0 UV-I 0 W/m 2,1 C -1,2 C 17,7 km/h (3 Bft) 91,67 %
23.03.2016 22:15 4,4 C 85 % 1007,2 hPa 0,0 l/m 15,8 km/h (3 Bft) W-SW 240 0 min 0,000 mm 0,0 UV-I 0 W/m 2,1 C -2,1 C 19,3 km/h (3 Bft) 100,00 %
23.03.2016 22:16 4,4 C 85 % 1007,3 hPa 0,0 l/m 12,2 km/h (2 Bft) W-SW 256 0 min 0,000 mm 0,0 UV-I 0 W/m 2,1 C -0,1 C 16,1 km/h (3 Bft) 96,67 %
23.03.2016 22:17 4,4 C 85 % 1007,3 hPa 0,0 l/m 12,2 km/h (2 Bft) SW 235 0 min 0,000 mm 0,0 UV-I 0 W/m 2,1 C -0,1 C 17,7 km/h (3 Bft) 96,15 %
23.03.2016 22:18 4,4 C 85 % 1007,3 hPa 0,0 l/m 13,8 km/h (3 Bft) SW 219 0 min 0,000 mm 0,0 UV-I 0 W/m 2,1 C -1,0 C 17,7 km/h (3 Bft) 100,00 %
23.03.2016 22:19 4,4 C 85 % 1007,3 hPa 0,0 l/m 14,3 km/h (3 Bft) W-SW 257 0 min 0,000 mm 0,0 UV-I 0 W/m 2,1 C -1,3 C 19,3 km/h (3 Bft) 96,30 %
23.03.2016 22:20 4,4 C 86 % 1007,3 hPa 0,0 l/m 14,6 km/h (3 Bft) SW 229 0 min 0,000 mm 0,0 UV-I 0 W/m 2,3 C -1,4 C 20,9 km/h (4 Bft) 100,00 %
23.03.2016 22:21 4,4 C 85 % 1007,3 hPa 0,0 l/m 13,0 km/h (3 Bft) SW 216 0 min 0,000 mm 0,0 UV-I 0 W/m 2,1 C -0,5 C 17,7 km/h (3 Bft) 96,15 %
23.03.2016 22:22 4,4 C 85 % 1007,3 hPa 0,0 l/m 13,0 km/h (3 Bft) W-SW 252 0 min 0,000 mm 0,0 UV-I 0 W/m 2,1 C -0,5 C 17,7 km/h (3 Bft) 100,00 %
23.03.2016 22:23 4,4 C 85 % 1007,3 hPa 0,0 l/m 10,3 km/h (2 Bft) W-SW 258 0 min 0,000 mm 0,0 UV-I 0 W/m 2,1 C 1,2 C 14,5 km/h (3 Bft) 93,33 %
23.03.2016 22:24 4,4 C 85 % 1007,3 hPa 0,0 l/m 14,2 km/h (3 Bft) S-SW 202 0 min 0,000 mm 0,0 UV-I 0 W/m 2,1 C -1,2 C 20,9 km/h (4 Bft) 100,00 %
23.03.2016 22:25 4,4 C 85 % 1007,3 hPa 0,0 l/m 11,8 km/h (2 Bft) S-SW 207 0 min 0,000 mm 0,0 UV-I 0 W/m 2,1 C 0,2 C 16,1 km/h (3 Bft) 91,67 %
23.03.2016 22:26 4,4 C 85 % 1007,3 hPa 0,0 l/m 11,3 km/h (2 Bft) SW 229 0 min 0,000 mm 0,0 UV-I 0 W/m 2,1 C 0,5 C 16,1 km/h (3 Bft) 100,00 %
23.03.2016 22:27 4,4 C 85 % 1007,3 hPa 0,0 l/m 11,9 km/h (2 Bft) W-SW 237 0 min 0,000 mm 0,0 UV-I 0 W/m 2,1 C 0,1 C 16,1 km/h (3 Bft) 95,83 %
23.03.2016 22:28 4,4 C 85 % 1007,3 hPa 0,0 l/m 12,7 km/h (3 Bft) W-SW 247 0 min 0,000 mm 0,0 UV-I 0 W/m 2,1 C -0,4 C 22,5 km/h (4 Bft) 95,65 %
23.03.2016 22:29 4,4 C 85 % 1007,3 hPa 0,0 l/m 13,0 km/h (3 Bft) SW 215 0 min 0,000 mm 0,0 UV-I 0 W/m 2,1 C -0,5 C 16,1 km/h (3 Bft) 100,00 %
23.03.2016 22:30 4,4 C 85 % 1007,3 hPa 0,0 l/m 14,1 km/h (3 Bft) SW 229 0 min 0,000 mm 0,0 UV-I 0 W/m 2,1 C -1,2 C 19,3 km/h (3 Bft) 91,30 %
23.03.2016 22:31 4,4 C 86 % 1007,3 hPa 0,0 l/m 15,3 km/h (3 Bft) W-SW 237 0 min 0,000 mm 0,0 UV-I 0 W/m 2,3 C -1,8 C 20,9 km/h (4 Bft) 100,00 %
23.03.2016 22:32 4,4 C 86 % 1007,3 hPa 0,0 l/m 10,0 km/h (2 Bft) S-SW 207 0 min 0,000 mm 0,0 UV-I 0 W/m 2,3 C 1,4 C 16,1 km/h (3 Bft) 93,10 %
23.03.2016 22:33 4,4 C 86 % 1007,3 hPa 0,0 l/m 10,0 km/h (2 Bft) SW 222 0 min 0,000 mm 0,0 UV-I 0 W/m 2,3 C 1,4 C 17,7 km/h (3 Bft) 96,30 %
23.03.2016 22:34 4,4 C 85 % 1007,3 hPa 0,0 l/m 14,1 km/h (3 Bft) S-SW 201 0 min 0,000 mm 0,0 UV-I 0 W/m 2,1 C -1,2 C 19,3 km/h (3 Bft) 100,00 %
23.03.2016 22:35 4,4 C 85 % 1007,3 hPa 0,0 l/m 14,0 km/h (3 Bft) SW 234 0 min 0,000 mm 0,0 UV-I 0 W/m 2,1 C -1,1 C 20,9 km/h (4 Bft) 100,00 %
23.03.2016 22:36 4,4 C 86 % 1007,3 hPa 0,0 l/m 14,2 km/h (3 Bft) SW 229 0 min 0,000 mm 0,0 UV-I 0 W/m 2,3 C -1,2 C 19,3 km/h (3 Bft) 96,15 %
23.03.2016 22:37 4,4 C 85 % 1007,3 hPa 0,0 l/m 10,7 km/h (2 Bft) W-SW 250 0 min 0,000 mm 0,0 UV-I 0 W/m 2,1 C 0,9 C 16,1 km/h (3 Bft) 100,00 %
23.03.2016 22:38 4,4 C 86 % 1007,3 hPa 0,0 l/m 13,9 km/h (3 Bft) W-SW 244 0 min 0,000 mm 0,0 UV-I 0 W/m 2,3 C -1,1 C 17,7 km/h (3 Bft) 100,00 %
23.03.2016 22:39 4,4 C 86 % 1007,3 hPa 0,0 l/m 14,6 km/h (3 Bft) SW 224 0 min 0,000 mm 0,0 UV-I 0 W/m 2,3 C -1,4 C 22,5 km/h (4 Bft) 95,83 %
23.03.2016 22:40 4,4 C 85 % 1007,3 hPa 0,0 l/m 13,5 km/h (3 Bft) SW 217 0 min 0,000 mm 0,0 UV-I 0 W/m 2,1 C -0,8 C 17,7 km/h (3 Bft) 100,00 %
23.03.2016 22:41 4,4 C 86 % 1007,3 hPa 0,0 l/m 14,2 km/h (3 Bft) W-SW 250 0 min 0,000 mm 0,0 UV-I 0 W/m 2,3 C -1,2 C 19,3 km/h (3 Bft) 100,00 %
23.03.2016 22:42 4,4 C 86 % 1007,3 hPa 0,0 l/m 15,0 km/h (3 Bft) SW 231 0 min 0,000 mm 0,0 UV-I 0 W/m 2,3 C -1,7 C 22,5 km/h (4 Bft) 95,65 %
23.03.2016 22:43 4,4 C 85 % 1007,4 hPa 0,0 l/m 15,9 km/h (3 Bft) W-SW 242 0 min 0,000 mm 0,0 UV-I 0 W/m 2,1 C -2,1 C 19,3 km/h (3 Bft) 100,00 %
23.03.2016 22:44 4,4 C 86 % 1007,3 hPa 0,0 l/m 12,5 km/h (3 Bft) S-SW 207 0 min 0,000 mm 0,0 UV-I 0 W/m 2,3 C -0,2 C 16,1 km/h (3 Bft) 100,00 %
23.03.2016 22:45 4,4 C 86 % 1007,4 hPa 0,0 l/m 15,8 km/h (3 Bft) SW 224 0 min 0,000 mm 0,0 UV-I 0 W/m 2,3 C -2,1 C 20,9 km/h (4 Bft) 96,88 %
23.03.2016 22:46 4,4 C 86 % 1007,4 hPa 0,0 l/m 13,4 km/h (3 Bft) SW 229 0 min 0,000 mm 0,0 UV-I 0 W/m 2,3 C -0,8 C 22,5 km/h (4 Bft) 100,00 %
23.03.2016 22:47 4,4 C 86 % 1007,4 hPa 0,0 l/m 14,6 km/h (3 Bft) SW 224 0 min 0,000 mm 0,0 UV-I 0 W/m 2,3 C -1,4 C 20,9 km/h (4 Bft) 100,00 %
23.03.2016 22:48 4,4 C 85 % 1007,4 hPa 0,0 l/m 12,0 km/h (2 Bft) W-SW 243 0 min 0,000 mm 0,0 UV-I 0 W/m 2,1 C 0,1 C 16,1 km/h (3 Bft) 100,00 %
23.03.2016 22:49 4,4 C 86 % 1007,4 hPa 0,0 l/m 11,5 km/h (2 Bft) SW 226 0 min 0,000 mm 0,0 UV-I 0 W/m 2,3 C 0,4 C 16,1 km/h (3 Bft) 100,00 %
23.03.2016 22:50 4,4 C 86 % 1007,3 hPa 0,0 l/m 13,0 km/h (3 Bft) W-SW 238 0 min 0,000 mm 0,0 UV-I 0 W/m 2,3 C -0,5 C 17,7 km/h (3 Bft) 100,00 %
23.03.2016 22:51 4,4 C 86 % 1007,4 hPa 0,0 l/m 11,5 km/h (2 Bft) SW 224 0 min 0,000 mm 0,0 UV-I 0 W/m 2,3 C 0,4 C 19,3 km/h (3 Bft) 100,00 %
23.03.2016 22:52 4,4 C 86 % 1007,3 hPa 0,0 l/m 10,1 km/h (2 Bft) W-SW 248 0 min 0,000 mm 0,0 UV-I 0 W/m 2,3 C 1,3 C 12,9 km/h (3 Bft) 100,00 %
23.03.2016 22:53 4,4 C 86 % 1007,4 hPa 0,0 l/m 10,5 km/h (2 Bft) SW 234 0 min 0,000 mm 0,0 UV-I 0 W/m 2,3 C 1,1 C 14,5 km/h (3 Bft) 100,00 %
23.03.2016 22:54 4,4 C 86 % 1007,3 hPa 0,0 l/m 8,7 km/h (2 Bft) W-SW 248 0 min 0,000 mm 0,0 UV-I 0 W/m 2,3 C 2,4 C 14,5 km/h (3 Bft) 100,00 %
23.03.2016 22:55 4,4 C 86 % 1007,4 hPa 0,0 l/m 9,8 km/h (2 Bft) W-SW 239 0 min 0,000 mm 0,0 UV-I 0 W/m 2,3 C 1,6 C 14,5 km/h (3 Bft) 95,65 %
23.03.2016 22:56 4,3 C 86 % 1007,4 hPa 0,0 l/m 10,1 km/h (2 Bft) SW 228 0 min 0,000 mm 0,0 UV-I 0 W/m 2,2 C 1,2 C 14,5 km/h (3 Bft) 100,00 %
23.03.2016 22:57 4,3 C 86 % 1007,3 hPa 0,0 l/m 8,0 km/h (2 Bft) W-SW 241 0 min 0,000 mm 0,0 UV-I 0 W/m 2,2 C 2,9 C 9,7 km/h (2 Bft) 100,00 %
23.03.2016 22:58 4,3 C 86 % 1007,3 hPa 0,0 l/m 9,4 km/h (2 Bft) W-SW 252 0 min 0,000 mm 0,0 UV-I 0 W/m 2,2 C 1,7 C 14,5 km/h (3 Bft) 96,88 %
23.03.2016 22:59 4,3 C 86 % 1007,4 hPa 0,0 l/m 9,2 km/h (2 Bft) SW 232 0 min 0,000 mm 0,0 UV-I 0 W/m 2,2 C 1,9 C 12,9 km/h (3 Bft) 96,15 %
23.03.2016 23:00 4,3 C 86 % 1007,4 hPa 0,0 l/m 10,4 km/h (2 Bft) W-SW 257 0 min 0,000 mm 0,0 UV-I 0 W/m 2,2 C 1,0 C 14,5 km/h (3 Bft) 100,00 %
23.03.2016 23:02 4,3 C 86 % 1007,3 hPa 0,0 l/m 10,3 km/h (2 Bft) SW 230 0 min 0,025 mm 0,0 UV-I 0 W/m 2,2 C 1,1 C 16,1 km/h (3 Bft) 100,00 %
23.03.2016 23:03 4,3 C 86 % 1007,3 hPa 0,0 l/m 8,6 km/h (2 Bft) W-SW 248 0 min 0,000 mm 0,0 UV-I 0 W/m 2,2 C 2,4 C 14,5 km/h (3 Bft) 100,00 %
23.03.2016 23:04 4,4 C 86 % 1007,3 hPa 0,0 l/m 9,8 km/h (2 Bft) W-SW 248 0 min 0,000 mm 0,0 UV-I 0 W/m 2,3 C 1,6 C 12,9 km/h (3 Bft) 100,00 %
23.03.2016 23:05 4,4 C 86 % 1007,3 hPa 0,0 l/m 13,4 km/h (3 Bft) W-SW 244 0 min 0,000 mm 0,0 UV-I 0 W/m 2,3 C -0,8 C 17,7 km/h (3 Bft) 100,00 %
23.03.2016 23:06 4,4 C 86 % 1007,3 hPa 0,0 l/m 10,5 km/h (2 Bft) W-SW 242 0 min 0,000 mm 0,0 UV-I 0 W/m 2,3 C 1,1 C 12,9 km/h (3 Bft) 96,15 %
23.03.2016 23:07 4,3 C 86 % 1007,3 hPa 0,0 l/m 9,5 km/h (2 Bft) SW 228 0 min 0,000 mm 0,0 UV-I 0 W/m 2,2 C 1,7 C 14,5 km/h (3 Bft) 100,00 %
23.03.2016 23:08 4,3 C 86 % 1007,3 hPa 0,0 l/m 10,1 km/h (2 Bft) SW 217 0 min 0,000 mm 0,0 UV-I 0 W/m 2,2 C 1,2 C 12,9 km/h (3 Bft) 100,00 %
23.03.2016 23:09 4,3 C 86 % 1007,3 hPa 0,0 l/m 12,1 km/h (2 Bft) SW 225 0 min 0,000 mm 0,0 UV-I 0 W/m 2,2 C -0,1 C 14,5 km/h (3 Bft) 100,00 %
23.03.2016 23:10 4,3 C 86 % 1007,3 hPa 0,0 l/m 11,0 km/h (2 Bft) SW 219 0 min 0,000 mm 0,0 UV-I 0 W/m 2,2 C 0,6 C 16,1 km/h (3 Bft) 100,00 %
23.03.2016 23:11 4,3 C 86 % 1007,3 hPa 0,0 l/m 8,8 km/h (2 Bft) W-SW 247 0 min 0,000 mm 0,0 UV-I 0 W/m 2,2 C 2,2 C 12,9 km/h (3 Bft) 100,00 %
23.03.2016 23:12 4,3 C 86 % 1007,3 hPa 0,0 l/m 8,9 km/h (2 Bft) SW 227 0 min 0,000 mm 0,0 UV-I 0 W/m 2,2 C 2,1 C 12,9 km/h (3 Bft) 100,00 %
23.03.2016 23:13 4,3 C 86 % 1007,3 hPa 0,0 l/m 10,7 km/h (2 Bft) W-SW 240 0 min 0,000 mm 0,0 UV-I 0 W/m 2,2 C 0,8 C 14,5 km/h (3 Bft) 100,00 %
23.03.2016 23:14 4,3 C 86 % 1007,3 hPa 0,0 l/m 10,7 km/h (2 Bft) W-SW 248 0 min 0,000 mm 0,0 UV-I 0 W/m 2,2 C 0,8 C 14,5 km/h (3 Bft) 100,00 %
23.03.2016 23:15 4,3 C 86 % 1007,3 hPa 0,0 l/m 9,7 km/h (2 Bft) SW 224 0 min 0,000 mm 0,0 UV-I 0 W/m 2,2 C 1,5 C 12,9 km/h (3 Bft) 100,00 %
23.03.2016 23:16 4,3 C 86 % 1007,3 hPa 0,0 l/m 8,4 km/h (2 Bft) SW 229 0 min 0,000 mm 0,0 UV-I 0 W/m 2,2 C 2,5 C 11,3 km/h (2 Bft) 93,75 %
23.03.2016 23:17 4,3 C 86 % 1007,3 hPa 0,0 l/m 9,1 km/h (2 Bft) SW 231 0 min 0,000 mm 0,0 UV-I 0 W/m 2,2 C 2,0 C 12,9 km/h (3 Bft) 100,00 %
23.03.2016 23:18 4,3 C 86 % 1007,3 hPa 0,0 l/m 11,0 km/h (2 Bft) W-SW 248 0 min 0,000 mm 0,0 UV-I 0 W/m 2,2 C 0,6 C 17,7 km/h (3 Bft) 100,00 %
23.03.2016 23:19 4,3 C 86 % 1007,4 hPa 0,0 l/m 10,1 km/h (2 Bft) SW 231 0 min 0,000 mm 0,0 UV-I 0 W/m 2,2 C 1,2 C 16,1 km/h (3 Bft) 100,00 %
23.03.2016 23:20 4,3 C 86 % 1007,3 hPa 0,0 l/m 9,4 km/h (2 Bft) SW 232 0 min 0,000 mm 0,0 UV-I 0 W/m 2,2 C 1,7 C 16,1 km/h (3 Bft) 100,00 %
23.03.2016 23:21 4,3 C 86 % 1007,3 hPa 0,0 l/m 12,2 km/h (2 Bft) SW 215 0 min 0,000 mm 0,0 UV-I 0 W/m 2,2 C -0,2 C 16,1 km/h (3 Bft) 100,00 %
23.03.2016 23:22 4,3 C 86 % 1007,4 hPa 0,0 l/m 12,0 km/h (2 Bft) SW 229 0 min 0,000 mm 0,0 UV-I 0 W/m 2,2 C -0,0 C 14,5 km/h (3 Bft) 100,00 %
23.03.2016 23:23 4,3 C 86 % 1007,4 hPa 0,0 l/m 10,5 km/h (2 Bft) W-SW 242 0 min 0,000 mm 0,0 UV-I 0 W/m 2,2 C 0,9 C 12,9 km/h (3 Bft) 95,65 %
23.03.2016 23:24 4,3 C 86 % 1007,4 hPa 0,0 l/m 8,3 km/h (2 Bft) SW 229 0 min 0,000 mm 0,0 UV-I 0 W/m 2,2 C 2,6 C 11,3 km/h (2 Bft) 100,00 %
23.03.2016 23:25 4,3 C 86 % 1007,3 hPa 0,0 l/m 7,1 km/h (2 Bft) SW 218 0 min 0,000 mm 0,0 UV-I 0 W/m 2,2 C 3,7 C 9,7 km/h (2 Bft) 98,73 %
23.03.2016 23:26 4,3 C 86 % 1007,4 hPa 0,0 l/m 9,6 km/h (2 Bft) SW 221 0 min 0,000 mm 0,0 UV-I 0 W/m 2,2 C 1,6 C 12,9 km/h (3 Bft) 100,00 %
23.03.2016 23:27 4,3 C 86 % 1007,3 hPa 0,0 l/m 10,2 km/h (2 Bft) W 259 0 min 0,000 mm 0,0 UV-I 0 W/m 2,2 C 1,2 C 14,5 km/h (3 Bft) 100,00 %
23.03.2016 23:28 4,3 C 86 % 1007,3 hPa 0,0 l/m 10,7 km/h (2 Bft) W-SW 241 0 min 0,000 mm 0,0 UV-I 0 W/m 2,2 C 0,8 C 12,9 km/h (3 Bft) 100,00 %
23.03.2016 23:29 4,3 C 86 % 1007,3 hPa 0,0 l/m 10,8 km/h (2 Bft) S-SW 209 0 min 0,000 mm 0,0 UV-I 0 W/m 2,2 C 0,7 C 14,5 km/h (3 Bft) 85,71 %
23.03.2016 23:30 4,3 C 86 % 1007,3 hPa 0,0 l/m 12,5 km/h (3 Bft) SW 219 0 min 0,000 mm 0,0 UV-I 0 W/m 2,2 C -0,4 C 16,1 km/h (3 Bft) 100,00 %
23.03.2016 23:31 4,3 C 86 % 1007,3 hPa 0,0 l/m 11,8 km/h (2 Bft) W-SW 237 0 min 0,000 mm 0,0 UV-I 0 W/m 2,2 C 0,1 C 16,1 km/h (3 Bft) 100,00 %
23.03.2016 23:32 4,3 C 86 % 1007,3 hPa 0,0 l/m 10,4 km/h (2 Bft) SW 223 0 min 0,000 mm 0,0 UV-I 0 W/m 2,2 C 1,0 C 16,1 km/h (3 Bft) 100,00 %
23.03.2016 23:33 4,3 C 86 % 1007,3 hPa 0,0 l/m 11,0 km/h (2 Bft) SW 228 0 min 0,000 mm 0,0 UV-I 0 W/m 2,2 C 0,6 C 17,7 km/h (3 Bft) 100,00 %
23.03.2016 23:34 4,3 C 86 % 1007,2 hPa 0,0 l/m 8,9 km/h (2 Bft) S-SW 210 0 min 0,000 mm 0,0 UV-I 0 W/m 2,2 C 2,1 C 11,3 km/h (2 Bft) 100,00 %
23.03.2016 23:35 4,3 C 86 % 1007,2 hPa 0,0 l/m 13,1 km/h (3 Bft) S-SW 209 0 min 0,000 mm 0,0 UV-I 0 W/m 2,2 C -0,7 C 19,3 km/h (3 Bft) 95,65 %
23.03.2016 23:36 4,3 C 86 % 1007,3 hPa 0,0 l/m 11,8 km/h (2 Bft) SW 233 0 min 0,000 mm 0,0 UV-I 0 W/m 2,2 C 0,1 C 19,3 km/h (3 Bft) 100,00 %
23.03.2016 23:37 4,3 C 86 % 1007,3 hPa 0,0 l/m 10,2 km/h (2 Bft) SW 235 0 min 0,000 mm 0,0 UV-I 0 W/m 2,2 C 1,2 C 12,9 km/h (3 Bft) 100,00 %
23.03.2016 23:38 4,3 C 86 % 1007,2 hPa 0,0 l/m 11,8 km/h (2 Bft) S-SW 208 0 min 0,000 mm 0,0 UV-I 0 W/m 2,2 C 0,1 C 14,5 km/h (3 Bft) 100,00 %
23.03.2016 23:39 4,3 C 86 % 1007,2 hPa 0,0 l/m 15,6 km/h (3 Bft) SW 217 0 min 0,000 mm 0,0 UV-I 0 W/m 2,2 C -2,1 C 19,3 km/h (3 Bft) 100,00 %
23.03.2016 23:40 4,3 C 86 % 1007,2 hPa 0,0 l/m 16,7 km/h (3 Bft) SW 234 0 min 0,000 mm 0,0 UV-I 0 W/m 2,2 C -2,6 C 20,9 km/h (4 Bft) 100,00 %
23.03.2016 23:41 4,3 C 86 % 1007,2 hPa 0,0 l/m 10,9 km/h (2 Bft) SW 236 0 min 0,000 mm 0,0 UV-I 0 W/m 2,2 C 0,7 C 16,1 km/h (3 Bft) 96,30 %
23.03.2016 23:42 4,3 C 86 % 1007,2 hPa 0,0 l/m 14,1 km/h (3 Bft) W-SW 244 0 min 0,000 mm 0,0 UV-I 0 W/m 2,2 C -1,3 C 19,3 km/h (3 Bft) 100,00 %
23.03.2016 23:43 4,3 C 86 % 1007,2 hPa 0,0 l/m 13,9 km/h (3 Bft) W-SW 238 0 min 0,000 mm 0,0 UV-I 0 W/m 2,2 C -1,2 C 20,9 km/h (4 Bft) 100,00 %
23.03.2016 23:44 4,3 C 86 % 1007,2 hPa 0,0 l/m 13,3 km/h (3 Bft) W-SW 237 0 min 0,000 mm 0,0 UV-I 0 W/m 2,2 C -0,8 C 17,7 km/h (3 Bft) 100,00 %
23.03.2016 23:45 4,3 C 86 % 1007,2 hPa 0,0 l/m 15,9 km/h (3 Bft) W-SW 244 0 min 0,000 mm 0,0 UV-I 0 W/m 2,2 C -2,2 C 20,9 km/h (4 Bft) 93,33 %
23.03.2016 23:46 4,3 C 86 % 1007,2 hPa 0,0 l/m 11,9 km/h (2 Bft) S 178 0 min 0,000 mm 0,0 UV-I 0 W/m 2,2 C 0,0 C 16,1 km/h (3 Bft) 100,00 %
23.03.2016 23:47 4,3 C 86 % 1007,2 hPa 0,0 l/m 11,8 km/h (2 Bft) SW 234 0 min 0,000 mm 0,0 UV-I 0 W/m 2,2 C 0,1 C 17,7 km/h (3 Bft) 100,00 %
23.03.2016 23:48 4,3 C 86 % 1007,2 hPa 0,0 l/m 17,1 km/h (3 Bft) S-SW 195 0 min 0,000 mm 0,0 UV-I 0 W/m 2,2 C -2,8 C 24,1 km/h (4 Bft) 92,86 %
23.03.2016 23:49 4,3 C 86 % 1007,2 hPa 0,0 l/m 12,8 km/h (3 Bft) SW 217 0 min 0,000 mm 0,0 UV-I 0 W/m 2,2 C -0,5 C 17,7 km/h (3 Bft) 100,00 %
23.03.2016 23:50 4,3 C 86 % 1007,2 hPa 0,0 l/m 11,7 km/h (2 Bft) SW 215 0 min 0,000 mm 0,0 UV-I 0 W/m 2,2 C 0,1 C 19,3 km/h (3 Bft) 100,00 %
23.03.2016 23:51 4,3 C 86 % 1007,2 hPa 0,0 l/m 13,1 km/h (3 Bft) W-SW 237 0 min 0,000 mm 0,0 UV-I 0 W/m 2,2 C -0,7 C 17,7 km/h (3 Bft) 95,83 %
23.03.2016 23:52 4,3 C 86 % 1007,2 hPa 0,0 l/m 14,0 km/h (3 Bft) W-SW 244 0 min 0,000 mm 0,0 UV-I 0 W/m 2,2 C -1,2 C 19,3 km/h (3 Bft) 100,00 %
23.03.2016 23:53 4,3 C 86 % 1007,2 hPa 0,0 l/m 13,3 km/h (3 Bft) SW 234 0 min 0,000 mm 0,0 UV-I 0 W/m 2,2 C -0,8 C 17,7 km/h (3 Bft) 100,00 %
23.03.2016 23:54 4,3 C 86 % 1007,2 hPa 0,0 l/m 13,6 km/h (3 Bft) SW 219 0 min 0,000 mm 0,0 UV-I 0 W/m 2,2 C -1,0 C 20,9 km/h (4 Bft) 100,00 %
23.03.2016 23:55 4,3 C 86 % 1007,2 hPa 0,0 l/m 12,1 km/h (2 Bft) SW 225 0 min 0,000 mm 0,0 UV-I 0 W/m 2,2 C -0,1 C 14,5 km/h (3 Bft) 100,00 %
23.03.2016 23:56 4,3 C 86 % 1007,2 hPa 0,0 l/m 12,9 km/h (3 Bft) SW 230 0 min 0,000 mm 0,0 UV-I 0 W/m 2,2 C -0,6 C 17,7 km/h (3 Bft) 100,00 %
23.03.2016 23:57 4,3 C 86 % 1007,2 hPa 0,0 l/m 13,2 km/h (3 Bft) W-SW 239 0 min 0,000 mm 0,0 UV-I 0 W/m 2,2 C -0,8 C 17,7 km/h (3 Bft) 100,00 %
23.03.2016 23:58 4,3 C 86 % 1007,2 hPa 0,0 l/m 13,0 km/h (3 Bft) SW 228 0 min 0,000 mm 0,0 UV-I 0 W/m 2,2 C -0,7 C 19,3 km/h (3 Bft) 100,00 %
23.03.2016 23:59 4,3 C 86 % 1007,2 hPa 0,0 l/m 12,1 km/h (2 Bft) SW 232 0 min 0,000 mm 0,0 UV-I 0 W/m 2,2 C -0,1 C 16,1 km/h (3 Bft) 100,00 %
_ Min-Zeit 06:01 11:58 14:40 - 00:31 - - - - - - 11:58 21:41 00:31 23:29
Minimum _ 2,9 C 56 % 1005,3 hPa - 0,0 km/h (0 Bft) - - - - - - -0,1 C -3,6 C 0,0 km/h (0 Bft) 85,71 %
_ Max-Zeit 13:16 04:43 00:00 15:02 21:41 - - 09:02 12:01 10:59 11:00 10:57 13:16 14:11 00:03
Maximum _ 8,6 C 93 % 1008,9 hPa 0,2 l/m 19,1 km/h
W-SW (3 Bft)
- - 2 min 0,229 mm 2,7 UV-I 874 W/m 3,5 C 8,6 C 25,7 km/h
NO (4 Bft)
100,00 %
Durchschnitt _ 5,0 C 82 % 1006,7 hPa #1,2 l/m 5,3 km/h (1 Bft) SW - #2:18 h #1,219 mm 1,4 UV-I 188 W/m 2,0 C 3,7 C 7,9 km/h (2 Bft) 98,72 %